<?xml version="1.0" encoding="UTF-8"?><gpx xmlns="http://www.topografix.com/GPX/1/1" version="1.1" creator="iOrient"><trk><name>Зимний Кубок. Этап 2</name><trkseg><trkpt lat="55.7397474" lon="49.2237988"><time>2025-03-02T09:48:50.077</time></trkpt><trkpt lat="55.7393142" lon="49.2236237"><time>2025-03-02T09:48:52.370</time></trkpt><trkpt lat="55.7393000" lon="49.2237366"><time>2025-03-02T09:48:54.257</time></trkpt><trkpt lat="55.7392456" lon="49.2237702"><time>2025-03-02T09:48:56.253</time></trkpt><trkpt lat="55.7392002" lon="49.2237530"><time>2025-03-02T09:48:58.260</time></trkpt><trkpt lat="55.7391990" lon="49.2238722"><time>2025-03-02T09:49:11.257</time></trkpt><trkpt lat="55.7391958" lon="49.2237722"><time>2025-03-02T09:49:17.260</time></trkpt><trkpt lat="55.7391793" lon="49.2236749"><time>2025-03-02T09:49:20.260</time></trkpt><trkpt lat="55.7392228" lon="49.2236479"><time>2025-03-02T09:49:30.263</time></trkpt><trkpt lat="55.7390741" lon="49.2236164"><time>2025-03-02T09:49:33.257</time></trkpt><trkpt lat="55.7390806" lon="49.2235067"><time>2025-03-02T09:49:39.250</time></trkpt><trkpt lat="55.7391263" lon="49.2234775"><time>2025-03-02T09:49:41.263</time></trkpt><trkpt lat="55.7391112" lon="49.2234000"><time>2025-03-02T09:49:43.257</time></trkpt><trkpt lat="55.7391060" lon="49.2233178"><time>2025-03-02T09:49:46.257</time></trkpt><trkpt lat="55.7390972" lon="49.2232334"><time>2025-03-02T09:49:51.263</time></trkpt><trkpt lat="55.7390515" lon="49.2232415"><time>2025-03-02T09:49:55.257</time></trkpt><trkpt lat="55.7390043" lon="49.2231969"><time>2025-03-02T09:49:59.257</time></trkpt><trkpt lat="55.7389638" lon="49.2231496"><time>2025-03-02T09:50:04.257</time></trkpt><trkpt lat="55.7389138" lon="49.2231231"><time>2025-03-02T09:50:10.253</time></trkpt><trkpt lat="55.7389634" lon="49.2231094"><time>2025-03-02T09:50:16.257</time></trkpt><trkpt lat="55.7390031" lon="49.2231593"><time>2025-03-02T09:50:18.253</time></trkpt><trkpt lat="55.7389735" lon="49.2232329"><time>2025-03-02T09:50:27.263</time></trkpt><trkpt lat="55.7389336" lon="49.2232777"><time>2025-03-02T09:50:29.253</time></trkpt><trkpt lat="55.7388913" lon="49.2233211"><time>2025-03-02T09:50:32.250</time></trkpt><trkpt lat="55.7389218" lon="49.2232599"><time>2025-03-02T09:50:43.257</time></trkpt><trkpt lat="55.7389304" lon="49.2233391"><time>2025-03-02T09:50:51.257</time></trkpt><trkpt lat="55.7389100" lon="49.2234321"><time>2025-03-02T09:50:53.257</time></trkpt><trkpt lat="55.7388825" lon="49.2235020"><time>2025-03-02T09:50:55.257</time></trkpt><trkpt lat="55.7388450" lon="49.2235507"><time>2025-03-02T09:50:57.260</time></trkpt><trkpt lat="55.7388036" lon="49.2236405"><time>2025-03-02T09:50:59.257</time></trkpt><trkpt lat="55.7387760" lon="49.2237177"><time>2025-03-02T09:51:01.257</time></trkpt><trkpt lat="55.7387714" lon="49.2238063"><time>2025-03-02T09:51:14.257</time></trkpt><trkpt lat="55.7387317" lon="49.2238677"><time>2025-03-02T09:51:18.260</time></trkpt><trkpt lat="55.7386898" lon="49.2239144"><time>2025-03-02T09:51:21.260</time></trkpt><trkpt lat="55.7386505" lon="49.2239869"><time>2025-03-02T09:51:26.257</time></trkpt><trkpt lat="55.7386150" lon="49.2240601"><time>2025-03-02T09:51:28.257</time></trkpt><trkpt lat="55.7386243" lon="49.2239717"><time>2025-03-02T09:51:33.257</time></trkpt><trkpt lat="55.7386273" lon="49.2238882"><time>2025-03-02T09:51:35.253</time></trkpt><trkpt lat="55.7386336" lon="49.2238011"><time>2025-03-02T09:51:40.260</time></trkpt><trkpt lat="55.7386301" lon="49.2237182"><time>2025-03-02T09:52:03.367</time></trkpt><trkpt lat="55.7385970" lon="49.2236124"><time>2025-03-02T09:52:06.367</time></trkpt><trkpt lat="55.7385877" lon="49.2235303"><time>2025-03-02T09:52:10.363</time></trkpt><trkpt lat="55.7385777" lon="49.2234484"><time>2025-03-02T09:52:18.363</time></trkpt><trkpt lat="55.7385473" lon="49.2233446"><time>2025-03-02T09:52:21.373</time></trkpt><trkpt lat="55.7385309" lon="49.2232576"><time>2025-03-02T09:52:23.370</time></trkpt><trkpt lat="55.7384998" lon="49.2231636"><time>2025-03-02T09:52:25.370</time></trkpt><trkpt lat="55.7384600" lon="49.2230771"><time>2025-03-02T09:52:27.367</time></trkpt><trkpt lat="55.7384305" lon="49.2229966"><time>2025-03-02T09:52:29.373</time></trkpt><trkpt lat="55.7384115" lon="49.2229083"><time>2025-03-02T09:52:32.370</time></trkpt><trkpt lat="55.7384573" lon="49.2228991"><time>2025-03-02T09:52:34.363</time></trkpt><trkpt lat="55.7384199" lon="49.2228239"><time>2025-03-02T09:52:39.363</time></trkpt><trkpt lat="55.7383770" lon="49.2227919"><time>2025-03-02T09:52:41.370</time></trkpt><trkpt lat="55.7383345" lon="49.2227526"><time>2025-03-02T09:52:43.373</time></trkpt><trkpt lat="55.7383000" lon="49.2226870"><time>2025-03-02T09:52:46.367</time></trkpt><trkpt lat="55.7382582" lon="49.2226129"><time>2025-03-02T09:52:49.367</time></trkpt><trkpt lat="55.7382102" lon="49.2225577"><time>2025-03-02T09:52:52.253</time></trkpt><trkpt lat="55.7381540" lon="49.2224903"><time>2025-03-02T09:52:55.363</time></trkpt><trkpt lat="55.7381081" lon="49.2224013"><time>2025-03-02T09:52:57.363</time></trkpt><trkpt lat="55.7380472" lon="49.2223116"><time>2025-03-02T09:52:59.370</time></trkpt><trkpt lat="55.7379943" lon="49.2222733"><time>2025-03-02T09:53:01.387</time></trkpt><trkpt lat="55.7379670" lon="49.2221901"><time>2025-03-02T09:53:05.357</time></trkpt><trkpt lat="55.7379078" lon="49.2222351"><time>2025-03-02T09:53:08.367</time></trkpt><trkpt lat="55.7378659" lon="49.2223150"><time>2025-03-02T09:53:10.377</time></trkpt><trkpt lat="55.7378211" lon="49.2223823"><time>2025-03-02T09:53:12.373</time></trkpt><trkpt lat="55.7377906" lon="49.2224443"><time>2025-03-02T09:53:14.367</time></trkpt><trkpt lat="55.7377646" lon="49.2225095"><time>2025-03-02T09:53:20.367</time></trkpt><trkpt lat="55.7377135" lon="49.2226200"><time>2025-03-02T09:53:34.373</time></trkpt><trkpt lat="55.7376806" lon="49.2226840"><time>2025-03-02T09:53:35.370</time></trkpt><trkpt lat="55.7376416" lon="49.2227342"><time>2025-03-02T09:53:36.370</time></trkpt><trkpt lat="55.7375278" lon="49.2227963"><time>2025-03-02T09:53:37.370</time></trkpt><trkpt lat="55.7374746" lon="49.2227456"><time>2025-03-02T09:53:40.397</time></trkpt><trkpt lat="55.7375579" lon="49.2227105"><time>2025-03-02T09:53:44.373</time></trkpt><trkpt lat="55.7375110" lon="49.2226797"><time>2025-03-02T09:54:03.357</time></trkpt><trkpt lat="55.7375482" lon="49.2227341"><time>2025-03-02T09:54:12.367</time></trkpt><trkpt lat="55.7375876" lon="49.2227740"><time>2025-03-02T09:54:14.367</time></trkpt><trkpt lat="55.7376349" lon="49.2228338"><time>2025-03-02T09:54:19.363</time></trkpt><trkpt lat="55.7376788" lon="49.2228698"><time>2025-03-02T09:54:21.377</time></trkpt><trkpt lat="55.7376677" lon="49.2229501"><time>2025-03-02T09:54:32.387</time></trkpt><trkpt lat="55.7376278" lon="49.2228937"><time>2025-03-02T09:54:37.367</time></trkpt><trkpt lat="55.7376438" lon="49.2227832"><time>2025-03-02T09:54:41.367</time></trkpt><trkpt lat="55.7375998" lon="49.2227345"><time>2025-03-02T09:54:48.367</time></trkpt><trkpt lat="55.7375880" lon="49.2226574"><time>2025-03-02T09:54:55.263</time></trkpt><trkpt lat="55.7375289" lon="49.2226632"><time>2025-03-02T09:55:03.377</time></trkpt><trkpt lat="55.7374812" lon="49.2226559"><time>2025-03-02T09:55:06.367</time></trkpt><trkpt lat="55.7374285" lon="49.2226468"><time>2025-03-02T09:55:09.373</time></trkpt><trkpt lat="55.7373811" lon="49.2226649"><time>2025-03-02T09:55:13.387</time></trkpt><trkpt lat="55.7373450" lon="49.2225712"><time>2025-03-02T09:55:17.373</time></trkpt><trkpt lat="55.7372963" lon="49.2225492"><time>2025-03-02T09:55:20.377</time></trkpt><trkpt lat="55.7372595" lon="49.2224884"><time>2025-03-02T09:55:24.370</time></trkpt><trkpt lat="55.7372278" lon="49.2224147"><time>2025-03-02T09:55:28.370</time></trkpt><trkpt lat="55.7371925" lon="49.2224721"><time>2025-03-02T09:55:33.380</time></trkpt><trkpt lat="55.7371479" lon="49.2225168"><time>2025-03-02T09:55:37.367</time></trkpt><trkpt lat="55.7371001" lon="49.2225305"><time>2025-03-02T09:55:40.363</time></trkpt><trkpt lat="55.7370510" lon="49.2224859"><time>2025-03-02T09:55:43.263</time></trkpt><trkpt lat="55.7370064" lon="49.2225275"><time>2025-03-02T09:55:47.367</time></trkpt><trkpt lat="55.7369965" lon="49.2224415"><time>2025-03-02T09:55:53.367</time></trkpt><trkpt lat="55.7369534" lon="49.2223589"><time>2025-03-02T09:55:56.367</time></trkpt><trkpt lat="55.7369098" lon="49.2223384"><time>2025-03-02T09:55:58.367</time></trkpt><trkpt lat="55.7368458" lon="49.2223808"><time>2025-03-02T09:56:00.260</time></trkpt><trkpt lat="55.7368138" lon="49.2224382"><time>2025-03-02T09:56:02.260</time></trkpt><trkpt lat="55.7367806" lon="49.2224960"><time>2025-03-02T09:56:04.257</time></trkpt><trkpt lat="55.7367801" lon="49.2226044"><time>2025-03-02T09:56:08.260</time></trkpt><trkpt lat="55.7367707" lon="49.2226846"><time>2025-03-02T09:56:12.260</time></trkpt><trkpt lat="55.7367318" lon="49.2227471"><time>2025-03-02T09:56:14.260</time></trkpt><trkpt lat="55.7366873" lon="49.2228155"><time>2025-03-02T09:56:16.260</time></trkpt><trkpt lat="55.7366540" lon="49.2228711"><time>2025-03-02T09:56:19.257</time></trkpt><trkpt lat="55.7366161" lon="49.2228248"><time>2025-03-02T09:56:22.267</time></trkpt><trkpt lat="55.7365659" lon="49.2227380"><time>2025-03-02T09:56:25.253</time></trkpt><trkpt lat="55.7366042" lon="49.2227267"><time>2025-03-02T09:56:41.543</time></trkpt><trkpt lat="55.7366249" lon="49.2227326"><time>2025-03-02T09:56:42.247</time></trkpt><trkpt lat="55.7366535" lon="49.2228464"><time>2025-03-02T09:56:45.260</time></trkpt><trkpt lat="55.7366267" lon="49.2229282"><time>2025-03-02T09:56:51.257</time></trkpt><trkpt lat="55.7366534" lon="49.2230009"><time>2025-03-02T09:56:59.257</time></trkpt><trkpt lat="55.7366945" lon="49.2229350"><time>2025-03-02T09:57:04.260</time></trkpt><trkpt lat="55.7367817" lon="49.2228556"><time>2025-03-02T09:57:09.260</time></trkpt><trkpt lat="55.7368277" lon="49.2228804"><time>2025-03-02T09:57:14.263</time></trkpt><trkpt lat="55.7367868" lon="49.2229201"><time>2025-03-02T09:57:16.260</time></trkpt><trkpt lat="55.7367750" lon="49.2230122"><time>2025-03-02T09:57:18.257</time></trkpt><trkpt lat="55.7367575" lon="49.2231087"><time>2025-03-02T09:57:20.260</time></trkpt><trkpt lat="55.7367293" lon="49.2231752"><time>2025-03-02T09:57:22.257</time></trkpt><trkpt lat="55.7366856" lon="49.2232443"><time>2025-03-02T09:57:25.263</time></trkpt><trkpt lat="55.7366398" lon="49.2232974"><time>2025-03-02T09:57:28.257</time></trkpt><trkpt lat="55.7365814" lon="49.2233366"><time>2025-03-02T09:57:31.257</time></trkpt><trkpt lat="55.7365321" lon="49.2233345"><time>2025-03-02T09:57:33.257</time></trkpt><trkpt lat="55.7364745" lon="49.2232681"><time>2025-03-02T09:57:37.260</time></trkpt><trkpt lat="55.7364251" lon="49.2232105"><time>2025-03-02T09:57:39.257</time></trkpt><trkpt lat="55.7363026" lon="49.2230182"><time>2025-03-02T09:57:41.267</time></trkpt><trkpt lat="55.7362573" lon="49.2229721"><time>2025-03-02T09:57:47.257</time></trkpt><trkpt lat="55.7362157" lon="49.2229338"><time>2025-03-02T09:57:49.257</time></trkpt><trkpt lat="55.7361682" lon="49.2228687"><time>2025-03-02T09:57:55.257</time></trkpt><trkpt lat="55.7361419" lon="49.2227754"><time>2025-03-02T09:58:00.257</time></trkpt><trkpt lat="55.7360871" lon="49.2227429"><time>2025-03-02T09:58:03.257</time></trkpt><trkpt lat="55.7360402" lon="49.2227376"><time>2025-03-02T09:58:05.257</time></trkpt><trkpt lat="55.7359771" lon="49.2227342"><time>2025-03-02T09:58:08.257</time></trkpt><trkpt lat="55.7359128" lon="49.2227015"><time>2025-03-02T09:58:11.253</time></trkpt><trkpt lat="55.7358672" lon="49.2227013"><time>2025-03-02T09:58:13.257</time></trkpt><trkpt lat="55.7358149" lon="49.2227102"><time>2025-03-02T09:58:17.267</time></trkpt><trkpt lat="55.7357700" lon="49.2227026"><time>2025-03-02T09:58:20.260</time></trkpt><trkpt lat="55.7358159" lon="49.2227264"><time>2025-03-02T09:58:29.257</time></trkpt><trkpt lat="55.7357720" lon="49.2226671"><time>2025-03-02T09:58:43.260</time></trkpt><trkpt lat="55.7357647" lon="49.2227836"><time>2025-03-02T09:58:46.267</time></trkpt><trkpt lat="55.7357533" lon="49.2228758"><time>2025-03-02T09:58:51.260</time></trkpt><trkpt lat="55.7357356" lon="49.2229497"><time>2025-03-02T09:58:54.257</time></trkpt><trkpt lat="55.7357331" lon="49.2230476"><time>2025-03-02T09:58:58.257</time></trkpt><trkpt lat="55.7357078" lon="49.2231367"><time>2025-03-02T09:59:00.257</time></trkpt><trkpt lat="55.7356571" lon="49.2231862"><time>2025-03-02T09:59:03.263</time></trkpt><trkpt lat="55.7355962" lon="49.2232573"><time>2025-03-02T09:59:05.260</time></trkpt><trkpt lat="55.7356110" lon="49.2233604"><time>2025-03-02T09:59:13.257</time></trkpt><trkpt lat="55.7355882" lon="49.2234647"><time>2025-03-02T09:59:15.267</time></trkpt><trkpt lat="55.7356257" lon="49.2235207"><time>2025-03-02T09:59:24.253</time></trkpt><trkpt lat="55.7356268" lon="49.2236186"><time>2025-03-02T09:59:28.267</time></trkpt><trkpt lat="55.7356597" lon="49.2236815"><time>2025-03-02T09:59:32.260</time></trkpt><trkpt lat="55.7356162" lon="49.2237397"><time>2025-03-02T09:59:37.260</time></trkpt><trkpt lat="55.7355790" lon="49.2238032"><time>2025-03-02T09:59:40.257</time></trkpt><trkpt lat="55.7356006" lon="49.2238803"><time>2025-03-02T09:59:44.257</time></trkpt><trkpt lat="55.7356204" lon="49.2239523"><time>2025-03-02T09:59:49.260</time></trkpt><trkpt lat="55.7356068" lon="49.2240557"><time>2025-03-02T09:59:53.270</time></trkpt><trkpt lat="55.7355894" lon="49.2241427"><time>2025-03-02T09:59:56.260</time></trkpt><trkpt lat="55.7356050" lon="49.2242447"><time>2025-03-02T10:00:01.257</time></trkpt><trkpt lat="55.7355880" lon="49.2243549"><time>2025-03-02T10:00:03.267</time></trkpt><trkpt lat="55.7355514" lon="49.2244340"><time>2025-03-02T10:00:05.270</time></trkpt><trkpt lat="55.7355142" lon="49.2245088"><time>2025-03-02T10:00:07.260</time></trkpt><trkpt lat="55.7355219" lon="49.2246217"><time>2025-03-02T10:00:10.270</time></trkpt><trkpt lat="55.7355302" lon="49.2247397"><time>2025-03-02T10:00:12.260</time></trkpt><trkpt lat="55.7355332" lon="49.2248321"><time>2025-03-02T10:00:15.260</time></trkpt><trkpt lat="55.7355862" lon="49.2249146"><time>2025-03-02T10:00:18.267</time></trkpt><trkpt lat="55.7356115" lon="49.2250107"><time>2025-03-02T10:00:20.260</time></trkpt><trkpt lat="55.7356012" lon="49.2250953"><time>2025-03-02T10:00:23.260</time></trkpt><trkpt lat="55.7355783" lon="49.2252241"><time>2025-03-02T10:00:25.260</time></trkpt><trkpt lat="55.7355449" lon="49.2252895"><time>2025-03-02T10:00:28.260</time></trkpt><trkpt lat="55.7355142" lon="49.2253678"><time>2025-03-02T10:00:31.260</time></trkpt><trkpt lat="55.7354871" lon="49.2254464"><time>2025-03-02T10:00:34.260</time></trkpt><trkpt lat="55.7354419" lon="49.2254748"><time>2025-03-02T10:00:38.257</time></trkpt><trkpt lat="55.7353987" lon="49.2254377"><time>2025-03-02T10:00:53.260</time></trkpt><trkpt lat="55.7353670" lon="49.2255161"><time>2025-03-02T10:00:57.250</time></trkpt><trkpt lat="55.7353744" lon="49.2254182"><time>2025-03-02T10:01:12.257</time></trkpt><trkpt lat="55.7353734" lon="49.2253234"><time>2025-03-02T10:01:17.260</time></trkpt><trkpt lat="55.7353618" lon="49.2252386"><time>2025-03-02T10:01:21.260</time></trkpt><trkpt lat="55.7353368" lon="49.2251493"><time>2025-03-02T10:01:24.263</time></trkpt><trkpt lat="55.7353341" lon="49.2250448"><time>2025-03-02T10:01:26.260</time></trkpt><trkpt lat="55.7353585" lon="49.2249631"><time>2025-03-02T10:01:30.267</time></trkpt><trkpt lat="55.7353407" lon="49.2248472"><time>2025-03-02T10:01:34.257</time></trkpt><trkpt lat="55.7353005" lon="49.2247785"><time>2025-03-02T10:01:37.257</time></trkpt><trkpt lat="55.7352540" lon="49.2247198"><time>2025-03-02T10:01:40.270</time></trkpt><trkpt lat="55.7352270" lon="49.2246028"><time>2025-03-02T10:01:43.257</time></trkpt><trkpt lat="55.7352085" lon="49.2245042"><time>2025-03-02T10:01:45.260</time></trkpt><trkpt lat="55.7352362" lon="49.2243932"><time>2025-03-02T10:01:47.260</time></trkpt><trkpt lat="55.7352631" lon="49.2242932"><time>2025-03-02T10:01:50.257</time></trkpt><trkpt lat="55.7352317" lon="49.2241800"><time>2025-03-02T10:01:52.260</time></trkpt><trkpt lat="55.7351949" lon="49.2241126"><time>2025-03-02T10:01:54.260</time></trkpt><trkpt lat="55.7351562" lon="49.2240271"><time>2025-03-02T10:01:56.260</time></trkpt><trkpt lat="55.7351175" lon="49.2239791"><time>2025-03-02T10:01:59.257</time></trkpt><trkpt lat="55.7350731" lon="49.2239539"><time>2025-03-02T10:02:04.357</time></trkpt><trkpt lat="55.7350320" lon="49.2239910"><time>2025-03-02T10:02:08.360</time></trkpt><trkpt lat="55.7349800" lon="49.2239994"><time>2025-03-02T10:02:13.367</time></trkpt><trkpt lat="55.7349372" lon="49.2239746"><time>2025-03-02T10:02:15.263</time></trkpt><trkpt lat="55.7348868" lon="49.2239689"><time>2025-03-02T10:02:22.353</time></trkpt><trkpt lat="55.7348441" lon="49.2239079"><time>2025-03-02T10:02:25.350</time></trkpt><trkpt lat="55.7348108" lon="49.2238476"><time>2025-03-02T10:02:28.347</time></trkpt><trkpt lat="55.7347713" lon="49.2237822"><time>2025-03-02T10:02:33.363</time></trkpt><trkpt lat="55.7347373" lon="49.2238808"><time>2025-03-02T10:02:46.367</time></trkpt><trkpt lat="55.7346933" lon="49.2239480"><time>2025-03-02T10:02:48.377</time></trkpt><trkpt lat="55.7347169" lon="49.2240159"><time>2025-03-02T10:02:53.387</time></trkpt><trkpt lat="55.7346705" lon="49.2240197"><time>2025-03-02T10:03:00.363</time></trkpt><trkpt lat="55.7347148" lon="49.2240050"><time>2025-03-02T10:03:36.280</time></trkpt><trkpt lat="55.7347654" lon="49.2239723"><time>2025-03-02T10:04:02.260</time></trkpt><trkpt lat="55.7348123" lon="49.2239654"><time>2025-03-02T10:04:05.263</time></trkpt><trkpt lat="55.7348564" lon="49.2239869"><time>2025-03-02T10:04:07.257</time></trkpt><trkpt lat="55.7349077" lon="49.2240318"><time>2025-03-02T10:04:10.560</time></trkpt><trkpt lat="55.7349494" lon="49.2239938"><time>2025-03-02T10:04:13.257</time></trkpt><trkpt lat="55.7350137" lon="49.2240087"><time>2025-03-02T10:04:20.367</time></trkpt><trkpt lat="55.7349507" lon="49.2239795"><time>2025-03-02T10:04:26.367</time></trkpt><trkpt lat="55.7349564" lon="49.2238689"><time>2025-03-02T10:04:37.370</time></trkpt><trkpt lat="55.7349303" lon="49.2237754"><time>2025-03-02T10:04:40.367</time></trkpt><trkpt lat="55.7348807" lon="49.2237565"><time>2025-03-02T10:04:44.363</time></trkpt><trkpt lat="55.7348354" lon="49.2236683"><time>2025-03-02T10:04:47.363</time></trkpt><trkpt lat="55.7348855" lon="49.2236091"><time>2025-03-02T10:04:52.367</time></trkpt><trkpt lat="55.7349238" lon="49.2235659"><time>2025-03-02T10:04:59.367</time></trkpt><trkpt lat="55.7349299" lon="49.2234823"><time>2025-03-02T10:05:18.370</time></trkpt><trkpt lat="55.7349148" lon="49.2233839"><time>2025-03-02T10:05:21.357</time></trkpt><trkpt lat="55.7348980" lon="49.2232969"><time>2025-03-02T10:05:23.360</time></trkpt><trkpt lat="55.7348994" lon="49.2232036"><time>2025-03-02T10:05:25.367</time></trkpt><trkpt lat="55.7349264" lon="49.2230974"><time>2025-03-02T10:05:28.397</time></trkpt><trkpt lat="55.7349607" lon="49.2229944"><time>2025-03-02T10:05:30.367</time></trkpt><trkpt lat="55.7349811" lon="49.2229032"><time>2025-03-02T10:05:32.400</time></trkpt><trkpt lat="55.7350006" lon="49.2228219"><time>2025-03-02T10:05:34.393</time></trkpt><trkpt lat="55.7350161" lon="49.2227380"><time>2025-03-02T10:05:36.373</time></trkpt><trkpt lat="55.7350031" lon="49.2226413"><time>2025-03-02T10:05:40.357</time></trkpt><trkpt lat="55.7349828" lon="49.2225584"><time>2025-03-02T10:05:42.267</time></trkpt><trkpt lat="55.7349506" lon="49.2224696"><time>2025-03-02T10:05:44.257</time></trkpt><trkpt lat="55.7349226" lon="49.2223999"><time>2025-03-02T10:05:46.357</time></trkpt><trkpt lat="55.7349532" lon="49.2222678"><time>2025-03-02T10:05:49.380</time></trkpt><trkpt lat="55.7349579" lon="49.2221614"><time>2025-03-02T10:05:52.367</time></trkpt><trkpt lat="55.7349806" lon="49.2220908"><time>2025-03-02T10:05:55.367</time></trkpt><trkpt lat="55.7350179" lon="49.2220248"><time>2025-03-02T10:05:58.367</time></trkpt><trkpt lat="55.7350242" lon="49.2219376"><time>2025-03-02T10:06:00.263</time></trkpt><trkpt lat="55.7350348" lon="49.2218098"><time>2025-03-02T10:06:02.303</time></trkpt><trkpt lat="55.7350094" lon="49.2217018"><time>2025-03-02T10:06:04.360</time></trkpt><trkpt lat="55.7349622" lon="49.2216280"><time>2025-03-02T10:06:06.393</time></trkpt><trkpt lat="55.7349399" lon="49.2215577"><time>2025-03-02T10:06:11.327</time></trkpt><trkpt lat="55.7349138" lon="49.2214492"><time>2025-03-02T10:06:15.360</time></trkpt><trkpt lat="55.7348626" lon="49.2214084"><time>2025-03-02T10:06:21.387</time></trkpt><trkpt lat="55.7348187" lon="49.2213775"><time>2025-03-02T10:06:24.380</time></trkpt><trkpt lat="55.7347807" lon="49.2213328"><time>2025-03-02T10:06:27.360</time></trkpt><trkpt lat="55.7347497" lon="49.2212726"><time>2025-03-02T10:06:29.370</time></trkpt><trkpt lat="55.7347061" lon="49.2212262"><time>2025-03-02T10:06:32.367</time></trkpt><trkpt lat="55.7346881" lon="49.2211180"><time>2025-03-02T10:06:35.367</time></trkpt><trkpt lat="55.7346370" lon="49.2210360"><time>2025-03-02T10:06:39.370</time></trkpt><trkpt lat="55.7345882" lon="49.2209543"><time>2025-03-02T10:06:41.367</time></trkpt><trkpt lat="55.7345608" lon="49.2208888"><time>2025-03-02T10:06:44.367</time></trkpt><trkpt lat="55.7344874" lon="49.2209063"><time>2025-03-02T10:06:46.363</time></trkpt><trkpt lat="55.7344380" lon="49.2209063"><time>2025-03-02T10:06:48.363</time></trkpt><trkpt lat="55.7344046" lon="49.2209752"><time>2025-03-02T10:06:53.370</time></trkpt><trkpt lat="55.7344063" lon="49.2210573"><time>2025-03-02T10:06:56.487</time></trkpt><trkpt lat="55.7343779" lon="49.2211237"><time>2025-03-02T10:06:59.247</time></trkpt><trkpt lat="55.7343840" lon="49.2211928"><time>2025-03-02T10:07:03.963</time></trkpt><trkpt lat="55.7344382" lon="49.2211797"><time>2025-03-02T10:07:10.260</time></trkpt><trkpt lat="55.7344790" lon="49.2212263"><time>2025-03-02T10:07:11.267</time></trkpt><trkpt lat="55.7345625" lon="49.2212395"><time>2025-03-02T10:07:13.260</time></trkpt><trkpt lat="55.7346070" lon="49.2212069"><time>2025-03-02T10:07:15.260</time></trkpt><trkpt lat="55.7346402" lon="49.2212672"><time>2025-03-02T10:07:20.263</time></trkpt><trkpt lat="55.7346850" lon="49.2212729"><time>2025-03-02T10:07:28.257</time></trkpt><trkpt lat="55.7347135" lon="49.2213477"><time>2025-03-02T10:07:35.263</time></trkpt><trkpt lat="55.7346703" lon="49.2213850"><time>2025-03-02T10:07:40.257</time></trkpt><trkpt lat="55.7346404" lon="49.2214621"><time>2025-03-02T10:07:45.260</time></trkpt><trkpt lat="55.7346443" lon="49.2215608"><time>2025-03-02T10:07:48.263</time></trkpt><trkpt lat="55.7346926" lon="49.2216176"><time>2025-03-02T10:07:53.260</time></trkpt><trkpt lat="55.7347404" lon="49.2216611"><time>2025-03-02T10:07:57.257</time></trkpt><trkpt lat="55.7347876" lon="49.2217206"><time>2025-03-02T10:08:02.263</time></trkpt><trkpt lat="55.7348095" lon="49.2217992"><time>2025-03-02T10:08:05.307</time></trkpt><trkpt lat="55.7348278" lon="49.2218899"><time>2025-03-02T10:08:08.260</time></trkpt><trkpt lat="55.7348197" lon="49.2219786"><time>2025-03-02T10:08:10.257</time></trkpt><trkpt lat="55.7347998" lon="49.2220598"><time>2025-03-02T10:08:15.260</time></trkpt><trkpt lat="55.7348258" lon="49.2221401"><time>2025-03-02T10:08:19.260</time></trkpt><trkpt lat="55.7348697" lon="49.2221871"><time>2025-03-02T10:08:25.257</time></trkpt><trkpt lat="55.7348755" lon="49.2222735"><time>2025-03-02T10:08:28.257</time></trkpt><trkpt lat="55.7348499" lon="49.2223465"><time>2025-03-02T10:08:31.260</time></trkpt><trkpt lat="55.7348509" lon="49.2224397"><time>2025-03-02T10:08:36.257</time></trkpt><trkpt lat="55.7348469" lon="49.2225386"><time>2025-03-02T10:08:42.260</time></trkpt><trkpt lat="55.7348422" lon="49.2226277"><time>2025-03-02T10:08:44.257</time></trkpt><trkpt lat="55.7348497" lon="49.2227255"><time>2025-03-02T10:08:46.260</time></trkpt><trkpt lat="55.7348592" lon="49.2228164"><time>2025-03-02T10:08:48.260</time></trkpt><trkpt lat="55.7348565" lon="49.2229165"><time>2025-03-02T10:08:50.260</time></trkpt><trkpt lat="55.7348440" lon="49.2230081"><time>2025-03-02T10:08:53.257</time></trkpt><trkpt lat="55.7348257" lon="49.2231047"><time>2025-03-02T10:08:56.260</time></trkpt><trkpt lat="55.7348382" lon="49.2231976"><time>2025-03-02T10:08:59.257</time></trkpt><trkpt lat="55.7348264" lon="49.2232835"><time>2025-03-02T10:09:06.263</time></trkpt><trkpt lat="55.7347814" lon="49.2232721"><time>2025-03-02T10:09:08.257</time></trkpt><trkpt lat="55.7347455" lon="49.2233434"><time>2025-03-02T10:09:11.253</time></trkpt><trkpt lat="55.7347340" lon="49.2234383"><time>2025-03-02T10:09:14.270</time></trkpt><trkpt lat="55.7347027" lon="49.2234955"><time>2025-03-02T10:09:17.270</time></trkpt><trkpt lat="55.7347086" lon="49.2236068"><time>2025-03-02T10:09:26.263</time></trkpt><trkpt lat="55.7347085" lon="49.2237024"><time>2025-03-02T10:09:28.267</time></trkpt><trkpt lat="55.7346811" lon="49.2238338"><time>2025-03-02T10:09:30.260</time></trkpt><trkpt lat="55.7346958" lon="49.2239616"><time>2025-03-02T10:09:32.257</time></trkpt><trkpt lat="55.7347170" lon="49.2240459"><time>2025-03-02T10:09:34.257</time></trkpt><trkpt lat="55.7347049" lon="49.2241431"><time>2025-03-02T10:09:37.263</time></trkpt><trkpt lat="55.7347523" lon="49.2242127"><time>2025-03-02T10:09:41.253</time></trkpt><trkpt lat="55.7347943" lon="49.2242498"><time>2025-03-02T10:09:44.270</time></trkpt><trkpt lat="55.7348447" lon="49.2242677"><time>2025-03-02T10:09:47.270</time></trkpt><trkpt lat="55.7349011" lon="49.2242239"><time>2025-03-02T10:09:50.260</time></trkpt><trkpt lat="55.7349411" lon="49.2241586"><time>2025-03-02T10:09:52.260</time></trkpt><trkpt lat="55.7349903" lon="49.2241867"><time>2025-03-02T10:09:57.260</time></trkpt><trkpt lat="55.7350383" lon="49.2241749"><time>2025-03-02T10:10:08.257</time></trkpt><trkpt lat="55.7351124" lon="49.2242377"><time>2025-03-02T10:10:11.257</time></trkpt><trkpt lat="55.7351428" lon="49.2243167"><time>2025-03-02T10:10:14.260</time></trkpt><trkpt lat="55.7351134" lon="49.2244188"><time>2025-03-02T10:10:16.270</time></trkpt><trkpt lat="55.7350920" lon="49.2245165"><time>2025-03-02T10:10:19.263</time></trkpt><trkpt lat="55.7351079" lon="49.2246137"><time>2025-03-02T10:10:22.260</time></trkpt><trkpt lat="55.7351235" lon="49.2247300"><time>2025-03-02T10:10:24.260</time></trkpt><trkpt lat="55.7351548" lon="49.2248012"><time>2025-03-02T10:10:27.260</time></trkpt><trkpt lat="55.7351532" lon="49.2249054"><time>2025-03-02T10:10:31.270</time></trkpt><trkpt lat="55.7351746" lon="49.2250216"><time>2025-03-02T10:10:36.267</time></trkpt><trkpt lat="55.7351961" lon="49.2250946"><time>2025-03-02T10:10:40.260</time></trkpt><trkpt lat="55.7352394" lon="49.2251460"><time>2025-03-02T10:10:43.257</time></trkpt><trkpt lat="55.7352414" lon="49.2254325"><time>2025-03-02T10:10:47.260</time></trkpt><trkpt lat="55.7352272" lon="49.2255488"><time>2025-03-02T10:10:48.260</time></trkpt><trkpt lat="55.7352242" lon="49.2256360"><time>2025-03-02T10:10:49.267</time></trkpt><trkpt lat="55.7352346" lon="49.2257199"><time>2025-03-02T10:10:50.260</time></trkpt><trkpt lat="55.7352846" lon="49.2256400"><time>2025-03-02T10:10:51.260</time></trkpt><trkpt lat="55.7353252" lon="49.2255841"><time>2025-03-02T10:10:53.263</time></trkpt><trkpt lat="55.7354067" lon="49.2255211"><time>2025-03-02T10:10:56.260</time></trkpt><trkpt lat="55.7354755" lon="49.2254883"><time>2025-03-02T10:10:58.270</time></trkpt><trkpt lat="55.7355394" lon="49.2255082"><time>2025-03-02T10:11:02.267</time></trkpt><trkpt lat="55.7355893" lon="49.2254696"><time>2025-03-02T10:11:05.270</time></trkpt><trkpt lat="55.7356387" lon="49.2254309"><time>2025-03-02T10:11:08.263</time></trkpt><trkpt lat="55.7355869" lon="49.2254312"><time>2025-03-02T10:11:18.267</time></trkpt><trkpt lat="55.7355604" lon="49.2255089"><time>2025-03-02T10:11:26.260</time></trkpt><trkpt lat="55.7355371" lon="49.2255989"><time>2025-03-02T10:11:30.260</time></trkpt><trkpt lat="55.7355779" lon="49.2255429"><time>2025-03-02T10:11:36.267</time></trkpt><trkpt lat="55.7355259" lon="49.2255484"><time>2025-03-02T10:11:44.263</time></trkpt><trkpt lat="55.7355691" lon="49.2255778"><time>2025-03-02T10:12:00.263</time></trkpt><trkpt lat="55.7356337" lon="49.2255201"><time>2025-03-02T10:12:03.260</time></trkpt><trkpt lat="55.7356836" lon="49.2254950"><time>2025-03-02T10:12:07.267</time></trkpt><trkpt lat="55.7357034" lon="49.2255694"><time>2025-03-02T10:12:16.257</time></trkpt><trkpt lat="55.7356647" lon="49.2256304"><time>2025-03-02T10:12:23.260</time></trkpt><trkpt lat="55.7356514" lon="49.2255534"><time>2025-03-02T10:12:42.260</time></trkpt><trkpt lat="55.7356929" lon="49.2254951"><time>2025-03-02T10:13:03.373</time></trkpt><trkpt lat="55.7356468" lon="49.2255351"><time>2025-03-02T10:13:11.270</time></trkpt><trkpt lat="55.7356944" lon="49.2255776"><time>2025-03-02T10:14:06.260</time></trkpt><trkpt lat="55.7357404" lon="49.2255903"><time>2025-03-02T10:14:11.363</time></trkpt><trkpt lat="55.7357730" lon="49.2256938"><time>2025-03-02T10:14:16.370</time></trkpt><trkpt lat="55.7358040" lon="49.2257648"><time>2025-03-02T10:14:19.373</time></trkpt><trkpt lat="55.7358320" lon="49.2258315"><time>2025-03-02T10:14:24.393</time></trkpt><trkpt lat="55.7358457" lon="49.2259388"><time>2025-03-02T10:14:26.367</time></trkpt><trkpt lat="55.7358883" lon="49.2259966"><time>2025-03-02T10:14:31.373</time></trkpt><trkpt lat="55.7359294" lon="49.2259351"><time>2025-03-02T10:14:35.350</time></trkpt><trkpt lat="55.7359821" lon="49.2259658"><time>2025-03-02T10:14:43.370</time></trkpt><trkpt lat="55.7360563" lon="49.2260050"><time>2025-03-02T10:14:45.367</time></trkpt><trkpt lat="55.7361104" lon="49.2260225"><time>2025-03-02T10:14:46.377</time></trkpt><trkpt lat="55.7361677" lon="49.2260390"><time>2025-03-02T10:14:48.370</time></trkpt><trkpt lat="55.7362213" lon="49.2260636"><time>2025-03-02T10:14:51.367</time></trkpt><trkpt lat="55.7362730" lon="49.2260603"><time>2025-03-02T10:14:53.383</time></trkpt><trkpt lat="55.7363237" lon="49.2260609"><time>2025-03-02T10:14:55.403</time></trkpt><trkpt lat="55.7363766" lon="49.2261014"><time>2025-03-02T10:14:58.377</time></trkpt><trkpt lat="55.7364215" lon="49.2261502"><time>2025-03-02T10:15:01.370</time></trkpt><trkpt lat="55.7364085" lon="49.2260414"><time>2025-03-02T10:15:03.367</time></trkpt><trkpt lat="55.7364526" lon="49.2259770"><time>2025-03-02T10:15:07.270</time></trkpt><trkpt lat="55.7364987" lon="49.2259903"><time>2025-03-02T10:15:09.367</time></trkpt><trkpt lat="55.7365502" lon="49.2260255"><time>2025-03-02T10:15:12.350</time></trkpt><trkpt lat="55.7365934" lon="49.2260711"><time>2025-03-02T10:15:16.367</time></trkpt><trkpt lat="55.7366271" lon="49.2261331"><time>2025-03-02T10:15:22.360</time></trkpt><trkpt lat="55.7366809" lon="49.2260885"><time>2025-03-02T10:15:26.403</time></trkpt><trkpt lat="55.7367407" lon="49.2260558"><time>2025-03-02T10:15:29.370</time></trkpt><trkpt lat="55.7367908" lon="49.2260206"><time>2025-03-02T10:15:31.370</time></trkpt><trkpt lat="55.7368453" lon="49.2260221"><time>2025-03-02T10:15:33.370</time></trkpt><trkpt lat="55.7368995" lon="49.2260261"><time>2025-03-02T10:15:35.370</time></trkpt><trkpt lat="55.7369587" lon="49.2260682"><time>2025-03-02T10:15:38.370</time></trkpt><trkpt lat="55.7370083" lon="49.2261252"><time>2025-03-02T10:15:41.370</time></trkpt><trkpt lat="55.7369597" lon="49.2261704"><time>2025-03-02T10:15:44.270</time></trkpt><trkpt lat="55.7369008" lon="49.2262114"><time>2025-03-02T10:15:46.370</time></trkpt><trkpt lat="55.7368625" lon="49.2262763"><time>2025-03-02T10:15:50.377</time></trkpt><trkpt lat="55.7368713" lon="49.2263745"><time>2025-03-02T10:15:54.403</time></trkpt><trkpt lat="55.7368724" lon="49.2264618"><time>2025-03-02T10:15:57.387</time></trkpt><trkpt lat="55.7368738" lon="49.2265649"><time>2025-03-02T10:16:02.367</time></trkpt><trkpt lat="55.7368969" lon="49.2266458"><time>2025-03-02T10:16:09.373</time></trkpt><trkpt lat="55.7369051" lon="49.2267283"><time>2025-03-02T10:16:13.367</time></trkpt><trkpt lat="55.7368883" lon="49.2266877"><time>2025-03-02T10:16:17.577</time></trkpt><trkpt lat="55.7368503" lon="49.2266832"><time>2025-03-02T10:16:19.250</time></trkpt><trkpt lat="55.7368048" lon="49.2266979"><time>2025-03-02T10:16:21.250</time></trkpt><trkpt lat="55.7368554" lon="49.2266186"><time>2025-03-02T10:16:25.277</time></trkpt><trkpt lat="55.7368908" lon="49.2265471"><time>2025-03-02T10:16:31.273</time></trkpt><trkpt lat="55.7369298" lon="49.2264535"><time>2025-03-02T10:16:36.260</time></trkpt><trkpt lat="55.7369555" lon="49.2263630"><time>2025-03-02T10:16:38.267</time></trkpt><trkpt lat="55.7369644" lon="49.2262555"><time>2025-03-02T10:16:40.273</time></trkpt><trkpt lat="55.7369535" lon="49.2261432"><time>2025-03-02T10:16:43.260</time></trkpt><trkpt lat="55.7369289" lon="49.2260649"><time>2025-03-02T10:16:46.267</time></trkpt><trkpt lat="55.7368778" lon="49.2260696"><time>2025-03-02T10:16:52.267</time></trkpt><trkpt lat="55.7368318" lon="49.2261064"><time>2025-03-02T10:16:55.270</time></trkpt><trkpt lat="55.7368602" lon="49.2261908"><time>2025-03-02T10:17:06.267</time></trkpt><trkpt lat="55.7368833" lon="49.2262652"><time>2025-03-02T10:17:09.267</time></trkpt><trkpt lat="55.7368819" lon="49.2261855"><time>2025-03-02T10:17:38.373</time></trkpt><trkpt lat="55.7368806" lon="49.2262789"><time>2025-03-02T10:17:57.373</time></trkpt><trkpt lat="55.7368800" lon="49.2263624"><time>2025-03-02T10:17:59.373</time></trkpt><trkpt lat="55.7369097" lon="49.2264245"><time>2025-03-02T10:18:02.377</time></trkpt><trkpt lat="55.7369013" lon="49.2265211"><time>2025-03-02T10:18:08.373</time></trkpt><trkpt lat="55.7369231" lon="49.2265982"><time>2025-03-02T10:18:13.370</time></trkpt><trkpt lat="55.7369227" lon="49.2267018"><time>2025-03-02T10:18:16.367</time></trkpt><trkpt lat="55.7369228" lon="49.2267966"><time>2025-03-02T10:18:19.383</time></trkpt><trkpt lat="55.7368850" lon="49.2268652"><time>2025-03-02T10:18:23.367</time></trkpt><trkpt lat="55.7368859" lon="49.2269719"><time>2025-03-02T10:18:27.370</time></trkpt><trkpt lat="55.7368544" lon="49.2270362"><time>2025-03-02T10:18:29.367</time></trkpt><trkpt lat="55.7367889" lon="49.2270455"><time>2025-03-02T10:18:33.377</time></trkpt><trkpt lat="55.7367143" lon="49.2270903"><time>2025-03-02T10:18:35.367</time></trkpt><trkpt lat="55.7366948" lon="49.2271700"><time>2025-03-02T10:18:43.367</time></trkpt><trkpt lat="55.7367385" lon="49.2272153"><time>2025-03-02T10:18:46.373</time></trkpt><trkpt lat="55.7367902" lon="49.2272587"><time>2025-03-02T10:18:48.370</time></trkpt><trkpt lat="55.7367385" lon="49.2273088"><time>2025-03-02T10:18:55.380</time></trkpt><trkpt lat="55.7366753" lon="49.2272821"><time>2025-03-02T10:18:58.380</time></trkpt><trkpt lat="55.7366738" lon="49.2273972"><time>2025-03-02T10:19:05.373</time></trkpt><trkpt lat="55.7366754" lon="49.2274787"><time>2025-03-02T10:19:09.370</time></trkpt><trkpt lat="55.7367208" lon="49.2275083"><time>2025-03-02T10:19:16.260</time></trkpt><trkpt lat="55.7367703" lon="49.2274957"><time>2025-03-02T10:19:20.367</time></trkpt><trkpt lat="55.7367483" lon="49.2275971"><time>2025-03-02T10:19:37.373</time></trkpt><trkpt lat="55.7367149" lon="49.2276656"><time>2025-03-02T10:19:40.373</time></trkpt><trkpt lat="55.7367489" lon="49.2277317"><time>2025-03-02T10:19:45.380</time></trkpt><trkpt lat="55.7368006" lon="49.2277588"><time>2025-03-02T10:19:47.270</time></trkpt><trkpt lat="55.7367993" lon="49.2278459"><time>2025-03-02T10:19:57.400</time></trkpt><trkpt lat="55.7367486" lon="49.2278815"><time>2025-03-02T10:20:02.373</time></trkpt><trkpt lat="55.7367061" lon="49.2278445"><time>2025-03-02T10:20:05.370</time></trkpt><trkpt lat="55.7366638" lon="49.2277884"><time>2025-03-02T10:20:08.373</time></trkpt><trkpt lat="55.7366554" lon="49.2276876"><time>2025-03-02T10:20:11.373</time></trkpt><trkpt lat="55.7365995" lon="49.2276330"><time>2025-03-02T10:20:16.370</time></trkpt><trkpt lat="55.7365444" lon="49.2276397"><time>2025-03-02T10:20:18.373</time></trkpt><trkpt lat="55.7364681" lon="49.2276289"><time>2025-03-02T10:20:20.403</time></trkpt><trkpt lat="55.7364164" lon="49.2276107"><time>2025-03-02T10:20:23.367</time></trkpt><trkpt lat="55.7363627" lon="49.2276149"><time>2025-03-02T10:20:26.373</time></trkpt><trkpt lat="55.7363157" lon="49.2276109"><time>2025-03-02T10:20:28.377</time></trkpt><trkpt lat="55.7362598" lon="49.2276011"><time>2025-03-02T10:20:30.380</time></trkpt><trkpt lat="55.7362057" lon="49.2275930"><time>2025-03-02T10:20:32.373</time></trkpt><trkpt lat="55.7361352" lon="49.2275317"><time>2025-03-02T10:20:34.377</time></trkpt><trkpt lat="55.7360852" lon="49.2275348"><time>2025-03-02T10:20:36.373</time></trkpt><trkpt lat="55.7360245" lon="49.2275938"><time>2025-03-02T10:20:38.380</time></trkpt><trkpt lat="55.7359755" lon="49.2276248"><time>2025-03-02T10:20:40.277</time></trkpt><trkpt lat="55.7359254" lon="49.2276157"><time>2025-03-02T10:20:42.273</time></trkpt><trkpt lat="55.7358702" lon="49.2276217"><time>2025-03-02T10:20:44.350</time></trkpt><trkpt lat="55.7358022" lon="49.2276709"><time>2025-03-02T10:20:46.273</time></trkpt><trkpt lat="55.7357528" lon="49.2276886"><time>2025-03-02T10:20:48.397</time></trkpt><trkpt lat="55.7356936" lon="49.2276648"><time>2025-03-02T10:20:51.370</time></trkpt><trkpt lat="55.7356463" lon="49.2276692"><time>2025-03-02T10:20:53.380</time></trkpt><trkpt lat="55.7356149" lon="49.2277293"><time>2025-03-02T10:20:55.380</time></trkpt><trkpt lat="55.7355888" lon="49.2278256"><time>2025-03-02T10:20:58.263</time></trkpt><trkpt lat="55.7355408" lon="49.2278392"><time>2025-03-02T10:21:00.260</time></trkpt><trkpt lat="55.7354912" lon="49.2278126"><time>2025-03-02T10:21:04.360</time></trkpt><trkpt lat="55.7354377" lon="49.2278055"><time>2025-03-02T10:21:07.360</time></trkpt><trkpt lat="55.7353690" lon="49.2278169"><time>2025-03-02T10:21:10.373</time></trkpt><trkpt lat="55.7353122" lon="49.2278346"><time>2025-03-02T10:21:12.387</time></trkpt><trkpt lat="55.7352631" lon="49.2278817"><time>2025-03-02T10:21:14.370</time></trkpt><trkpt lat="55.7352191" lon="49.2279272"><time>2025-03-02T10:21:18.373</time></trkpt><trkpt lat="55.7352056" lon="49.2280314"><time>2025-03-02T10:21:22.400</time></trkpt><trkpt lat="55.7352317" lon="49.2281065"><time>2025-03-02T10:21:24.377</time></trkpt><trkpt lat="55.7352402" lon="49.2281974"><time>2025-03-02T10:21:29.380</time></trkpt><trkpt lat="55.7352298" lon="49.2282764"><time>2025-03-02T10:21:34.323</time></trkpt><trkpt lat="55.7351932" lon="49.2283328"><time>2025-03-02T10:21:36.380</time></trkpt><trkpt lat="55.7351710" lon="49.2284138"><time>2025-03-02T10:21:38.397</time></trkpt><trkpt lat="55.7351519" lon="49.2285275"><time>2025-03-02T10:21:40.373</time></trkpt><trkpt lat="55.7351527" lon="49.2286385"><time>2025-03-02T10:21:42.367</time></trkpt><trkpt lat="55.7351640" lon="49.2287315"><time>2025-03-02T10:21:44.383</time></trkpt><trkpt lat="55.7351655" lon="49.2288227"><time>2025-03-02T10:21:47.367</time></trkpt><trkpt lat="55.7352074" lon="49.2288963"><time>2025-03-02T10:21:51.377</time></trkpt><trkpt lat="55.7352357" lon="49.2289806"><time>2025-03-02T10:21:54.377</time></trkpt><trkpt lat="55.7352354" lon="49.2290804"><time>2025-03-02T10:21:57.370</time></trkpt><trkpt lat="55.7352311" lon="49.2291739"><time>2025-03-02T10:22:00.373</time></trkpt><trkpt lat="55.7352430" lon="49.2292598"><time>2025-03-02T10:22:04.267</time></trkpt><trkpt lat="55.7351955" lon="49.2292893"><time>2025-03-02T10:22:06.390</time></trkpt><trkpt lat="55.7351450" lon="49.2293275"><time>2025-03-02T10:22:09.377</time></trkpt><trkpt lat="55.7351081" lon="49.2293912"><time>2025-03-02T10:22:12.373</time></trkpt><trkpt lat="55.7350954" lon="49.2294748"><time>2025-03-02T10:22:14.373</time></trkpt><trkpt lat="55.7351119" lon="49.2295999"><time>2025-03-02T10:22:15.377</time></trkpt><trkpt lat="55.7351378" lon="49.2296913"><time>2025-03-02T10:22:22.370</time></trkpt><trkpt lat="55.7350940" lon="49.2297145"><time>2025-03-02T10:22:34.373</time></trkpt><trkpt lat="55.7351399" lon="49.2296846"><time>2025-03-02T10:22:40.267</time></trkpt><trkpt lat="55.7351746" lon="49.2297470"><time>2025-03-02T10:22:44.367</time></trkpt><trkpt lat="55.7351323" lon="49.2298040"><time>2025-03-02T10:22:47.397</time></trkpt><trkpt lat="55.7351129" lon="49.2298776"><time>2025-03-02T10:22:54.370</time></trkpt><trkpt lat="55.7351315" lon="49.2299566"><time>2025-03-02T10:22:59.373</time></trkpt><trkpt lat="55.7350908" lon="49.2300055"><time>2025-03-02T10:23:07.373</time></trkpt><trkpt lat="55.7350515" lon="49.2300546"><time>2025-03-02T10:23:21.370</time></trkpt><trkpt lat="55.7350141" lon="49.2301133"><time>2025-03-02T10:23:24.263</time></trkpt><trkpt lat="55.7350197" lon="49.2302005"><time>2025-03-02T10:23:27.373</time></trkpt><trkpt lat="55.7349762" lon="49.2302569"><time>2025-03-02T10:23:30.377</time></trkpt><trkpt lat="55.7349560" lon="49.2303537"><time>2025-03-02T10:23:34.400</time></trkpt><trkpt lat="55.7349492" lon="49.2304586"><time>2025-03-02T10:23:36.377</time></trkpt><trkpt lat="55.7349768" lon="49.2305449"><time>2025-03-02T10:23:38.373</time></trkpt><trkpt lat="55.7350048" lon="49.2306152"><time>2025-03-02T10:23:40.370</time></trkpt><trkpt lat="55.7350366" lon="49.2306781"><time>2025-03-02T10:23:43.370</time></trkpt><trkpt lat="55.7350739" lon="49.2307405"><time>2025-03-02T10:23:47.377</time></trkpt><trkpt lat="55.7351164" lon="49.2306986"><time>2025-03-02T10:23:50.377</time></trkpt><trkpt lat="55.7351624" lon="49.2306695"><time>2025-03-02T10:23:55.250</time></trkpt><trkpt lat="55.7351747" lon="49.2306956"><time>2025-03-02T10:23:56.293</time></trkpt><trkpt lat="55.7351967" lon="49.2307284"><time>2025-03-02T10:23:58.250</time></trkpt><trkpt lat="55.7351534" lon="49.2306652"><time>2025-03-02T10:24:05.263</time></trkpt><trkpt lat="55.7351064" lon="49.2305952"><time>2025-03-02T10:24:09.267</time></trkpt><trkpt lat="55.7350679" lon="49.2305423"><time>2025-03-02T10:24:14.267</time></trkpt><trkpt lat="55.7350253" lon="49.2305713"><time>2025-03-02T10:24:17.267</time></trkpt><trkpt lat="55.7350238" lon="49.2304889"><time>2025-03-02T10:24:28.267</time></trkpt><trkpt lat="55.7349816" lon="49.2304601"><time>2025-03-02T10:24:35.263</time></trkpt><trkpt lat="55.7349397" lon="49.2305357"><time>2025-03-02T10:24:58.263</time></trkpt><trkpt lat="55.7349212" lon="49.2306179"><time>2025-03-02T10:25:11.267</time></trkpt><trkpt lat="55.7349103" lon="49.2307159"><time>2025-03-02T10:25:14.267</time></trkpt><trkpt lat="55.7348839" lon="49.2307942"><time>2025-03-02T10:25:17.263</time></trkpt><trkpt lat="55.7348237" lon="49.2308418"><time>2025-03-02T10:25:20.263</time></trkpt><trkpt lat="55.7347909" lon="49.2309099"><time>2025-03-02T10:25:23.263</time></trkpt><trkpt lat="55.7347924" lon="49.2309992"><time>2025-03-02T10:25:25.263</time></trkpt><trkpt lat="55.7347797" lon="49.2310940"><time>2025-03-02T10:25:27.263</time></trkpt><trkpt lat="55.7347415" lon="49.2311398"><time>2025-03-02T10:25:29.263</time></trkpt><trkpt lat="55.7347152" lon="49.2312220"><time>2025-03-02T10:25:34.263</time></trkpt><trkpt lat="55.7346769" lon="49.2312753"><time>2025-03-02T10:25:39.267</time></trkpt><trkpt lat="55.7346603" lon="49.2313510"><time>2025-03-02T10:25:43.263</time></trkpt><trkpt lat="55.7347385" lon="49.2314070"><time>2025-03-02T10:25:45.260</time></trkpt><trkpt lat="55.7347004" lon="49.2314581"><time>2025-03-02T10:25:50.263</time></trkpt><trkpt lat="55.7346614" lon="49.2315045"><time>2025-03-02T10:25:51.263</time></trkpt><trkpt lat="55.7346323" lon="49.2315749"><time>2025-03-02T10:25:54.263</time></trkpt><trkpt lat="55.7346809" lon="49.2316127"><time>2025-03-02T10:26:05.260</time></trkpt><trkpt lat="55.7347026" lon="49.2316875"><time>2025-03-02T10:26:08.260</time></trkpt><trkpt lat="55.7346936" lon="49.2317673"><time>2025-03-02T10:26:11.263</time></trkpt><trkpt lat="55.7347092" lon="49.2318592"><time>2025-03-02T10:26:14.257</time></trkpt><trkpt lat="55.7347308" lon="49.2319329"><time>2025-03-02T10:26:18.263</time></trkpt><trkpt lat="55.7347540" lon="49.2320290"><time>2025-03-02T10:26:59.263</time></trkpt><trkpt lat="55.7347602" lon="49.2321205"><time>2025-03-02T10:27:03.263</time></trkpt><trkpt lat="55.7347508" lon="49.2321988"><time>2025-03-02T10:27:06.260</time></trkpt><trkpt lat="55.7347398" lon="49.2322762"><time>2025-03-02T10:27:11.263</time></trkpt><trkpt lat="55.7347801" lon="49.2322408"><time>2025-03-02T10:27:17.267</time></trkpt><trkpt lat="55.7347534" lon="49.2323097"><time>2025-03-02T10:27:20.260</time></trkpt><trkpt lat="55.7347312" lon="49.2323902"><time>2025-03-02T10:27:23.263</time></trkpt><trkpt lat="55.7347085" lon="49.2324622"><time>2025-03-02T10:27:26.260</time></trkpt><trkpt lat="55.7347024" lon="49.2325570"><time>2025-03-02T10:27:29.267</time></trkpt><trkpt lat="55.7347043" lon="49.2323856"><time>2025-03-02T10:27:45.270</time></trkpt><trkpt lat="55.7347429" lon="49.2324517"><time>2025-03-02T10:27:50.263</time></trkpt><trkpt lat="55.7347355" lon="49.2325319"><time>2025-03-02T10:28:01.263</time></trkpt><trkpt lat="55.7346875" lon="49.2325059"><time>2025-03-02T10:28:08.260</time></trkpt><trkpt lat="55.7346390" lon="49.2324938"><time>2025-03-02T10:28:13.263</time></trkpt><trkpt lat="55.7345669" lon="49.2324940"><time>2025-03-02T10:28:15.260</time></trkpt><trkpt lat="55.7345042" lon="49.2324918"><time>2025-03-02T10:28:17.263</time></trkpt><trkpt lat="55.7344571" lon="49.2325392"><time>2025-03-02T10:28:20.263</time></trkpt><trkpt lat="55.7344138" lon="49.2325631"><time>2025-03-02T10:28:24.273</time></trkpt><trkpt lat="55.7343591" lon="49.2325863"><time>2025-03-02T10:28:28.273</time></trkpt><trkpt lat="55.7343027" lon="49.2326555"><time>2025-03-02T10:28:36.263</time></trkpt><trkpt lat="55.7342475" lon="49.2326739"><time>2025-03-02T10:28:39.270</time></trkpt><trkpt lat="55.7342018" lon="49.2326706"><time>2025-03-02T10:28:42.270</time></trkpt><trkpt lat="55.7341614" lon="49.2327121"><time>2025-03-02T10:28:45.273</time></trkpt><trkpt lat="55.7341094" lon="49.2327659"><time>2025-03-02T10:28:48.263</time></trkpt><trkpt lat="55.7340614" lon="49.2327549"><time>2025-03-02T10:28:52.277</time></trkpt><trkpt lat="55.7340139" lon="49.2327658"><time>2025-03-02T10:28:56.263</time></trkpt><trkpt lat="55.7339607" lon="49.2327935"><time>2025-03-02T10:28:59.267</time></trkpt><trkpt lat="55.7338952" lon="49.2327903"><time>2025-03-02T10:29:02.267</time></trkpt><trkpt lat="55.7338462" lon="49.2328348"><time>2025-03-02T10:29:06.263</time></trkpt><trkpt lat="55.7338074" lon="49.2328780"><time>2025-03-02T10:29:12.273</time></trkpt><trkpt lat="55.7337531" lon="49.2329063"><time>2025-03-02T10:29:15.263</time></trkpt><trkpt lat="55.7337044" lon="49.2329312"><time>2025-03-02T10:29:20.270</time></trkpt><trkpt lat="55.7336504" lon="49.2329138"><time>2025-03-02T10:29:25.273</time></trkpt><trkpt lat="55.7335945" lon="49.2329066"><time>2025-03-02T10:29:28.273</time></trkpt><trkpt lat="55.7335423" lon="49.2329563"><time>2025-03-02T10:29:33.260</time></trkpt><trkpt lat="55.7334924" lon="49.2329889"><time>2025-03-02T10:29:35.260</time></trkpt><trkpt lat="55.7334618" lon="49.2330491"><time>2025-03-02T10:29:39.270</time></trkpt><trkpt lat="55.7334155" lon="49.2330252"><time>2025-03-02T10:29:44.273</time></trkpt><trkpt lat="55.7333520" lon="49.2330637"><time>2025-03-02T10:29:47.273</time></trkpt><trkpt lat="55.7332931" lon="49.2330968"><time>2025-03-02T10:29:50.267</time></trkpt><trkpt lat="55.7332516" lon="49.2331291"><time>2025-03-02T10:29:53.267</time></trkpt><trkpt lat="55.7332028" lon="49.2331358"><time>2025-03-02T10:29:56.263</time></trkpt><trkpt lat="55.7331602" lon="49.2331625"><time>2025-03-02T10:30:02.397</time></trkpt><trkpt lat="55.7331064" lon="49.2332234"><time>2025-03-02T10:30:22.367</time></trkpt><trkpt lat="55.7330480" lon="49.2332379"><time>2025-03-02T10:30:25.407</time></trkpt><trkpt lat="55.7330038" lon="49.2332781"><time>2025-03-02T10:30:30.360</time></trkpt><trkpt lat="55.7329524" lon="49.2333347"><time>2025-03-02T10:30:33.403</time></trkpt><trkpt lat="55.7329025" lon="49.2333603"><time>2025-03-02T10:30:37.370</time></trkpt><trkpt lat="55.7328784" lon="49.2333529"><time>2025-03-02T10:30:46.187</time></trkpt><trkpt lat="55.7329453" lon="49.2333992"><time>2025-03-02T10:30:53.267</time></trkpt><trkpt lat="55.7328916" lon="49.2334886"><time>2025-03-02T10:31:04.267</time></trkpt><trkpt lat="55.7328472" lon="49.2335038"><time>2025-03-02T10:31:07.270</time></trkpt><trkpt lat="55.7328165" lon="49.2334193"><time>2025-03-02T10:31:10.270</time></trkpt><trkpt lat="55.7328191" lon="49.2333262"><time>2025-03-02T10:31:14.267</time></trkpt><trkpt lat="55.7328467" lon="49.2332251"><time>2025-03-02T10:31:16.270</time></trkpt><trkpt lat="55.7328014" lon="49.2332188"><time>2025-03-02T10:31:22.270</time></trkpt><trkpt lat="55.7327393" lon="49.2332740"><time>2025-03-02T10:31:31.270</time></trkpt><trkpt lat="55.7326754" lon="49.2332876"><time>2025-03-02T10:31:33.267</time></trkpt><trkpt lat="55.7327119" lon="49.2332294"><time>2025-03-02T10:31:39.273</time></trkpt><trkpt lat="55.7327806" lon="49.2332015"><time>2025-03-02T10:31:43.273</time></trkpt><trkpt lat="55.7328301" lon="49.2332240"><time>2025-03-02T10:31:46.270</time></trkpt><trkpt lat="55.7327817" lon="49.2332803"><time>2025-03-02T10:31:57.327</time></trkpt><trkpt lat="55.7327755" lon="49.2333642"><time>2025-03-02T10:31:59.407</time></trkpt><trkpt lat="55.7328210" lon="49.2333558"><time>2025-03-02T10:32:18.370</time></trkpt><trkpt lat="55.7328620" lon="49.2333174"><time>2025-03-02T10:32:24.377</time></trkpt><trkpt lat="55.7328129" lon="49.2333081"><time>2025-03-02T10:33:45.377</time></trkpt><trkpt lat="55.7327643" lon="49.2333031"><time>2025-03-02T10:33:49.267</time></trkpt><trkpt lat="55.7327223" lon="49.2333652"><time>2025-03-02T10:33:55.373</time></trkpt><trkpt lat="55.7326893" lon="49.2334211"><time>2025-03-02T10:34:01.377</time></trkpt><trkpt lat="55.7326388" lon="49.2335013"><time>2025-03-02T10:34:05.367</time></trkpt><trkpt lat="55.7325754" lon="49.2335082"><time>2025-03-02T10:34:07.413</time></trkpt><trkpt lat="55.7325058" lon="49.2334854"><time>2025-03-02T10:34:09.370</time></trkpt><trkpt lat="55.7325394" lon="49.2335414"><time>2025-03-02T10:34:19.387</time></trkpt><trkpt lat="55.7325486" lon="49.2334623"><time>2025-03-02T10:34:31.380</time></trkpt><trkpt lat="55.7325088" lon="49.2335006"><time>2025-03-02T10:34:42.273</time></trkpt><trkpt lat="55.7324609" lon="49.2334840"><time>2025-03-02T10:34:44.263</time></trkpt><trkpt lat="55.7324121" lon="49.2334497"><time>2025-03-02T10:34:47.370</time></trkpt><trkpt lat="55.7324152" lon="49.2333683"><time>2025-03-02T10:34:55.253</time></trkpt><trkpt lat="55.7324451" lon="49.2332985"><time>2025-03-02T10:35:03.263</time></trkpt><trkpt lat="55.7323911" lon="49.2332628"><time>2025-03-02T10:35:25.267</time></trkpt><trkpt lat="55.7323266" lon="49.2332272"><time>2025-03-02T10:35:27.267</time></trkpt><trkpt lat="55.7322738" lon="49.2331860"><time>2025-03-02T10:35:29.270</time></trkpt><trkpt lat="55.7322178" lon="49.2331330"><time>2025-03-02T10:35:31.280</time></trkpt><trkpt lat="55.7321715" lon="49.2330941"><time>2025-03-02T10:35:33.297</time></trkpt><trkpt lat="55.7321235" lon="49.2330688"><time>2025-03-02T10:35:35.273</time></trkpt><trkpt lat="55.7320755" lon="49.2330670"><time>2025-03-02T10:35:37.270</time></trkpt><trkpt lat="55.7320292" lon="49.2330564"><time>2025-03-02T10:35:40.267</time></trkpt><trkpt lat="55.7319858" lon="49.2331045"><time>2025-03-02T10:35:46.267</time></trkpt><trkpt lat="55.7319416" lon="49.2330868"><time>2025-03-02T10:35:50.273</time></trkpt><trkpt lat="55.7318928" lon="49.2330666"><time>2025-03-02T10:35:57.263</time></trkpt><trkpt lat="55.7318437" lon="49.2330072"><time>2025-03-02T10:36:00.363</time></trkpt><trkpt lat="55.7318047" lon="49.2329508"><time>2025-03-02T10:36:03.377</time></trkpt><trkpt lat="55.7317729" lon="49.2328747"><time>2025-03-02T10:36:09.380</time></trkpt><trkpt lat="55.7317081" lon="49.2328450"><time>2025-03-02T10:36:12.373</time></trkpt><trkpt lat="55.7316613" lon="49.2328718"><time>2025-03-02T10:36:15.360</time></trkpt><trkpt lat="55.7316106" lon="49.2329023"><time>2025-03-02T10:36:19.377</time></trkpt><trkpt lat="55.7315632" lon="49.2329094"><time>2025-03-02T10:36:26.373</time></trkpt><trkpt lat="55.7315077" lon="49.2329225"><time>2025-03-02T10:36:39.377</time></trkpt><trkpt lat="55.7314462" lon="49.2329120"><time>2025-03-02T10:36:42.377</time></trkpt><trkpt lat="55.7313943" lon="49.2329156"><time>2025-03-02T10:36:44.377</time></trkpt><trkpt lat="55.7313422" lon="49.2329170"><time>2025-03-02T10:36:46.367</time></trkpt><trkpt lat="55.7312946" lon="49.2329186"><time>2025-03-02T10:36:49.377</time></trkpt><trkpt lat="55.7312411" lon="49.2329051"><time>2025-03-02T10:36:51.370</time></trkpt><trkpt lat="55.7311910" lon="49.2328631"><time>2025-03-02T10:36:53.277</time></trkpt><trkpt lat="55.7311412" lon="49.2327963"><time>2025-03-02T10:36:56.380</time></trkpt><trkpt lat="55.7310874" lon="49.2327455"><time>2025-03-02T10:36:59.373</time></trkpt><trkpt lat="55.7310246" lon="49.2328237"><time>2025-03-02T10:37:03.373</time></trkpt><trkpt lat="55.7309991" lon="49.2327436"><time>2025-03-02T10:37:09.387</time></trkpt><trkpt lat="55.7309542" lon="49.2326973"><time>2025-03-02T10:37:13.370</time></trkpt><trkpt lat="55.7308941" lon="49.2326781"><time>2025-03-02T10:37:26.373</time></trkpt><trkpt lat="55.7308449" lon="49.2326056"><time>2025-03-02T10:37:29.373</time></trkpt><trkpt lat="55.7307919" lon="49.2325470"><time>2025-03-02T10:37:32.380</time></trkpt><trkpt lat="55.7307436" lon="49.2325334"><time>2025-03-02T10:37:34.380</time></trkpt><trkpt lat="55.7306894" lon="49.2325497"><time>2025-03-02T10:37:36.370</time></trkpt><trkpt lat="55.7306404" lon="49.2325142"><time>2025-03-02T10:37:38.373</time></trkpt><trkpt lat="55.7305997" lon="49.2324735"><time>2025-03-02T10:37:40.393</time></trkpt><trkpt lat="55.7305755" lon="49.2323835"><time>2025-03-02T10:37:46.380</time></trkpt><trkpt lat="55.7305333" lon="49.2323339"><time>2025-03-02T10:37:51.277</time></trkpt><trkpt lat="55.7305232" lon="49.2322483"><time>2025-03-02T10:37:56.263</time></trkpt><trkpt lat="55.7304674" lon="49.2322048"><time>2025-03-02T10:38:02.387</time></trkpt><trkpt lat="55.7304223" lon="49.2321507"><time>2025-03-02T10:38:05.377</time></trkpt><trkpt lat="55.7303761" lon="49.2321853"><time>2025-03-02T10:38:10.390</time></trkpt><trkpt lat="55.7303424" lon="49.2322529"><time>2025-03-02T10:38:16.377</time></trkpt><trkpt lat="55.7303648" lon="49.2323439"><time>2025-03-02T10:38:18.377</time></trkpt><trkpt lat="55.7303860" lon="49.2324397"><time>2025-03-02T10:38:20.370</time></trkpt><trkpt lat="55.7303808" lon="49.2325366"><time>2025-03-02T10:38:23.383</time></trkpt><trkpt lat="55.7303572" lon="49.2326165"><time>2025-03-02T10:38:25.377</time></trkpt><trkpt lat="55.7303310" lon="49.2326913"><time>2025-03-02T10:38:29.373</time></trkpt><trkpt lat="55.7303308" lon="49.2327826"><time>2025-03-02T10:38:38.407</time></trkpt><trkpt lat="55.7303097" lon="49.2328738"><time>2025-03-02T10:38:43.380</time></trkpt><trkpt lat="55.7302805" lon="49.2329700"><time>2025-03-02T10:38:46.370</time></trkpt><trkpt lat="55.7302453" lon="49.2330483"><time>2025-03-02T10:38:50.373</time></trkpt><trkpt lat="55.7302038" lon="49.2331060"><time>2025-03-02T10:38:53.260</time></trkpt><trkpt lat="55.7301632" lon="49.2331939"><time>2025-03-02T10:38:56.373</time></trkpt><trkpt lat="55.7301648" lon="49.2332909"><time>2025-03-02T10:38:59.373</time></trkpt><trkpt lat="55.7301528" lon="49.2333767"><time>2025-03-02T10:39:01.377</time></trkpt><trkpt lat="55.7301631" lon="49.2334909"><time>2025-03-02T10:39:04.373</time></trkpt><trkpt lat="55.7301571" lon="49.2335741"><time>2025-03-02T10:39:08.380</time></trkpt><trkpt lat="55.7301513" lon="49.2336639"><time>2025-03-02T10:39:11.383</time></trkpt><trkpt lat="55.7301596" lon="49.2337644"><time>2025-03-02T10:39:14.380</time></trkpt><trkpt lat="55.7300941" lon="49.2338569"><time>2025-03-02T10:39:16.377</time></trkpt><trkpt lat="55.7300618" lon="49.2339253"><time>2025-03-02T10:39:18.400</time></trkpt><trkpt lat="55.7300329" lon="49.2339909"><time>2025-03-02T10:39:20.367</time></trkpt><trkpt lat="55.7300087" lon="49.2340593"><time>2025-03-02T10:39:22.377</time></trkpt><trkpt lat="55.7300064" lon="49.2341664"><time>2025-03-02T10:39:24.387</time></trkpt><trkpt lat="55.7300061" lon="49.2342655"><time>2025-03-02T10:39:26.367</time></trkpt><trkpt lat="55.7300154" lon="49.2343698"><time>2025-03-02T10:39:30.373</time></trkpt><trkpt lat="55.7299914" lon="49.2344698"><time>2025-03-02T10:39:34.383</time></trkpt><trkpt lat="55.7299534" lon="49.2345345"><time>2025-03-02T10:39:36.377</time></trkpt><trkpt lat="55.7299244" lon="49.2346135"><time>2025-03-02T10:39:38.267</time></trkpt><trkpt lat="55.7299076" lon="49.2347160"><time>2025-03-02T10:39:40.373</time></trkpt><trkpt lat="55.7299093" lon="49.2347998"><time>2025-03-02T10:39:42.383</time></trkpt><trkpt lat="55.7299260" lon="49.2349020"><time>2025-03-02T10:39:45.377</time></trkpt><trkpt lat="55.7299358" lon="49.2349888"><time>2025-03-02T10:39:47.383</time></trkpt><trkpt lat="55.7299619" lon="49.2350969"><time>2025-03-02T10:39:49.377</time></trkpt><trkpt lat="55.7299973" lon="49.2351967"><time>2025-03-02T10:39:51.377</time></trkpt><trkpt lat="55.7300355" lon="49.2352841"><time>2025-03-02T10:39:53.373</time></trkpt><trkpt lat="55.7300622" lon="49.2353691"><time>2025-03-02T10:39:55.267</time></trkpt><trkpt lat="55.7300809" lon="49.2354592"><time>2025-03-02T10:39:58.390</time></trkpt><trkpt lat="55.7300975" lon="49.2355359"><time>2025-03-02T10:40:02.263</time></trkpt><trkpt lat="55.7300722" lon="49.2356316"><time>2025-03-02T10:40:06.373</time></trkpt><trkpt lat="55.7300854" lon="49.2357416"><time>2025-03-02T10:40:09.380</time></trkpt><trkpt lat="55.7301207" lon="49.2358441"><time>2025-03-02T10:40:11.373</time></trkpt><trkpt lat="55.7301542" lon="49.2359520"><time>2025-03-02T10:40:13.377</time></trkpt><trkpt lat="55.7301682" lon="49.2360734"><time>2025-03-02T10:40:17.387</time></trkpt><trkpt lat="55.7301855" lon="49.2361629"><time>2025-03-02T10:40:19.380</time></trkpt><trkpt lat="55.7302126" lon="49.2362323"><time>2025-03-02T10:40:21.377</time></trkpt><trkpt lat="55.7302589" lon="49.2362934"><time>2025-03-02T10:40:25.377</time></trkpt><trkpt lat="55.7302842" lon="49.2363675"><time>2025-03-02T10:40:27.373</time></trkpt><trkpt lat="55.7302994" lon="49.2364632"><time>2025-03-02T10:40:29.380</time></trkpt><trkpt lat="55.7303095" lon="49.2365626"><time>2025-03-02T10:40:33.377</time></trkpt><trkpt lat="55.7303292" lon="49.2366751"><time>2025-03-02T10:40:37.373</time></trkpt><trkpt lat="55.7303557" lon="49.2367684"><time>2025-03-02T10:40:40.377</time></trkpt><trkpt lat="55.7303780" lon="49.2368464"><time>2025-03-02T10:40:43.267</time></trkpt><trkpt lat="55.7304405" lon="49.2369032"><time>2025-03-02T10:40:45.267</time></trkpt><trkpt lat="55.7304763" lon="49.2369779"><time>2025-03-02T10:40:49.397</time></trkpt><trkpt lat="55.7304766" lon="49.2371017"><time>2025-03-02T10:40:55.330</time></trkpt><trkpt lat="55.7304866" lon="49.2371871"><time>2025-03-02T10:40:57.387</time></trkpt><trkpt lat="55.7304864" lon="49.2372869"><time>2025-03-02T10:40:59.390</time></trkpt><trkpt lat="55.7304939" lon="49.2373920"><time>2025-03-02T10:41:02.377</time></trkpt><trkpt lat="55.7305079" lon="49.2374923"><time>2025-03-02T10:41:04.400</time></trkpt><trkpt lat="55.7305145" lon="49.2375794"><time>2025-03-02T10:41:06.383</time></trkpt><trkpt lat="55.7304895" lon="49.2376778"><time>2025-03-02T10:41:09.387</time></trkpt><trkpt lat="55.7304650" lon="49.2377454"><time>2025-03-02T10:41:11.380</time></trkpt><trkpt lat="55.7304552" lon="49.2378376"><time>2025-03-02T10:41:13.380</time></trkpt><trkpt lat="55.7304568" lon="49.2379404"><time>2025-03-02T10:41:15.390</time></trkpt><trkpt lat="55.7304304" lon="49.2380114"><time>2025-03-02T10:41:17.383</time></trkpt><trkpt lat="55.7304231" lon="49.2381013"><time>2025-03-02T10:41:21.260</time></trkpt><trkpt lat="55.7304581" lon="49.2382119"><time>2025-03-02T10:41:24.397</time></trkpt><trkpt lat="55.7304946" lon="49.2382668"><time>2025-03-02T10:41:26.387</time></trkpt><trkpt lat="55.7304736" lon="49.2383428"><time>2025-03-02T10:41:30.387</time></trkpt><trkpt lat="55.7304672" lon="49.2384702"><time>2025-03-02T10:41:34.267</time></trkpt><trkpt lat="55.7304737" lon="49.2385742"><time>2025-03-02T10:41:37.397</time></trkpt><trkpt lat="55.7304812" lon="49.2386703"><time>2025-03-02T10:41:39.387</time></trkpt><trkpt lat="55.7304954" lon="49.2387736"><time>2025-03-02T10:41:41.397</time></trkpt><trkpt lat="55.7305477" lon="49.2388594"><time>2025-03-02T10:41:43.393</time></trkpt><trkpt lat="55.7305856" lon="49.2389100"><time>2025-03-02T10:41:46.397</time></trkpt><trkpt lat="55.7305925" lon="49.2389909"><time>2025-03-02T10:41:49.360</time></trkpt><trkpt lat="55.7305469" lon="49.2391131"><time>2025-03-02T10:41:52.390</time></trkpt><trkpt lat="55.7305144" lon="49.2391950"><time>2025-03-02T10:41:54.403</time></trkpt><trkpt lat="55.7305005" lon="49.2392885"><time>2025-03-02T10:41:58.397</time></trkpt><trkpt lat="55.7304874" lon="49.2393869"><time>2025-03-02T10:42:01.277</time></trkpt><trkpt lat="55.7304777" lon="49.2394738"><time>2025-03-02T10:42:04.400</time></trkpt><trkpt lat="55.7305025" lon="49.2395544"><time>2025-03-02T10:42:07.403</time></trkpt><trkpt lat="55.7305246" lon="49.2396410"><time>2025-03-02T10:42:09.397</time></trkpt><trkpt lat="55.7305399" lon="49.2397449"><time>2025-03-02T10:42:11.397</time></trkpt><trkpt lat="55.7305309" lon="49.2398733"><time>2025-03-02T10:42:14.397</time></trkpt><trkpt lat="55.7305288" lon="49.2399864"><time>2025-03-02T10:42:16.393</time></trkpt><trkpt lat="55.7305428" lon="49.2400990"><time>2025-03-02T10:42:18.390</time></trkpt><trkpt lat="55.7305831" lon="49.2401962"><time>2025-03-02T10:42:20.400</time></trkpt><trkpt lat="55.7306325" lon="49.2402440"><time>2025-03-02T10:42:22.390</time></trkpt><trkpt lat="55.7306905" lon="49.2402867"><time>2025-03-02T10:42:25.397</time></trkpt><trkpt lat="55.7307031" lon="49.2403934"><time>2025-03-02T10:42:28.397</time></trkpt><trkpt lat="55.7306796" lon="49.2404863"><time>2025-03-02T10:42:30.397</time></trkpt><trkpt lat="55.7306575" lon="49.2405612"><time>2025-03-02T10:42:32.393</time></trkpt><trkpt lat="55.7306432" lon="49.2406642"><time>2025-03-02T10:42:35.390</time></trkpt><trkpt lat="55.7306454" lon="49.2407618"><time>2025-03-02T10:42:38.400</time></trkpt><trkpt lat="55.7306069" lon="49.2408092"><time>2025-03-02T10:42:42.397</time></trkpt><trkpt lat="55.7305619" lon="49.2408890"><time>2025-03-02T10:42:45.407</time></trkpt><trkpt lat="55.7305617" lon="49.2409840"><time>2025-03-02T10:42:49.400</time></trkpt><trkpt lat="55.7305347" lon="49.2410819"><time>2025-03-02T10:42:51.400</time></trkpt><trkpt lat="55.7305050" lon="49.2411859"><time>2025-03-02T10:42:53.273</time></trkpt><trkpt lat="55.7304989" lon="49.2412746"><time>2025-03-02T10:42:55.320</time></trkpt><trkpt lat="55.7304926" lon="49.2413667"><time>2025-03-02T10:42:57.367</time></trkpt><trkpt lat="55.7304561" lon="49.2414447"><time>2025-03-02T10:43:00.373</time></trkpt><trkpt lat="55.7304296" lon="49.2415293"><time>2025-03-02T10:43:05.373</time></trkpt><trkpt lat="55.7304069" lon="49.2416003"><time>2025-03-02T10:43:08.370</time></trkpt><trkpt lat="55.7303935" lon="49.2416851"><time>2025-03-02T10:43:12.367</time></trkpt><trkpt lat="55.7303656" lon="49.2417589"><time>2025-03-02T10:43:17.367</time></trkpt><trkpt lat="55.7303133" lon="49.2417991"><time>2025-03-02T10:43:20.373</time></trkpt><trkpt lat="55.7303170" lon="49.2418899"><time>2025-03-02T10:43:24.373</time></trkpt><trkpt lat="55.7302850" lon="49.2419502"><time>2025-03-02T10:43:29.367</time></trkpt><trkpt lat="55.7303256" lon="49.2419081"><time>2025-03-02T10:43:39.407</time></trkpt><trkpt lat="55.7303858" lon="49.2419278"><time>2025-03-02T10:43:43.383</time></trkpt><trkpt lat="55.7303660" lon="49.2420137"><time>2025-03-02T10:44:21.383</time></trkpt><trkpt lat="55.7303534" lon="49.2421058"><time>2025-03-02T10:44:25.380</time></trkpt><trkpt lat="55.7303445" lon="49.2421855"><time>2025-03-02T10:44:28.373</time></trkpt><trkpt lat="55.7303429" lon="49.2422695"><time>2025-03-02T10:44:31.373</time></trkpt><trkpt lat="55.7303634" lon="49.2423702"><time>2025-03-02T10:44:34.373</time></trkpt><trkpt lat="55.7303985" lon="49.2424590"><time>2025-03-02T10:44:37.377</time></trkpt><trkpt lat="55.7304333" lon="49.2425206"><time>2025-03-02T10:44:39.373</time></trkpt><trkpt lat="55.7304687" lon="49.2425857"><time>2025-03-02T10:44:43.370</time></trkpt><trkpt lat="55.7305066" lon="49.2426370"><time>2025-03-02T10:44:45.373</time></trkpt><trkpt lat="55.7305270" lon="49.2427224"><time>2025-03-02T10:44:47.373</time></trkpt><trkpt lat="55.7305332" lon="49.2428250"><time>2025-03-02T10:44:50.377</time></trkpt><trkpt lat="55.7305387" lon="49.2429243"><time>2025-03-02T10:44:52.277</time></trkpt><trkpt lat="55.7305722" lon="49.2430297"><time>2025-03-02T10:44:55.357</time></trkpt><trkpt lat="55.7305922" lon="49.2431104"><time>2025-03-02T10:44:57.373</time></trkpt><trkpt lat="55.7306313" lon="49.2431510"><time>2025-03-02T10:45:01.377</time></trkpt><trkpt lat="55.7306756" lon="49.2431648"><time>2025-03-02T10:45:06.373</time></trkpt><trkpt lat="55.7306810" lon="49.2432445"><time>2025-03-02T10:45:09.427</time></trkpt><trkpt lat="55.7306653" lon="49.2433267"><time>2025-03-02T10:45:11.377</time></trkpt><trkpt lat="55.7306457" lon="49.2434086"><time>2025-03-02T10:45:14.370</time></trkpt><trkpt lat="55.7306509" lon="49.2434985"><time>2025-03-02T10:45:16.350</time></trkpt><trkpt lat="55.7306587" lon="49.2436788"><time>2025-03-02T10:45:17.377</time></trkpt><trkpt lat="55.7306754" lon="49.2437903"><time>2025-03-02T10:45:19.360</time></trkpt><trkpt lat="55.7307335" lon="49.2438780"><time>2025-03-02T10:45:21.373</time></trkpt><trkpt lat="55.7307610" lon="49.2439530"><time>2025-03-02T10:45:26.377</time></trkpt><trkpt lat="55.7307947" lon="49.2440140"><time>2025-03-02T10:45:28.377</time></trkpt><trkpt lat="55.7307928" lon="49.2441197"><time>2025-03-02T10:45:32.373</time></trkpt><trkpt lat="55.7308241" lon="49.2442120"><time>2025-03-02T10:45:36.373</time></trkpt><trkpt lat="55.7308661" lon="49.2442457"><time>2025-03-02T10:45:38.370</time></trkpt><trkpt lat="55.7309220" lon="49.2442988"><time>2025-03-02T10:45:40.377</time></trkpt><trkpt lat="55.7309646" lon="49.2443473"><time>2025-03-02T10:45:42.270</time></trkpt><trkpt lat="55.7310029" lon="49.2444072"><time>2025-03-02T10:45:45.347</time></trkpt><trkpt lat="55.7310442" lon="49.2444783"><time>2025-03-02T10:45:47.370</time></trkpt><trkpt lat="55.7310748" lon="49.2445696"><time>2025-03-02T10:45:49.363</time></trkpt><trkpt lat="55.7310794" lon="49.2446525"><time>2025-03-02T10:45:51.377</time></trkpt><trkpt lat="55.7310994" lon="49.2447600"><time>2025-03-02T10:45:54.373</time></trkpt><trkpt lat="55.7310860" lon="49.2448680"><time>2025-03-02T10:45:57.380</time></trkpt><trkpt lat="55.7310599" lon="49.2449376"><time>2025-03-02T10:46:00.283</time></trkpt><trkpt lat="55.7310376" lon="49.2450084"><time>2025-03-02T10:46:03.267</time></trkpt><trkpt lat="55.7310471" lon="49.2451149"><time>2025-03-02T10:46:06.267</time></trkpt><trkpt lat="55.7310676" lon="49.2452095"><time>2025-03-02T10:46:09.263</time></trkpt><trkpt lat="55.7310765" lon="49.2453085"><time>2025-03-02T10:46:12.267</time></trkpt><trkpt lat="55.7310891" lon="49.2453934"><time>2025-03-02T10:46:15.280</time></trkpt><trkpt lat="55.7311218" lon="49.2454828"><time>2025-03-02T10:46:17.267</time></trkpt><trkpt lat="55.7311645" lon="49.2455923"><time>2025-03-02T10:46:19.270</time></trkpt><trkpt lat="55.7311930" lon="49.2456657"><time>2025-03-02T10:46:21.267</time></trkpt><trkpt lat="55.7311990" lon="49.2457680"><time>2025-03-02T10:46:25.270</time></trkpt><trkpt lat="55.7312234" lon="49.2458649"><time>2025-03-02T10:46:31.267</time></trkpt><trkpt lat="55.7312369" lon="49.2459465"><time>2025-03-02T10:46:33.267</time></trkpt><trkpt lat="55.7312250" lon="49.2460345"><time>2025-03-02T10:46:35.267</time></trkpt><trkpt lat="55.7312004" lon="49.2461488"><time>2025-03-02T10:46:38.267</time></trkpt><trkpt lat="55.7311883" lon="49.2462473"><time>2025-03-02T10:46:40.270</time></trkpt><trkpt lat="55.7311561" lon="49.2463438"><time>2025-03-02T10:46:43.280</time></trkpt><trkpt lat="55.7311360" lon="49.2464187"><time>2025-03-02T10:46:45.270</time></trkpt><trkpt lat="55.7311033" lon="49.2464881"><time>2025-03-02T10:46:49.280</time></trkpt><trkpt lat="55.7311258" lon="49.2465970"><time>2025-03-02T10:46:55.267</time></trkpt><trkpt lat="55.7311029" lon="49.2465271"><time>2025-03-02T10:47:05.270</time></trkpt><trkpt lat="55.7310752" lon="49.2466365"><time>2025-03-02T10:47:12.280</time></trkpt><trkpt lat="55.7310566" lon="49.2467122"><time>2025-03-02T10:47:14.267</time></trkpt><trkpt lat="55.7310648" lon="49.2468171"><time>2025-03-02T10:47:18.277</time></trkpt><trkpt lat="55.7310478" lon="49.2469315"><time>2025-03-02T10:47:23.280</time></trkpt><trkpt lat="55.7310112" lon="49.2470088"><time>2025-03-02T10:47:26.277</time></trkpt><trkpt lat="55.7309738" lon="49.2470590"><time>2025-03-02T10:47:29.267</time></trkpt><trkpt lat="55.7309457" lon="49.2471417"><time>2025-03-02T10:47:31.267</time></trkpt><trkpt lat="55.7309330" lon="49.2472204"><time>2025-03-02T10:47:33.267</time></trkpt><trkpt lat="55.7308953" lon="49.2473076"><time>2025-03-02T10:47:37.270</time></trkpt><trkpt lat="55.7308425" lon="49.2474715"><time>2025-03-02T10:47:40.267</time></trkpt><trkpt lat="55.7308203" lon="49.2475430"><time>2025-03-02T10:47:41.270</time></trkpt><trkpt lat="55.7308192" lon="49.2476459"><time>2025-03-02T10:47:49.280</time></trkpt><trkpt lat="55.7307792" lon="49.2477590"><time>2025-03-02T10:47:52.280</time></trkpt><trkpt lat="55.7307590" lon="49.2478883"><time>2025-03-02T10:47:54.263</time></trkpt><trkpt lat="55.7307873" lon="49.2479538"><time>2025-03-02T10:47:59.267</time></trkpt><trkpt lat="55.7308029" lon="49.2480285"><time>2025-03-02T10:48:08.267</time></trkpt><trkpt lat="55.7308225" lon="49.2481034"><time>2025-03-02T10:48:21.267</time></trkpt><trkpt lat="55.7308561" lon="49.2481646"><time>2025-03-02T10:48:24.267</time></trkpt><trkpt lat="55.7309017" lon="49.2481830"><time>2025-03-02T10:48:29.267</time></trkpt><trkpt lat="55.7309565" lon="49.2482277"><time>2025-03-02T10:48:33.277</time></trkpt><trkpt lat="55.7309919" lon="49.2482845"><time>2025-03-02T10:48:36.270</time></trkpt><trkpt lat="55.7310040" lon="49.2483856"><time>2025-03-02T10:48:40.270</time></trkpt><trkpt lat="55.7309551" lon="49.2483799"><time>2025-03-02T10:48:46.277</time></trkpt><trkpt lat="55.7309170" lon="49.2484364"><time>2025-03-02T10:48:49.260</time></trkpt><trkpt lat="55.7309419" lon="49.2485268"><time>2025-03-02T10:48:53.263</time></trkpt><trkpt lat="55.7309416" lon="49.2486343"><time>2025-03-02T10:48:56.267</time></trkpt><trkpt lat="55.7309373" lon="49.2487261"><time>2025-03-02T10:49:02.267</time></trkpt><trkpt lat="55.7309635" lon="49.2488018"><time>2025-03-02T10:49:06.270</time></trkpt><trkpt lat="55.7309761" lon="49.2488788"><time>2025-03-02T10:49:13.263</time></trkpt><trkpt lat="55.7310272" lon="49.2489024"><time>2025-03-02T10:49:20.263</time></trkpt><trkpt lat="55.7310754" lon="49.2489009"><time>2025-03-02T10:49:23.270</time></trkpt><trkpt lat="55.7311353" lon="49.2488874"><time>2025-03-02T10:49:26.267</time></trkpt><trkpt lat="55.7311799" lon="49.2489369"><time>2025-03-02T10:49:30.270</time></trkpt><trkpt lat="55.7312283" lon="49.2489343"><time>2025-03-02T10:49:32.267</time></trkpt><trkpt lat="55.7312729" lon="49.2489740"><time>2025-03-02T10:49:35.270</time></trkpt><trkpt lat="55.7313190" lon="49.2489584"><time>2025-03-02T10:49:38.267</time></trkpt><trkpt lat="55.7313744" lon="49.2489462"><time>2025-03-02T10:49:41.270</time></trkpt><trkpt lat="55.7314210" lon="49.2489506"><time>2025-03-02T10:49:43.277</time></trkpt><trkpt lat="55.7314657" lon="49.2489952"><time>2025-03-02T10:49:45.267</time></trkpt><trkpt lat="55.7315413" lon="49.2490333"><time>2025-03-02T10:49:47.267</time></trkpt><trkpt lat="55.7315977" lon="49.2490271"><time>2025-03-02T10:49:50.267</time></trkpt><trkpt lat="55.7316595" lon="49.2490373"><time>2025-03-02T10:49:53.267</time></trkpt><trkpt lat="55.7317052" lon="49.2490295"><time>2025-03-02T10:49:55.270</time></trkpt><trkpt lat="55.7317527" lon="49.2489980"><time>2025-03-02T10:49:58.270</time></trkpt><trkpt lat="55.7318207" lon="49.2489883"><time>2025-03-02T10:50:01.260</time></trkpt><trkpt lat="55.7318860" lon="49.2490002"><time>2025-03-02T10:50:04.280</time></trkpt><trkpt lat="55.7319409" lon="49.2490259"><time>2025-03-02T10:50:07.270</time></trkpt><trkpt lat="55.7320003" lon="49.2490412"><time>2025-03-02T10:50:09.263</time></trkpt><trkpt lat="55.7320472" lon="49.2490434"><time>2025-03-02T10:50:10.277</time></trkpt><trkpt lat="55.7320984" lon="49.2490527"><time>2025-03-02T10:50:12.270</time></trkpt><trkpt lat="55.7321564" lon="49.2490788"><time>2025-03-02T10:50:15.263</time></trkpt><trkpt lat="55.7322082" lon="49.2491451"><time>2025-03-02T10:50:19.267</time></trkpt><trkpt lat="55.7322299" lon="49.2490411"><time>2025-03-02T10:50:22.280</time></trkpt><trkpt lat="55.7322713" lon="49.2489995"><time>2025-03-02T10:50:36.263</time></trkpt><trkpt lat="55.7322978" lon="49.2490837"><time>2025-03-02T10:50:40.280</time></trkpt><trkpt lat="55.7322676" lon="49.2492634"><time>2025-03-02T10:50:41.273</time></trkpt><trkpt lat="55.7323194" lon="49.2491599"><time>2025-03-02T10:50:42.270</time></trkpt><trkpt lat="55.7323683" lon="49.2490560"><time>2025-03-02T10:50:45.273</time></trkpt><trkpt lat="55.7323161" lon="49.2490198"><time>2025-03-02T10:52:01.267</time></trkpt><trkpt lat="55.7322698" lon="49.2490078"><time>2025-03-02T10:52:08.403</time></trkpt><trkpt lat="55.7323148" lon="49.2490506"><time>2025-03-02T10:52:20.393</time></trkpt><trkpt lat="55.7323342" lon="49.2491338"><time>2025-03-02T10:52:26.373</time></trkpt><trkpt lat="55.7323793" lon="49.2490752"><time>2025-03-02T10:52:35.393</time></trkpt><trkpt lat="55.7324209" lon="49.2490123"><time>2025-03-02T10:52:38.387</time></trkpt><trkpt lat="55.7323964" lon="49.2490865"><time>2025-03-02T10:52:47.390</time></trkpt><trkpt lat="55.7325494" lon="49.2490446"><time>2025-03-02T10:52:55.267</time></trkpt><trkpt lat="55.7325939" lon="49.2490161"><time>2025-03-02T10:52:59.443</time></trkpt><trkpt lat="55.7327809" lon="49.2491477"><time>2025-03-02T10:53:03.427</time></trkpt><trkpt lat="55.7326320" lon="49.2491383"><time>2025-03-02T10:53:04.430</time></trkpt><trkpt lat="55.7326806" lon="49.2491236"><time>2025-03-02T10:53:14.363</time></trkpt><trkpt lat="55.7326360" lon="49.2490910"><time>2025-03-02T10:53:41.350</time></trkpt><trkpt lat="55.7325872" lon="49.2490938"><time>2025-03-02T10:53:45.383</time></trkpt><trkpt lat="55.7325431" lon="49.2491127"><time>2025-03-02T10:53:49.387</time></trkpt><trkpt lat="55.7324876" lon="49.2491168"><time>2025-03-02T10:53:52.380</time></trkpt><trkpt lat="55.7324418" lon="49.2491169"><time>2025-03-02T10:54:00.267</time></trkpt><trkpt lat="55.7323961" lon="49.2491020"><time>2025-03-02T10:54:36.367</time></trkpt><trkpt lat="55.7323485" lon="49.2490713"><time>2025-03-02T10:54:45.360</time></trkpt><trkpt lat="55.7322935" lon="49.2490673"><time>2025-03-02T10:54:53.270</time></trkpt><trkpt lat="55.7322462" lon="49.2490936"><time>2025-03-02T10:54:58.393</time></trkpt><trkpt lat="55.7321870" lon="49.2490954"><time>2025-03-02T10:55:05.360</time></trkpt><trkpt lat="55.7322221" lon="49.2490363"><time>2025-03-02T10:55:18.373</time></trkpt><trkpt lat="55.7322743" lon="49.2490085"><time>2025-03-02T10:55:21.357</time></trkpt><trkpt lat="55.7322854" lon="49.2489355"><time>2025-03-02T10:55:33.970</time></trkpt><trkpt lat="55.7322852" lon="49.2489310"><time>2025-03-02T10:55:34.250</time></trkpt><trkpt lat="55.7322360" lon="49.2489639"><time>2025-03-02T10:55:52.267</time></trkpt><trkpt lat="55.7321898" lon="49.2489703"><time>2025-03-02T10:56:06.267</time></trkpt><trkpt lat="55.7317652" lon="49.2494694"><time>2025-03-02T10:58:49.807</time></trkpt><trkpt lat="55.7317487" lon="49.2493619"><time>2025-03-02T10:58:50.283</time></trkpt><trkpt lat="55.7317004" lon="49.2493316"><time>2025-03-02T10:59:32.260</time></trkpt><trkpt lat="55.7316498" lon="49.2493453"><time>2025-03-02T10:59:36.373</time></trkpt><trkpt lat="55.7315990" lon="49.2493406"><time>2025-03-02T10:59:41.380</time></trkpt><trkpt lat="55.7315507" lon="49.2493278"><time>2025-03-02T10:59:46.397</time></trkpt><trkpt lat="55.7315003" lon="49.2493159"><time>2025-03-02T10:59:50.407</time></trkpt><trkpt lat="55.7314504" lon="49.2493220"><time>2025-03-02T10:59:55.267</time></trkpt><trkpt lat="55.7313981" lon="49.2493311"><time>2025-03-02T10:59:59.377</time></trkpt><trkpt lat="55.7313454" lon="49.2492932"><time>2025-03-02T11:00:04.363</time></trkpt><trkpt lat="55.7313067" lon="49.2492493"><time>2025-03-02T11:00:08.263</time></trkpt><trkpt lat="55.7312485" lon="49.2492233"><time>2025-03-02T11:00:11.387</time></trkpt><trkpt lat="55.7311962" lon="49.2492081"><time>2025-03-02T11:00:14.403</time></trkpt><trkpt lat="55.7311332" lon="49.2491788"><time>2025-03-02T11:00:17.397</time></trkpt><trkpt lat="55.7310837" lon="49.2491725"><time>2025-03-02T11:00:19.360</time></trkpt><trkpt lat="55.7310328" lon="49.2491621"><time>2025-03-02T11:00:21.397</time></trkpt><trkpt lat="55.7309837" lon="49.2491372"><time>2025-03-02T11:00:24.377</time></trkpt><trkpt lat="55.7309341" lon="49.2490888"><time>2025-03-02T11:00:27.393</time></trkpt><trkpt lat="55.7308713" lon="49.2490925"><time>2025-03-02T11:00:30.400</time></trkpt><trkpt lat="55.7308201" lon="49.2491113"><time>2025-03-02T11:00:32.267</time></trkpt><trkpt lat="55.7307756" lon="49.2490992"><time>2025-03-02T11:00:35.390</time></trkpt><trkpt lat="55.7307173" lon="49.2490884"><time>2025-03-02T11:00:38.367</time></trkpt><trkpt lat="55.7306732" lon="49.2491184"><time>2025-03-02T11:00:40.390</time></trkpt><trkpt lat="55.7306260" lon="49.2491614"><time>2025-03-02T11:00:43.270</time></trkpt><trkpt lat="55.7305684" lon="49.2491694"><time>2025-03-02T11:00:47.357</time></trkpt><trkpt lat="55.7305191" lon="49.2491650"><time>2025-03-02T11:00:50.367</time></trkpt><trkpt lat="55.7304629" lon="49.2491459"><time>2025-03-02T11:00:53.380</time></trkpt><trkpt lat="55.7304452" lon="49.2490581"><time>2025-03-02T11:00:57.390</time></trkpt><trkpt lat="55.7304171" lon="49.2489885"><time>2025-03-02T11:01:00.373</time></trkpt><trkpt lat="55.7303831" lon="49.2489258"><time>2025-03-02T11:01:04.390</time></trkpt><trkpt lat="55.7303659" lon="49.2488509"><time>2025-03-02T11:01:07.390</time></trkpt><trkpt lat="55.7303489" lon="49.2487494"><time>2025-03-02T11:01:10.397</time></trkpt><trkpt lat="55.7303215" lon="49.2486584"><time>2025-03-02T11:01:14.370</time></trkpt><trkpt lat="55.7302840" lon="49.2485936"><time>2025-03-02T11:01:16.383</time></trkpt><trkpt lat="55.7302457" lon="49.2485349"><time>2025-03-02T11:01:18.380</time></trkpt><trkpt lat="55.7302002" lon="49.2484702"><time>2025-03-02T11:01:21.390</time></trkpt><trkpt lat="55.7301710" lon="49.2483964"><time>2025-03-02T11:01:24.360</time></trkpt><trkpt lat="55.7301611" lon="49.2483187"><time>2025-03-02T11:01:27.267</time></trkpt><trkpt lat="55.7301511" lon="49.2482090"><time>2025-03-02T11:01:31.370</time></trkpt><trkpt lat="55.7301325" lon="49.2481281"><time>2025-03-02T11:01:34.373</time></trkpt><trkpt lat="55.7301094" lon="49.2480374"><time>2025-03-02T11:01:37.360</time></trkpt><trkpt lat="55.7300938" lon="49.2479525"><time>2025-03-02T11:01:39.263</time></trkpt><trkpt lat="55.7300693" lon="49.2478488"><time>2025-03-02T11:01:42.263</time></trkpt><trkpt lat="55.7300356" lon="49.2477614"><time>2025-03-02T11:01:45.367</time></trkpt><trkpt lat="55.7300242" lon="49.2476720"><time>2025-03-02T11:01:47.360</time></trkpt><trkpt lat="55.7299967" lon="49.2475676"><time>2025-03-02T11:01:50.357</time></trkpt><trkpt lat="55.7299580" lon="49.2475048"><time>2025-03-02T11:01:53.363</time></trkpt><trkpt lat="55.7299269" lon="49.2474131"><time>2025-03-02T11:01:56.377</time></trkpt><trkpt lat="55.7299004" lon="49.2473468"><time>2025-03-02T11:01:58.390</time></trkpt><trkpt lat="55.7298731" lon="49.2472699"><time>2025-03-02T11:02:01.393</time></trkpt><trkpt lat="55.7298548" lon="49.2471861"><time>2025-03-02T11:02:03.393</time></trkpt><trkpt lat="55.7298227" lon="49.2471001"><time>2025-03-02T11:02:07.390</time></trkpt><trkpt lat="55.7297931" lon="49.2470026"><time>2025-03-02T11:02:11.387</time></trkpt><trkpt lat="55.7297763" lon="49.2469237"><time>2025-03-02T11:02:14.383</time></trkpt><trkpt lat="55.7297635" lon="49.2468418"><time>2025-03-02T11:02:17.370</time></trkpt><trkpt lat="55.7297287" lon="49.2467876"><time>2025-03-02T11:02:19.403</time></trkpt><trkpt lat="55.7296815" lon="49.2467024"><time>2025-03-02T11:02:21.377</time></trkpt><trkpt lat="55.7296389" lon="49.2466082"><time>2025-03-02T11:02:23.373</time></trkpt><trkpt lat="55.7296008" lon="49.2465432"><time>2025-03-02T11:02:26.407</time></trkpt><trkpt lat="55.7295688" lon="49.2464623"><time>2025-03-02T11:02:30.383</time></trkpt><trkpt lat="55.7295369" lon="49.2464014"><time>2025-03-02T11:02:33.380</time></trkpt><trkpt lat="55.7295117" lon="49.2463254"><time>2025-03-02T11:02:36.360</time></trkpt><trkpt lat="55.7294833" lon="49.2462604"><time>2025-03-02T11:02:38.387</time></trkpt><trkpt lat="55.7294827" lon="49.2461711"><time>2025-03-02T11:02:44.357</time></trkpt><trkpt lat="55.7294478" lon="49.2460913"><time>2025-03-02T11:02:47.277</time></trkpt><trkpt lat="55.7294135" lon="49.2460188"><time>2025-03-02T11:02:49.407</time></trkpt><trkpt lat="55.7293826" lon="49.2459539"><time>2025-03-02T11:02:51.270</time></trkpt><trkpt lat="55.7293517" lon="49.2458835"><time>2025-03-02T11:02:53.350</time></trkpt><trkpt lat="55.7293226" lon="49.2458105"><time>2025-03-02T11:02:55.377</time></trkpt><trkpt lat="55.7292971" lon="49.2457212"><time>2025-03-02T11:02:58.330</time></trkpt><trkpt lat="55.7292845" lon="49.2456390"><time>2025-03-02T11:03:01.367</time></trkpt><trkpt lat="55.7292480" lon="49.2455419"><time>2025-03-02T11:03:04.387</time></trkpt><trkpt lat="55.7292102" lon="49.2454614"><time>2025-03-02T11:03:07.360</time></trkpt><trkpt lat="55.7291739" lon="49.2453702"><time>2025-03-02T11:03:10.387</time></trkpt><trkpt lat="55.7291473" lon="49.2452885"><time>2025-03-02T11:03:12.393</time></trkpt><trkpt lat="55.7291205" lon="49.2451963"><time>2025-03-02T11:03:14.420</time></trkpt><trkpt lat="55.7290991" lon="49.2451198"><time>2025-03-02T11:03:16.367</time></trkpt><trkpt lat="55.7290793" lon="49.2450350"><time>2025-03-02T11:03:18.390</time></trkpt><trkpt lat="55.7290633" lon="49.2449382"><time>2025-03-02T11:03:21.420</time></trkpt><trkpt lat="55.7290526" lon="49.2448532"><time>2025-03-02T11:03:24.373</time></trkpt><trkpt lat="55.7290341" lon="49.2447474"><time>2025-03-02T11:03:27.367</time></trkpt><trkpt lat="55.7290112" lon="49.2446437"><time>2025-03-02T11:03:30.397</time></trkpt><trkpt lat="55.7289926" lon="49.2445606"><time>2025-03-02T11:03:32.403</time></trkpt><trkpt lat="55.7289815" lon="49.2444832"><time>2025-03-02T11:03:34.383</time></trkpt><trkpt lat="55.7289618" lon="49.2443848"><time>2025-03-02T11:03:38.377</time></trkpt><trkpt lat="55.7289254" lon="49.2442632"><time>2025-03-02T11:03:41.400</time></trkpt><trkpt lat="55.7289038" lon="49.2441776"><time>2025-03-02T11:03:43.390</time></trkpt><trkpt lat="55.7288888" lon="49.2440990"><time>2025-03-02T11:03:45.390</time></trkpt><trkpt lat="55.7288760" lon="49.2440217"><time>2025-03-02T11:03:48.380</time></trkpt><trkpt lat="55.7288539" lon="49.2439382"><time>2025-03-02T11:03:51.403</time></trkpt><trkpt lat="55.7288306" lon="49.2438547"><time>2025-03-02T11:03:54.283</time></trkpt><trkpt lat="55.7288059" lon="49.2437595"><time>2025-03-02T11:03:57.397</time></trkpt><trkpt lat="55.7287820" lon="49.2436476"><time>2025-03-02T11:04:00.360</time></trkpt><trkpt lat="55.7287599" lon="49.2435515"><time>2025-03-02T11:04:02.367</time></trkpt><trkpt lat="55.7287327" lon="49.2434566"><time>2025-03-02T11:04:05.357</time></trkpt><trkpt lat="55.7287119" lon="49.2433503"><time>2025-03-02T11:04:08.353</time></trkpt><trkpt lat="55.7286958" lon="49.2432572"><time>2025-03-02T11:04:11.373</time></trkpt><trkpt lat="55.7286759" lon="49.2431595"><time>2025-03-02T11:04:14.380</time></trkpt><trkpt lat="55.7286610" lon="49.2430784"><time>2025-03-02T11:04:16.377</time></trkpt><trkpt lat="55.7286463" lon="49.2429904"><time>2025-03-02T11:04:18.377</time></trkpt><trkpt lat="55.7286246" lon="49.2428876"><time>2025-03-02T11:04:20.380</time></trkpt><trkpt lat="55.7285977" lon="49.2427971"><time>2025-03-02T11:04:22.267</time></trkpt><trkpt lat="55.7285676" lon="49.2427346"><time>2025-03-02T11:04:26.383</time></trkpt><trkpt lat="55.7285445" lon="49.2426580"><time>2025-03-02T11:05:15.267</time></trkpt><trkpt lat="55.7285709" lon="49.2427308"><time>2025-03-02T11:05:56.263</time></trkpt><trkpt lat="55.7285275" lon="49.2426930"><time>2025-03-02T11:06:37.410</time></trkpt><trkpt lat="55.7284937" lon="49.2426393"><time>2025-03-02T11:07:09.357</time></trkpt><trkpt lat="55.7285078" lon="49.2425570"><time>2025-03-02T11:07:34.263</time></trkpt><trkpt lat="55.7284983" lon="49.2424735"><time>2025-03-02T11:07:40.260</time></trkpt><trkpt lat="55.7284842" lon="49.2423954"><time>2025-03-02T11:07:43.257</time></trkpt><trkpt lat="55.7284687" lon="49.2422990"><time>2025-03-02T11:07:46.347</time></trkpt><trkpt lat="55.7284405" lon="49.2421936"><time>2025-03-02T11:07:49.353</time></trkpt><trkpt lat="55.7284268" lon="49.2421141"><time>2025-03-02T11:07:51.360</time></trkpt><trkpt lat="55.7284190" lon="49.2420252"><time>2025-03-02T11:07:55.387</time></trkpt><trkpt lat="55.7284074" lon="49.2419148"><time>2025-03-02T11:07:58.347</time></trkpt><trkpt lat="55.7283803" lon="49.2417929"><time>2025-03-02T11:08:01.270</time></trkpt><trkpt lat="55.7283567" lon="49.2417203"><time>2025-03-02T11:08:03.357</time></trkpt><trkpt lat="55.7283518" lon="49.2416226"><time>2025-03-02T11:08:06.393</time></trkpt><trkpt lat="55.7283397" lon="49.2415289"><time>2025-03-02T11:08:09.343</time></trkpt><trkpt lat="55.7283184" lon="49.2414164"><time>2025-03-02T11:08:12.343</time></trkpt><trkpt lat="55.7283024" lon="49.2413384"><time>2025-03-02T11:08:14.350</time></trkpt><trkpt lat="55.7282753" lon="49.2412591"><time>2025-03-02T11:08:17.353</time></trkpt><trkpt lat="55.7282630" lon="49.2411429"><time>2025-03-02T11:08:20.360</time></trkpt><trkpt lat="55.7282570" lon="49.2410445"><time>2025-03-02T11:08:22.393</time></trkpt><trkpt lat="55.7282513" lon="49.2409648"><time>2025-03-02T11:08:24.260</time></trkpt><trkpt lat="55.7282467" lon="49.2408650"><time>2025-03-02T11:08:27.257</time></trkpt><trkpt lat="55.7282497" lon="49.2407568"><time>2025-03-02T11:08:30.380</time></trkpt><trkpt lat="55.7282477" lon="49.2406513"><time>2025-03-02T11:08:33.363</time></trkpt><trkpt lat="55.7282469" lon="49.2405565"><time>2025-03-02T11:08:36.360</time></trkpt><trkpt lat="55.7282468" lon="49.2404546"><time>2025-03-02T11:08:39.350</time></trkpt><trkpt lat="55.7282491" lon="49.2403580"><time>2025-03-02T11:08:42.380</time></trkpt><trkpt lat="55.7282666" lon="49.2402444"><time>2025-03-02T11:08:45.340</time></trkpt><trkpt lat="55.7282804" lon="49.2401527"><time>2025-03-02T11:08:48.270</time></trkpt><trkpt lat="55.7283072" lon="49.2400867"><time>2025-03-02T11:08:52.380</time></trkpt><trkpt lat="55.7283274" lon="49.2399997"><time>2025-03-02T11:08:56.357</time></trkpt><trkpt lat="55.7283311" lon="49.2398836"><time>2025-03-02T11:08:59.387</time></trkpt><trkpt lat="55.7283379" lon="49.2397999"><time>2025-03-02T11:09:02.393</time></trkpt><trkpt lat="55.7283443" lon="49.2397167"><time>2025-03-02T11:09:06.293</time></trkpt><trkpt lat="55.7283497" lon="49.2396317"><time>2025-03-02T11:09:09.393</time></trkpt><trkpt lat="55.7283596" lon="49.2395480"><time>2025-03-02T11:09:13.387</time></trkpt><trkpt lat="55.7283676" lon="49.2394640"><time>2025-03-02T11:09:17.360</time></trkpt><trkpt lat="55.7283779" lon="49.2393788"><time>2025-03-02T11:09:20.360</time></trkpt><trkpt lat="55.7283817" lon="49.2392818"><time>2025-03-02T11:09:23.357</time></trkpt><trkpt lat="55.7283765" lon="49.2391570"><time>2025-03-02T11:09:26.357</time></trkpt><trkpt lat="55.7283798" lon="49.2390460"><time>2025-03-02T11:09:29.393</time></trkpt><trkpt lat="55.7283772" lon="49.2389631"><time>2025-03-02T11:09:35.367</time></trkpt><trkpt lat="55.7283868" lon="49.2388485"><time>2025-03-02T11:09:38.263</time></trkpt><trkpt lat="55.7283959" lon="49.2387474"><time>2025-03-02T11:09:40.360</time></trkpt><trkpt lat="55.7284057" lon="49.2386655"><time>2025-03-02T11:09:47.360</time></trkpt><trkpt lat="55.7284358" lon="49.2386044"><time>2025-03-02T11:09:55.267</time></trkpt><trkpt lat="55.7284936" lon="49.2386138"><time>2025-03-02T11:09:59.363</time></trkpt><trkpt lat="55.7285439" lon="49.2386153"><time>2025-03-02T11:10:04.390</time></trkpt><trkpt lat="55.7285883" lon="49.2385748"><time>2025-03-02T11:10:07.383</time></trkpt><trkpt lat="55.7286245" lon="49.2385184"><time>2025-03-02T11:10:20.377</time></trkpt><trkpt lat="55.7286795" lon="49.2385130"><time>2025-03-02T11:10:23.400</time></trkpt><trkpt lat="55.7287180" lon="49.2384653"><time>2025-03-02T11:10:26.350</time></trkpt><trkpt lat="55.7287553" lon="49.2383979"><time>2025-03-02T11:10:29.363</time></trkpt><trkpt lat="55.7287969" lon="49.2383523"><time>2025-03-02T11:10:31.363</time></trkpt><trkpt lat="55.7288353" lon="49.2382980"><time>2025-03-02T11:10:33.363</time></trkpt><trkpt lat="55.7288831" lon="49.2382364"><time>2025-03-02T11:10:35.350</time></trkpt><trkpt lat="55.7289299" lon="49.2381788"><time>2025-03-02T11:10:37.383</time></trkpt><trkpt lat="55.7289751" lon="49.2381401"><time>2025-03-02T11:10:39.340</time></trkpt><trkpt lat="55.7290295" lon="49.2380931"><time>2025-03-02T11:10:42.267</time></trkpt><trkpt lat="55.7290770" lon="49.2380437"><time>2025-03-02T11:10:45.307</time></trkpt><trkpt lat="55.7291330" lon="49.2379904"><time>2025-03-02T11:10:48.347</time></trkpt><trkpt lat="55.7291770" lon="49.2379535"><time>2025-03-02T11:10:51.377</time></trkpt><trkpt lat="55.7292066" lon="49.2378542"><time>2025-03-02T11:10:55.367</time></trkpt><trkpt lat="55.7292366" lon="49.2377908"><time>2025-03-02T11:10:58.253</time></trkpt><trkpt lat="55.7292487" lon="49.2377090"><time>2025-03-02T11:11:03.273</time></trkpt><trkpt lat="55.7292489" lon="49.2376728"><time>2025-03-02T11:11:06.447</time></trkpt><trkpt lat="55.7292469" lon="49.2376275"><time>2025-03-02T11:11:24.263</time></trkpt><trkpt lat="55.7292756" lon="49.2377014"><time>2025-03-02T11:11:32.270</time></trkpt><trkpt lat="55.7292489" lon="49.2377824"><time>2025-03-02T11:11:41.283</time></trkpt><trkpt lat="55.7292033" lon="49.2378365"><time>2025-03-02T11:11:44.263</time></trkpt><trkpt lat="55.7291406" lon="49.2379381"><time>2025-03-02T11:11:48.260</time></trkpt><trkpt lat="55.7290938" lon="49.2379892"><time>2025-03-02T11:11:52.270</time></trkpt><trkpt lat="55.7290481" lon="49.2380383"><time>2025-03-02T11:11:57.267</time></trkpt><trkpt lat="55.7290021" lon="49.2380731"><time>2025-03-02T11:12:00.263</time></trkpt><trkpt lat="55.7289624" lon="49.2381172"><time>2025-03-02T11:12:03.257</time></trkpt><trkpt lat="55.7289131" lon="49.2381773"><time>2025-03-02T11:12:06.383</time></trkpt><trkpt lat="55.7288596" lon="49.2382298"><time>2025-03-02T11:12:09.263</time></trkpt><trkpt lat="55.7288020" lon="49.2382797"><time>2025-03-02T11:12:12.370</time></trkpt><trkpt lat="55.7287683" lon="49.2383448"><time>2025-03-02T11:12:15.377</time></trkpt><trkpt lat="55.7287209" lon="49.2384234"><time>2025-03-02T11:12:18.400</time></trkpt><trkpt lat="55.7286810" lon="49.2384665"><time>2025-03-02T11:12:20.357</time></trkpt><trkpt lat="55.7286251" lon="49.2385140"><time>2025-03-02T11:12:23.403</time></trkpt><trkpt lat="55.7285806" lon="49.2385332"><time>2025-03-02T11:12:25.397</time></trkpt><trkpt lat="55.7285407" lon="49.2385936"><time>2025-03-02T11:12:29.367</time></trkpt><trkpt lat="55.7284965" lon="49.2386244"><time>2025-03-02T11:12:33.400</time></trkpt><trkpt lat="55.7284442" lon="49.2386368"><time>2025-03-02T11:12:37.363</time></trkpt><trkpt lat="55.7284324" lon="49.2385331"><time>2025-03-02T11:12:45.267</time></trkpt><trkpt lat="55.7284409" lon="49.2384441"><time>2025-03-02T11:12:49.263</time></trkpt><trkpt lat="55.7284425" lon="49.2383563"><time>2025-03-02T11:12:51.263</time></trkpt><trkpt lat="55.7284558" lon="49.2382670"><time>2025-03-02T11:12:54.357</time></trkpt><trkpt lat="55.7284770" lon="49.2381841"><time>2025-03-02T11:12:57.367</time></trkpt><trkpt lat="55.7284826" lon="49.2381051"><time>2025-03-02T11:12:59.367</time></trkpt><trkpt lat="55.7284815" lon="49.2380130"><time>2025-03-02T11:13:01.367</time></trkpt><trkpt lat="55.7284918" lon="49.2379198"><time>2025-03-02T11:13:04.380</time></trkpt><trkpt lat="55.7285044" lon="49.2378079"><time>2025-03-02T11:13:07.380</time></trkpt><trkpt lat="55.7285123" lon="49.2377033"><time>2025-03-02T11:13:09.363</time></trkpt><trkpt lat="55.7285239" lon="49.2376056"><time>2025-03-02T11:13:11.377</time></trkpt><trkpt lat="55.7285323" lon="49.2375189"><time>2025-03-02T11:13:13.377</time></trkpt><trkpt lat="55.7285439" lon="49.2374195"><time>2025-03-02T11:13:15.380</time></trkpt><trkpt lat="55.7285570" lon="49.2373204"><time>2025-03-02T11:13:17.377</time></trkpt><trkpt lat="55.7285615" lon="49.2372340"><time>2025-03-02T11:13:19.373</time></trkpt><trkpt lat="55.7285712" lon="49.2371380"><time>2025-03-02T11:13:22.383</time></trkpt><trkpt lat="55.7285931" lon="49.2370458"><time>2025-03-02T11:13:25.383</time></trkpt><trkpt lat="55.7285982" lon="49.2369566"><time>2025-03-02T11:13:27.387</time></trkpt><trkpt lat="55.7285934" lon="49.2368268"><time>2025-03-02T11:13:30.297</time></trkpt><trkpt lat="55.7285914" lon="49.2367025"><time>2025-03-02T11:13:33.270</time></trkpt><trkpt lat="55.7285962" lon="49.2366153"><time>2025-03-02T11:13:35.263</time></trkpt><trkpt lat="55.7286111" lon="49.2365248"><time>2025-03-02T11:13:37.260</time></trkpt><trkpt lat="55.7286225" lon="49.2364406"><time>2025-03-02T11:13:39.267</time></trkpt><trkpt lat="55.7286244" lon="49.2363491"><time>2025-03-02T11:13:41.267</time></trkpt><trkpt lat="55.7286216" lon="49.2362481"><time>2025-03-02T11:13:43.357</time></trkpt><trkpt lat="55.7286268" lon="49.2361141"><time>2025-03-02T11:13:46.357</time></trkpt><trkpt lat="55.7286229" lon="49.2360034"><time>2025-03-02T11:13:48.297</time></trkpt><trkpt lat="55.7286164" lon="49.2359179"><time>2025-03-02T11:13:50.363</time></trkpt><trkpt lat="55.7286114" lon="49.2358121"><time>2025-03-02T11:13:52.360</time></trkpt><trkpt lat="55.7286076" lon="49.2357145"><time>2025-03-02T11:13:54.313</time></trkpt><trkpt lat="55.7286060" lon="49.2356102"><time>2025-03-02T11:13:57.260</time></trkpt><trkpt lat="55.7286063" lon="49.2354892"><time>2025-03-02T11:14:00.307</time></trkpt><trkpt lat="55.7285936" lon="49.2353962"><time>2025-03-02T11:14:02.270</time></trkpt><trkpt lat="55.7285813" lon="49.2353025"><time>2025-03-02T11:14:04.267</time></trkpt><trkpt lat="55.7285633" lon="49.2351935"><time>2025-03-02T11:14:06.277</time></trkpt><trkpt lat="55.7285485" lon="49.2350933"><time>2025-03-02T11:14:08.277</time></trkpt><trkpt lat="55.7285296" lon="49.2349838"><time>2025-03-02T11:14:11.273</time></trkpt><trkpt lat="55.7285195" lon="49.2348613"><time>2025-03-02T11:14:14.270</time></trkpt><trkpt lat="55.7284943" lon="49.2347625"><time>2025-03-02T11:14:17.270</time></trkpt><trkpt lat="55.7284671" lon="49.2346589"><time>2025-03-02T11:14:20.257</time></trkpt><trkpt lat="55.7284464" lon="49.2345751"><time>2025-03-02T11:14:22.267</time></trkpt><trkpt lat="55.7284311" lon="49.2344954"><time>2025-03-02T11:14:24.357</time></trkpt><trkpt lat="55.7284150" lon="49.2344209"><time>2025-03-02T11:14:26.367</time></trkpt><trkpt lat="55.7283992" lon="49.2343368"><time>2025-03-02T11:14:28.367</time></trkpt><trkpt lat="55.7283924" lon="49.2342224"><time>2025-03-02T11:14:31.360</time></trkpt><trkpt lat="55.7283766" lon="49.2341414"><time>2025-03-02T11:14:33.273</time></trkpt><trkpt lat="55.7283518" lon="49.2340661"><time>2025-03-02T11:14:35.273</time></trkpt><trkpt lat="55.7283352" lon="49.2339749"><time>2025-03-02T11:14:38.270</time></trkpt><trkpt lat="55.7283317" lon="49.2338729"><time>2025-03-02T11:14:41.270</time></trkpt><trkpt lat="55.7283179" lon="49.2337789"><time>2025-03-02T11:14:44.263</time></trkpt><trkpt lat="55.7283009" lon="49.2336822"><time>2025-03-02T11:14:46.267</time></trkpt><trkpt lat="55.7282884" lon="49.2335587"><time>2025-03-02T11:14:49.273</time></trkpt><trkpt lat="55.7282696" lon="49.2334618"><time>2025-03-02T11:14:51.270</time></trkpt><trkpt lat="55.7282544" lon="49.2333738"><time>2025-03-02T11:14:54.267</time></trkpt><trkpt lat="55.7282431" lon="49.2332780"><time>2025-03-02T11:14:56.270</time></trkpt><trkpt lat="55.7282298" lon="49.2331994"><time>2025-03-02T11:14:58.267</time></trkpt><trkpt lat="55.7282134" lon="49.2331087"><time>2025-03-02T11:15:00.277</time></trkpt><trkpt lat="55.7282032" lon="49.2330202"><time>2025-03-02T11:15:02.273</time></trkpt><trkpt lat="55.7281884" lon="49.2329161"><time>2025-03-02T11:15:04.267</time></trkpt><trkpt lat="55.7281741" lon="49.2328020"><time>2025-03-02T11:15:06.263</time></trkpt><trkpt lat="55.7281621" lon="49.2327138"><time>2025-03-02T11:15:08.270</time></trkpt><trkpt lat="55.7281476" lon="49.2325896"><time>2025-03-02T11:15:11.270</time></trkpt><trkpt lat="55.7281410" lon="49.2325077"><time>2025-03-02T11:15:13.273</time></trkpt><trkpt lat="55.7281360" lon="49.2324179"><time>2025-03-02T11:15:16.273</time></trkpt><trkpt lat="55.7281200" lon="49.2322976"><time>2025-03-02T11:15:19.273</time></trkpt><trkpt lat="55.7281032" lon="49.2321792"><time>2025-03-02T11:15:22.373</time></trkpt><trkpt lat="55.7280889" lon="49.2320696"><time>2025-03-02T11:15:24.337</time></trkpt><trkpt lat="55.7280859" lon="49.2319826"><time>2025-03-02T11:15:26.363</time></trkpt><trkpt lat="55.7280757" lon="49.2318824"><time>2025-03-02T11:15:28.353</time></trkpt><trkpt lat="55.7280634" lon="49.2317644"><time>2025-03-02T11:15:31.273</time></trkpt><trkpt lat="55.7280544" lon="49.2316786"><time>2025-03-02T11:15:33.267</time></trkpt><trkpt lat="55.7280563" lon="49.2315907"><time>2025-03-02T11:15:36.337</time></trkpt><trkpt lat="55.7280333" lon="49.2314988"><time>2025-03-02T11:15:39.270</time></trkpt><trkpt lat="55.7280166" lon="49.2314238"><time>2025-03-02T11:15:47.357</time></trkpt><trkpt lat="55.7279970" lon="49.2313521"><time>2025-03-02T11:16:08.370</time></trkpt><trkpt lat="55.7279500" lon="49.2313179"><time>2025-03-02T11:16:31.400</time></trkpt><trkpt lat="55.7279020" lon="49.2313546"><time>2025-03-02T11:16:38.397</time></trkpt><trkpt lat="55.7278453" lon="49.2313541"><time>2025-03-02T11:16:41.320</time></trkpt><trkpt lat="55.7277835" lon="49.2313633"><time>2025-03-02T11:16:44.390</time></trkpt><trkpt lat="55.7277362" lon="49.2313579"><time>2025-03-02T11:16:46.270</time></trkpt><trkpt lat="55.7276747" lon="49.2313465"><time>2025-03-02T11:16:49.273</time></trkpt><trkpt lat="55.7276107" lon="49.2313199"><time>2025-03-02T11:16:52.390</time></trkpt><trkpt lat="55.7275592" lon="49.2312973"><time>2025-03-02T11:16:55.390</time></trkpt><trkpt lat="55.7275062" lon="49.2313072"><time>2025-03-02T11:16:58.387</time></trkpt><trkpt lat="55.7274520" lon="49.2313174"><time>2025-03-02T11:17:01.400</time></trkpt><trkpt lat="55.7273852" lon="49.2313290"><time>2025-03-02T11:17:04.387</time></trkpt><trkpt lat="55.7273247" lon="49.2313317"><time>2025-03-02T11:17:07.360</time></trkpt><trkpt lat="55.7272654" lon="49.2313224"><time>2025-03-02T11:17:10.267</time></trkpt><trkpt lat="55.7272126" lon="49.2312987"><time>2025-03-02T11:17:13.270</time></trkpt><trkpt lat="55.7271629" lon="49.2312889"><time>2025-03-02T11:17:15.357</time></trkpt><trkpt lat="55.7271169" lon="49.2312901"><time>2025-03-02T11:17:18.370</time></trkpt><trkpt lat="55.7270664" lon="49.2312666"><time>2025-03-02T11:17:22.367</time></trkpt><trkpt lat="55.7270194" lon="49.2312721"><time>2025-03-02T11:17:27.390</time></trkpt><trkpt lat="55.7269936" lon="49.2311884"><time>2025-03-02T11:17:35.387</time></trkpt><trkpt lat="55.7269686" lon="49.2311207"><time>2025-03-02T11:17:42.310</time></trkpt><trkpt lat="55.7269329" lon="49.2310553"><time>2025-03-02T11:17:49.317</time></trkpt><trkpt lat="55.7269163" lon="49.2310157"><time>2025-03-02T11:17:55.250</time></trkpt><trkpt lat="55.7269091" lon="49.2309874"><time>2025-03-02T11:18:05.270</time></trkpt><trkpt lat="55.7269304" lon="49.2310646"><time>2025-03-02T11:18:12.270</time></trkpt><trkpt lat="55.7269707" lon="49.2311273"><time>2025-03-02T11:18:15.267</time></trkpt><trkpt lat="55.7269969" lon="49.2311954"><time>2025-03-02T11:18:23.280</time></trkpt><trkpt lat="55.7270174" lon="49.2312670"><time>2025-03-02T11:18:31.260</time></trkpt><trkpt lat="55.7270663" lon="49.2312996"><time>2025-03-02T11:19:49.397</time></trkpt><trkpt lat="55.7271144" lon="49.2312923"><time>2025-03-02T11:19:52.357</time></trkpt><trkpt lat="55.7271682" lon="49.2313400"><time>2025-03-02T11:20:12.390</time></trkpt><trkpt lat="55.7272139" lon="49.2313516"><time>2025-03-02T11:20:15.397</time></trkpt><trkpt lat="55.7272629" lon="49.2313463"><time>2025-03-02T11:20:19.407</time></trkpt><trkpt lat="55.7273151" lon="49.2313624"><time>2025-03-02T11:20:24.367</time></trkpt><trkpt lat="55.7273603" lon="49.2313628"><time>2025-03-02T11:20:27.403</time></trkpt><trkpt lat="55.7274082" lon="49.2313634"><time>2025-03-02T11:20:30.367</time></trkpt><trkpt lat="55.7274634" lon="49.2313540"><time>2025-03-02T11:20:33.393</time></trkpt><trkpt lat="55.7275200" lon="49.2313386"><time>2025-03-02T11:20:37.397</time></trkpt><trkpt lat="55.7275782" lon="49.2313343"><time>2025-03-02T11:20:40.397</time></trkpt><trkpt lat="55.7276307" lon="49.2313384"><time>2025-03-02T11:20:43.270</time></trkpt><trkpt lat="55.7276923" lon="49.2313480"><time>2025-03-02T11:20:46.270</time></trkpt><trkpt lat="55.7277414" lon="49.2313546"><time>2025-03-02T11:20:49.380</time></trkpt><trkpt lat="55.7277997" lon="49.2313491"><time>2025-03-02T11:20:52.397</time></trkpt><trkpt lat="55.7278551" lon="49.2313405"><time>2025-03-02T11:20:55.380</time></trkpt><trkpt lat="55.7279056" lon="49.2313236"><time>2025-03-02T11:20:58.397</time></trkpt><trkpt lat="55.7279482" lon="49.2312942"><time>2025-03-02T11:21:06.400</time></trkpt><trkpt lat="55.7279603" lon="49.2312137"><time>2025-03-02T11:21:12.400</time></trkpt><trkpt lat="55.7279415" lon="49.2311395"><time>2025-03-02T11:21:22.263</time></trkpt><trkpt lat="55.7279221" lon="49.2310491"><time>2025-03-02T11:21:27.367</time></trkpt><trkpt lat="55.7278862" lon="49.2309963"><time>2025-03-02T11:21:35.373</time></trkpt><trkpt lat="55.7278627" lon="49.2309045"><time>2025-03-02T11:21:42.273</time></trkpt><trkpt lat="55.7278540" lon="49.2307936"><time>2025-03-02T11:21:45.360</time></trkpt><trkpt lat="55.7278446" lon="49.2307078"><time>2025-03-02T11:21:48.317</time></trkpt><trkpt lat="55.7278413" lon="49.2306253"><time>2025-03-02T11:21:51.363</time></trkpt><trkpt lat="55.7278383" lon="49.2305072"><time>2025-03-02T11:21:54.373</time></trkpt><trkpt lat="55.7278373" lon="49.2304176"><time>2025-03-02T11:21:58.360</time></trkpt><trkpt lat="55.7278260" lon="49.2303336"><time>2025-03-02T11:22:00.393</time></trkpt><trkpt lat="55.7278085" lon="49.2302362"><time>2025-03-02T11:22:02.373</time></trkpt><trkpt lat="55.7277938" lon="49.2301395"><time>2025-03-02T11:22:04.383</time></trkpt><trkpt lat="55.7277699" lon="49.2300371"><time>2025-03-02T11:22:06.383</time></trkpt><trkpt lat="55.7277496" lon="49.2299403"><time>2025-03-02T11:22:08.370</time></trkpt><trkpt lat="55.7277190" lon="49.2298333"><time>2025-03-02T11:22:11.357</time></trkpt><trkpt lat="55.7277070" lon="49.2297116"><time>2025-03-02T11:22:13.363</time></trkpt><trkpt lat="55.7276914" lon="49.2296096"><time>2025-03-02T11:22:15.367</time></trkpt><trkpt lat="55.7276781" lon="49.2295306"><time>2025-03-02T11:22:17.363</time></trkpt><trkpt lat="55.7276750" lon="49.2294344"><time>2025-03-02T11:22:20.363</time></trkpt><trkpt lat="55.7276660" lon="49.2293509"><time>2025-03-02T11:22:22.363</time></trkpt><trkpt lat="55.7276484" lon="49.2292542"><time>2025-03-02T11:22:25.363</time></trkpt><trkpt lat="55.7276324" lon="49.2291488"><time>2025-03-02T11:22:28.373</time></trkpt><trkpt lat="55.7276172" lon="49.2290661"><time>2025-03-02T11:22:30.277</time></trkpt><trkpt lat="55.7276022" lon="49.2289580"><time>2025-03-02T11:22:32.260</time></trkpt><trkpt lat="55.7275947" lon="49.2288643"><time>2025-03-02T11:22:34.267</time></trkpt><trkpt lat="55.7275838" lon="49.2287462"><time>2025-03-02T11:22:37.270</time></trkpt><trkpt lat="55.7275673" lon="49.2286410"><time>2025-03-02T11:22:39.263</time></trkpt><trkpt lat="55.7275517" lon="49.2285358"><time>2025-03-02T11:22:41.270</time></trkpt><trkpt lat="55.7275342" lon="49.2284398"><time>2025-03-02T11:22:43.270</time></trkpt><trkpt lat="55.7275245" lon="49.2283474"><time>2025-03-02T11:22:45.267</time></trkpt><trkpt lat="55.7275150" lon="49.2282511"><time>2025-03-02T11:22:47.270</time></trkpt><trkpt lat="55.7275033" lon="49.2281607"><time>2025-03-02T11:22:49.270</time></trkpt><trkpt lat="55.7274784" lon="49.2280521"><time>2025-03-02T11:22:52.277</time></trkpt><trkpt lat="55.7274620" lon="49.2279728"><time>2025-03-02T11:22:54.267</time></trkpt><trkpt lat="55.7274463" lon="49.2278973"><time>2025-03-02T11:22:56.270</time></trkpt><trkpt lat="55.7274293" lon="49.2278197"><time>2025-03-02T11:23:00.267</time></trkpt><trkpt lat="55.7274143" lon="49.2277230"><time>2025-03-02T11:23:06.277</time></trkpt><trkpt lat="55.7273875" lon="49.2276355"><time>2025-03-02T11:23:10.270</time></trkpt><trkpt lat="55.7273820" lon="49.2275517"><time>2025-03-02T11:23:13.267</time></trkpt><trkpt lat="55.7273829" lon="49.2274541"><time>2025-03-02T11:23:16.273</time></trkpt><trkpt lat="55.7273877" lon="49.2273732"><time>2025-03-02T11:23:19.267</time></trkpt><trkpt lat="55.7273693" lon="49.2272950"><time>2025-03-02T11:23:21.267</time></trkpt><trkpt lat="55.7273442" lon="49.2271939"><time>2025-03-02T11:23:25.277</time></trkpt><trkpt lat="55.7273308" lon="49.2270992"><time>2025-03-02T11:23:28.270</time></trkpt><trkpt lat="55.7273197" lon="49.2270133"><time>2025-03-02T11:23:31.267</time></trkpt><trkpt lat="55.7273072" lon="49.2269158"><time>2025-03-02T11:23:33.277</time></trkpt><trkpt lat="55.7272893" lon="49.2268122"><time>2025-03-02T11:23:36.357</time></trkpt><trkpt lat="55.7272800" lon="49.2267317"><time>2025-03-02T11:23:38.273</time></trkpt><trkpt lat="55.7272591" lon="49.2266027"><time>2025-03-02T11:23:40.267</time></trkpt><trkpt lat="55.7272395" lon="49.2265142"><time>2025-03-02T11:23:42.377</time></trkpt><trkpt lat="55.7272250" lon="49.2264377"><time>2025-03-02T11:23:44.387</time></trkpt><trkpt lat="55.7272087" lon="49.2263543"><time>2025-03-02T11:23:46.387</time></trkpt><trkpt lat="55.7271999" lon="49.2262707"><time>2025-03-02T11:23:48.393</time></trkpt><trkpt lat="55.7271883" lon="49.2261932"><time>2025-03-02T11:23:51.377</time></trkpt><trkpt lat="55.7271723" lon="49.2260900"><time>2025-03-02T11:23:53.277</time></trkpt><trkpt lat="55.7271517" lon="49.2259794"><time>2025-03-02T11:23:55.270</time></trkpt><trkpt lat="55.7271223" lon="49.2258742"><time>2025-03-02T11:23:57.370</time></trkpt><trkpt lat="55.7271024" lon="49.2257810"><time>2025-03-02T11:23:59.263</time></trkpt><trkpt lat="55.7270850" lon="49.2256809"><time>2025-03-02T11:24:01.530</time></trkpt><trkpt lat="55.7270603" lon="49.2255708"><time>2025-03-02T11:24:04.270</time></trkpt><trkpt lat="55.7270470" lon="49.2254925"><time>2025-03-02T11:24:06.397</time></trkpt><trkpt lat="55.7270284" lon="49.2254048"><time>2025-03-02T11:24:09.283</time></trkpt><trkpt lat="55.7270120" lon="49.2253249"><time>2025-03-02T11:24:11.597</time></trkpt><trkpt lat="55.7269968" lon="49.2252387"><time>2025-03-02T11:24:13.737</time></trkpt><trkpt lat="55.7269877" lon="49.2251497"><time>2025-03-02T11:24:15.330</time></trkpt><trkpt lat="55.7269730" lon="49.2250731"><time>2025-03-02T11:24:18.380</time></trkpt><trkpt lat="55.7269646" lon="49.2249865"><time>2025-03-02T11:24:21.380</time></trkpt><trkpt lat="55.7269460" lon="49.2248945"><time>2025-03-02T11:24:24.297</time></trkpt><trkpt lat="55.7269292" lon="49.2247993"><time>2025-03-02T11:24:27.270</time></trkpt><trkpt lat="55.7269251" lon="49.2246965"><time>2025-03-02T11:24:30.383</time></trkpt><trkpt lat="55.7269270" lon="49.2245892"><time>2025-03-02T11:24:33.277</time></trkpt><trkpt lat="55.7269149" lon="49.2245028"><time>2025-03-02T11:24:35.383</time></trkpt><trkpt lat="55.7268955" lon="49.2244242"><time>2025-03-02T11:24:37.357</time></trkpt><trkpt lat="55.7268704" lon="49.2243151"><time>2025-03-02T11:24:40.270</time></trkpt><trkpt lat="55.7268548" lon="49.2242069"><time>2025-03-02T11:24:43.283</time></trkpt><trkpt lat="55.7268425" lon="49.2241128"><time>2025-03-02T11:24:45.277</time></trkpt><trkpt lat="55.7268313" lon="49.2240256"><time>2025-03-02T11:24:47.273</time></trkpt><trkpt lat="55.7268190" lon="49.2239299"><time>2025-03-02T11:24:49.267</time></trkpt><trkpt lat="55.7268052" lon="49.2238260"><time>2025-03-02T11:24:51.277</time></trkpt><trkpt lat="55.7267988" lon="49.2237306"><time>2025-03-02T11:24:53.283</time></trkpt><trkpt lat="55.7267864" lon="49.2236258"><time>2025-03-02T11:24:55.277</time></trkpt><trkpt lat="55.7267685" lon="49.2235185"><time>2025-03-02T11:24:58.270</time></trkpt><trkpt lat="55.7267554" lon="49.2234303"><time>2025-03-02T11:25:00.277</time></trkpt><trkpt lat="55.7267429" lon="49.2233518"><time>2025-03-02T11:25:02.270</time></trkpt><trkpt lat="55.7267314" lon="49.2232708"><time>2025-03-02T11:25:04.267</time></trkpt><trkpt lat="55.7267216" lon="49.2231697"><time>2025-03-02T11:25:07.393</time></trkpt><trkpt lat="55.7267161" lon="49.2230818"><time>2025-03-02T11:25:09.360</time></trkpt><trkpt lat="55.7267084" lon="49.2229894"><time>2025-03-02T11:25:11.393</time></trkpt><trkpt lat="55.7266887" lon="49.2228850"><time>2025-03-02T11:25:14.373</time></trkpt><trkpt lat="55.7266689" lon="49.2227805"><time>2025-03-02T11:25:18.367</time></trkpt><trkpt lat="55.7266533" lon="49.2226694"><time>2025-03-02T11:25:21.367</time></trkpt><trkpt lat="55.7266416" lon="49.2225760"><time>2025-03-02T11:25:23.393</time></trkpt><trkpt lat="55.7266303" lon="49.2224728"><time>2025-03-02T11:25:26.373</time></trkpt><trkpt lat="55.7266170" lon="49.2223526"><time>2025-03-02T11:25:29.367</time></trkpt><trkpt lat="55.7265955" lon="49.2222489"><time>2025-03-02T11:25:31.380</time></trkpt><trkpt lat="55.7265667" lon="49.2221612"><time>2025-03-02T11:25:33.393</time></trkpt><trkpt lat="55.7265393" lon="49.2220515"><time>2025-03-02T11:25:35.273</time></trkpt><trkpt lat="55.7265360" lon="49.2219578"><time>2025-03-02T11:25:37.377</time></trkpt><trkpt lat="55.7265237" lon="49.2218590"><time>2025-03-02T11:25:39.273</time></trkpt><trkpt lat="55.7265088" lon="49.2217761"><time>2025-03-02T11:25:41.367</time></trkpt><trkpt lat="55.7264859" lon="49.2216981"><time>2025-03-02T11:25:45.320</time></trkpt><trkpt lat="55.7264622" lon="49.2216297"><time>2025-03-02T11:25:53.357</time></trkpt><trkpt lat="55.7265034" lon="49.2215975"><time>2025-03-02T11:27:20.363</time></trkpt><trkpt lat="55.7265411" lon="49.2215401"><time>2025-03-02T11:27:26.400</time></trkpt><trkpt lat="55.7265845" lon="49.2214772"><time>2025-03-02T11:27:30.380</time></trkpt><trkpt lat="55.7266232" lon="49.2214114"><time>2025-03-02T11:27:34.377</time></trkpt><trkpt lat="55.7266529" lon="49.2213428"><time>2025-03-02T11:27:36.393</time></trkpt><trkpt lat="55.7267040" lon="49.2213073"><time>2025-03-02T11:27:42.360</time></trkpt><trkpt lat="55.7267594" lon="49.2213040"><time>2025-03-02T11:27:46.363</time></trkpt><trkpt lat="55.7268223" lon="49.2213139"><time>2025-03-02T11:27:50.397</time></trkpt><trkpt lat="55.7268778" lon="49.2213145"><time>2025-03-02T11:27:54.393</time></trkpt><trkpt lat="55.7269321" lon="49.2213156"><time>2025-03-02T11:27:58.370</time></trkpt><trkpt lat="55.7269838" lon="49.2213067"><time>2025-03-02T11:28:02.373</time></trkpt><trkpt lat="55.7270328" lon="49.2213114"><time>2025-03-02T11:28:07.387</time></trkpt><trkpt lat="55.7270824" lon="49.2213002"><time>2025-03-02T11:28:12.360</time></trkpt><trkpt lat="55.7271337" lon="49.2212593"><time>2025-03-02T11:28:16.397</time></trkpt><trkpt lat="55.7271843" lon="49.2212641"><time>2025-03-02T11:28:21.387</time></trkpt><trkpt lat="55.7272381" lon="49.2212511"><time>2025-03-02T11:28:26.393</time></trkpt><trkpt lat="55.7272812" lon="49.2212286"><time>2025-03-02T11:28:30.393</time></trkpt><trkpt lat="55.7272978" lon="49.2212410"><time>2025-03-02T11:28:46.213</time></trkpt><trkpt lat="55.7273268" lon="49.2212042"><time>2025-03-02T11:28:54.277</time></trkpt><trkpt lat="55.7272872" lon="49.2211298"><time>2025-03-02T11:29:24.270</time></trkpt><trkpt lat="55.7273133" lon="49.2210629"><time>2025-03-02T11:29:51.260</time></trkpt><trkpt lat="55.7273661" lon="49.2210824"><time>2025-03-02T11:30:00.370</time></trkpt><trkpt lat="55.7274190" lon="49.2210775"><time>2025-03-02T11:30:04.367</time></trkpt><trkpt lat="55.7274611" lon="49.2210363"><time>2025-03-02T11:30:08.367</time></trkpt><trkpt lat="55.7274932" lon="49.2209751"><time>2025-03-02T11:30:14.380</time></trkpt><trkpt lat="55.7275184" lon="49.2209090"><time>2025-03-02T11:30:24.393</time></trkpt><trkpt lat="55.7275146" lon="49.2208263"><time>2025-03-02T11:30:40.383</time></trkpt><trkpt lat="55.7274924" lon="49.2207482"><time>2025-03-02T11:30:43.263</time></trkpt><trkpt lat="55.7274947" lon="49.2206628"><time>2025-03-02T11:30:50.277</time></trkpt><trkpt lat="55.7275359" lon="49.2206097"><time>2025-03-02T11:31:00.387</time></trkpt><trkpt lat="55.7275753" lon="49.2205661"><time>2025-03-02T11:31:09.407</time></trkpt><trkpt lat="55.7276028" lon="49.2204894"><time>2025-03-02T11:31:20.267</time></trkpt><trkpt lat="55.7276152" lon="49.2204129"><time>2025-03-02T11:31:23.270</time></trkpt><trkpt lat="55.7276317" lon="49.2203129"><time>2025-03-02T11:31:28.283</time></trkpt><trkpt lat="55.7276450" lon="49.2202224"><time>2025-03-02T11:31:31.280</time></trkpt><trkpt lat="55.7276657" lon="49.2201143"><time>2025-03-02T11:31:34.277</time></trkpt><trkpt lat="55.7276913" lon="49.2200473"><time>2025-03-02T11:31:38.277</time></trkpt><trkpt lat="55.7277286" lon="49.2199758"><time>2025-03-02T11:31:43.270</time></trkpt><trkpt lat="55.7277472" lon="49.2198891"><time>2025-03-02T11:31:47.283</time></trkpt><trkpt lat="55.7277377" lon="49.2197985"><time>2025-03-02T11:31:58.273</time></trkpt><trkpt lat="55.7277161" lon="49.2197250"><time>2025-03-02T11:32:11.263</time></trkpt><trkpt lat="55.7277514" lon="49.2196651"><time>2025-03-02T11:32:18.277</time></trkpt><trkpt lat="55.7277794" lon="49.2195941"><time>2025-03-02T11:32:21.280</time></trkpt><trkpt lat="55.7278070" lon="49.2195178"><time>2025-03-02T11:32:26.277</time></trkpt><trkpt lat="55.7278350" lon="49.2194445"><time>2025-03-02T11:32:31.283</time></trkpt><trkpt lat="55.7278304" lon="49.2193581"><time>2025-03-02T11:32:35.270</time></trkpt><trkpt lat="55.7278300" lon="49.2192777"><time>2025-03-02T11:32:38.280</time></trkpt><trkpt lat="55.7278269" lon="49.2191769"><time>2025-03-02T11:32:40.270</time></trkpt><trkpt lat="55.7278363" lon="49.2190914"><time>2025-03-02T11:32:47.273</time></trkpt><trkpt lat="55.7278578" lon="49.2190211"><time>2025-03-02T11:32:54.283</time></trkpt><trkpt lat="55.7278771" lon="49.2189352"><time>2025-03-02T11:33:02.270</time></trkpt><trkpt lat="55.7279100" lon="49.2188613"><time>2025-03-02T11:33:06.277</time></trkpt><trkpt lat="55.7279343" lon="49.2187803"><time>2025-03-02T11:33:13.270</time></trkpt><trkpt lat="55.7279346" lon="49.2186993"><time>2025-03-02T11:33:16.270</time></trkpt><trkpt lat="55.7279365" lon="49.2186196"><time>2025-03-02T11:33:18.283</time></trkpt><trkpt lat="55.7279453" lon="49.2185390"><time>2025-03-02T11:33:23.277</time></trkpt><trkpt lat="55.7279568" lon="49.2184607"><time>2025-03-02T11:33:32.270</time></trkpt><trkpt lat="55.7279533" lon="49.2183792"><time>2025-03-02T11:33:38.263</time></trkpt><trkpt lat="55.7279895" lon="49.2183242"><time>2025-03-02T11:33:44.263</time></trkpt><trkpt lat="55.7280202" lon="49.2182570"><time>2025-03-02T11:33:58.270</time></trkpt><trkpt lat="55.7280461" lon="49.2181889"><time>2025-03-02T11:34:07.277</time></trkpt><trkpt lat="55.7280899" lon="49.2181701"><time>2025-03-02T11:34:47.273</time></trkpt><trkpt lat="55.7281351" lon="49.2181715"><time>2025-03-02T11:35:25.280</time></trkpt><trkpt lat="55.7281470" lon="49.2180899"><time>2025-03-02T11:35:41.273</time></trkpt><trkpt lat="55.7281681" lon="49.2180130"><time>2025-03-02T11:35:53.277</time></trkpt><trkpt lat="55.7282036" lon="49.2179593"><time>2025-03-02T11:36:01.273</time></trkpt><trkpt lat="55.7282464" lon="49.2178917"><time>2025-03-02T11:36:06.270</time></trkpt><trkpt lat="55.7282473" lon="49.2177984"><time>2025-03-02T11:36:10.267</time></trkpt><trkpt lat="55.7282343" lon="49.2177193"><time>2025-03-02T11:36:26.273</time></trkpt><trkpt lat="55.7282366" lon="49.2176389"><time>2025-03-02T11:36:33.270</time></trkpt><trkpt lat="55.7282495" lon="49.2175614"><time>2025-03-02T11:36:50.267</time></trkpt><trkpt lat="55.7282922" lon="49.2174964"><time>2025-03-02T11:37:02.270</time></trkpt><trkpt lat="55.7283282" lon="49.2174399"><time>2025-03-02T11:37:08.267</time></trkpt><trkpt lat="55.7283522" lon="49.2173560"><time>2025-03-02T11:37:14.267</time></trkpt><trkpt lat="55.7283919" lon="49.2173174"><time>2025-03-02T11:37:18.400</time></trkpt><trkpt lat="55.7284369" lon="49.2172987"><time>2025-03-02T11:37:25.260</time></trkpt><trkpt lat="55.7284562" lon="49.2172259"><time>2025-03-02T11:37:32.273</time></trkpt><trkpt lat="55.7284802" lon="49.2171366"><time>2025-03-02T11:37:36.280</time></trkpt><trkpt lat="55.7285287" lon="49.2171025"><time>2025-03-02T11:37:49.287</time></trkpt><trkpt lat="55.7285725" lon="49.2170641"><time>2025-03-02T11:37:55.277</time></trkpt><trkpt lat="55.7286093" lon="49.2170433"><time>2025-03-02T11:38:05.630</time></trkpt><trkpt lat="55.7285295" lon="49.2170937"><time>2025-03-02T11:38:23.283</time></trkpt><trkpt lat="55.7284927" lon="49.2171521"><time>2025-03-02T11:38:42.280</time></trkpt><trkpt lat="55.7284570" lon="49.2172160"><time>2025-03-02T11:38:48.277</time></trkpt><trkpt lat="55.7284221" lon="49.2172693"><time>2025-03-02T11:39:07.287</time></trkpt><trkpt lat="55.7283926" lon="49.2173394"><time>2025-03-02T11:39:14.273</time></trkpt><trkpt lat="55.7283465" lon="49.2173518"><time>2025-03-02T11:39:28.373</time></trkpt><trkpt lat="55.7282926" lon="49.2174254"><time>2025-03-02T11:39:33.370</time></trkpt><trkpt lat="55.7282571" lon="49.2174908"><time>2025-03-02T11:39:36.370</time></trkpt><trkpt lat="55.7282236" lon="49.2175542"><time>2025-03-02T11:39:40.393</time></trkpt><trkpt lat="55.7282135" lon="49.2176396"><time>2025-03-02T11:39:49.393</time></trkpt><trkpt lat="55.7282020" lon="49.2177285"><time>2025-03-02T11:39:54.400</time></trkpt><trkpt lat="55.7281954" lon="49.2178162"><time>2025-03-02T11:40:00.390</time></trkpt><trkpt lat="55.7281762" lon="49.2178919"><time>2025-03-02T11:40:09.390</time></trkpt><trkpt lat="55.7281425" lon="49.2179491"><time>2025-03-02T11:40:18.370</time></trkpt><trkpt lat="55.7281203" lon="49.2180399"><time>2025-03-02T11:40:32.267</time></trkpt><trkpt lat="55.7280979" lon="49.2181195"><time>2025-03-02T11:40:38.273</time></trkpt><trkpt lat="55.7281243" lon="49.2182064"><time>2025-03-02T11:41:25.270</time></trkpt><trkpt lat="55.7281857" lon="49.2182364"><time>2025-03-02T11:41:27.283</time></trkpt><trkpt lat="55.7282480" lon="49.2182621"><time>2025-03-02T11:41:30.273</time></trkpt><trkpt lat="55.7283023" lon="49.2182907"><time>2025-03-02T11:41:33.273</time></trkpt><trkpt lat="55.7283498" lon="49.2183148"><time>2025-03-02T11:41:37.270</time></trkpt><trkpt lat="55.7283969" lon="49.2183194"><time>2025-03-02T11:41:40.273</time></trkpt><trkpt lat="55.7284442" lon="49.2183281"><time>2025-03-02T11:41:43.273</time></trkpt><trkpt lat="55.7284906" lon="49.2183472"><time>2025-03-02T11:41:46.270</time></trkpt><trkpt lat="55.7285446" lon="49.2183608"><time>2025-03-02T11:41:50.273</time></trkpt><trkpt lat="55.7285953" lon="49.2183845"><time>2025-03-02T11:41:54.277</time></trkpt><trkpt lat="55.7286437" lon="49.2184246"><time>2025-03-02T11:41:58.273</time></trkpt><trkpt lat="55.7286923" lon="49.2184544"><time>2025-03-02T11:42:01.283</time></trkpt><trkpt lat="55.7287570" lon="49.2184525"><time>2025-03-02T11:42:04.273</time></trkpt><trkpt lat="55.7288044" lon="49.2184355"><time>2025-03-02T11:42:06.273</time></trkpt><trkpt lat="55.7288605" lon="49.2184468"><time>2025-03-02T11:42:09.273</time></trkpt><trkpt lat="55.7289140" lon="49.2184712"><time>2025-03-02T11:42:12.280</time></trkpt><trkpt lat="55.7289779" lon="49.2185086"><time>2025-03-02T11:42:15.283</time></trkpt><trkpt lat="55.7290391" lon="49.2185390"><time>2025-03-02T11:42:17.273</time></trkpt><trkpt lat="55.7291025" lon="49.2185591"><time>2025-03-02T11:42:19.273</time></trkpt><trkpt lat="55.7291493" lon="49.2185687"><time>2025-03-02T11:42:20.267</time></trkpt><trkpt lat="55.7292016" lon="49.2185819"><time>2025-03-02T11:42:21.277</time></trkpt><trkpt lat="55.7292476" lon="49.2185971"><time>2025-03-02T11:42:22.273</time></trkpt><trkpt lat="55.7293002" lon="49.2186155"><time>2025-03-02T11:42:24.280</time></trkpt><trkpt lat="55.7293579" lon="49.2186535"><time>2025-03-02T11:42:27.287</time></trkpt><trkpt lat="55.7294130" lon="49.2186780"><time>2025-03-02T11:42:29.270</time></trkpt><trkpt lat="55.7294731" lon="49.2186779"><time>2025-03-02T11:42:32.270</time></trkpt><trkpt lat="55.7295281" lon="49.2186611"><time>2025-03-02T11:42:35.393</time></trkpt><trkpt lat="55.7295746" lon="49.2186704"><time>2025-03-02T11:42:38.397</time></trkpt><trkpt lat="55.7296203" lon="49.2187038"><time>2025-03-02T11:42:40.410</time></trkpt><trkpt lat="55.7296799" lon="49.2187249"><time>2025-03-02T11:42:42.393</time></trkpt><trkpt lat="55.7297325" lon="49.2187363"><time>2025-03-02T11:42:44.277</time></trkpt><trkpt lat="55.7297802" lon="49.2187590"><time>2025-03-02T11:42:46.377</time></trkpt><trkpt lat="55.7298337" lon="49.2188003"><time>2025-03-02T11:42:49.407</time></trkpt><trkpt lat="55.7298783" lon="49.2187909"><time>2025-03-02T11:42:51.363</time></trkpt><trkpt lat="55.7299397" lon="49.2188029"><time>2025-03-02T11:42:53.397</time></trkpt><trkpt lat="55.7299934" lon="49.2188121"><time>2025-03-02T11:42:55.280</time></trkpt><trkpt lat="55.7300486" lon="49.2188186"><time>2025-03-02T11:42:57.377</time></trkpt><trkpt lat="55.7301017" lon="49.2188294"><time>2025-03-02T11:42:59.377</time></trkpt><trkpt lat="55.7301454" lon="49.2188838"><time>2025-03-02T11:43:02.377</time></trkpt><trkpt lat="55.7301980" lon="49.2189103"><time>2025-03-02T11:43:06.373</time></trkpt><trkpt lat="55.7302694" lon="49.2189294"><time>2025-03-02T11:43:09.390</time></trkpt><trkpt lat="55.7303225" lon="49.2189434"><time>2025-03-02T11:43:11.393</time></trkpt><trkpt lat="55.7303779" lon="49.2189670"><time>2025-03-02T11:43:13.377</time></trkpt><trkpt lat="55.7304245" lon="49.2189929"><time>2025-03-02T11:43:15.410</time></trkpt><trkpt lat="55.7304791" lon="49.2190118"><time>2025-03-02T11:43:19.373</time></trkpt><trkpt lat="55.7305361" lon="49.2190175"><time>2025-03-02T11:43:21.290</time></trkpt><trkpt lat="55.7306040" lon="49.2190360"><time>2025-03-02T11:43:24.367</time></trkpt><trkpt lat="55.7306475" lon="49.2190597"><time>2025-03-02T11:43:26.397</time></trkpt><trkpt lat="55.7306993" lon="49.2190821"><time>2025-03-02T11:43:29.397</time></trkpt><trkpt lat="55.7307580" lon="49.2190834"><time>2025-03-02T11:43:32.430</time></trkpt><trkpt lat="55.7308137" lon="49.2190830"><time>2025-03-02T11:43:34.337</time></trkpt><trkpt lat="55.7308633" lon="49.2190745"><time>2025-03-02T11:43:36.360</time></trkpt><trkpt lat="55.7309125" lon="49.2190741"><time>2025-03-02T11:43:38.397</time></trkpt><trkpt lat="55.7309654" lon="49.2190605"><time>2025-03-02T11:43:41.393</time></trkpt><trkpt lat="55.7310225" lon="49.2190630"><time>2025-03-02T11:43:44.397</time></trkpt><trkpt lat="55.7310592" lon="49.2191304"><time>2025-03-02T11:43:46.377</time></trkpt><trkpt lat="55.7311008" lon="49.2191775"><time>2025-03-02T11:43:49.407</time></trkpt><trkpt lat="55.7311676" lon="49.2191775"><time>2025-03-02T11:43:52.407</time></trkpt><trkpt lat="55.7312243" lon="49.2191774"><time>2025-03-02T11:43:54.373</time></trkpt><trkpt lat="55.7312728" lon="49.2191840"><time>2025-03-02T11:43:56.430</time></trkpt><trkpt lat="55.7313430" lon="49.2191987"><time>2025-03-02T11:43:59.280</time></trkpt><trkpt lat="55.7313885" lon="49.2192199"><time>2025-03-02T11:44:01.283</time></trkpt><trkpt lat="55.7314448" lon="49.2192506"><time>2025-03-02T11:44:04.417</time></trkpt><trkpt lat="55.7315093" lon="49.2192662"><time>2025-03-02T11:44:07.370</time></trkpt><trkpt lat="55.7315485" lon="49.2193248"><time>2025-03-02T11:44:11.400</time></trkpt><trkpt lat="55.7315815" lon="49.2193847"><time>2025-03-02T11:44:26.373</time></trkpt><trkpt lat="55.7315635" lon="49.2193056"><time>2025-03-02T11:45:07.377</time></trkpt><trkpt lat="55.7315212" lon="49.2192740"><time>2025-03-02T11:45:37.397</time></trkpt><trkpt lat="55.7314735" lon="49.2192203"><time>2025-03-02T11:45:42.290</time></trkpt><trkpt lat="55.7314219" lon="49.2191864"><time>2025-03-02T11:45:46.400</time></trkpt><trkpt lat="55.7313641" lon="49.2191673"><time>2025-03-02T11:45:50.397</time></trkpt><trkpt lat="55.7313110" lon="49.2191563"><time>2025-03-02T11:45:52.407</time></trkpt><trkpt lat="55.7312676" lon="49.2191347"><time>2025-03-02T11:45:54.387</time></trkpt><trkpt lat="55.7312042" lon="49.2191260"><time>2025-03-02T11:45:58.387</time></trkpt><trkpt lat="55.7311611" lon="49.2191023"><time>2025-03-02T11:46:01.373</time></trkpt><trkpt lat="55.7311005" lon="49.2190724"><time>2025-03-02T11:46:03.397</time></trkpt><trkpt lat="55.7310501" lon="49.2190429"><time>2025-03-02T11:46:05.373</time></trkpt><trkpt lat="55.7309990" lon="49.2190506"><time>2025-03-02T11:46:08.403</time></trkpt><trkpt lat="55.7309518" lon="49.2190337"><time>2025-03-02T11:46:10.417</time></trkpt><trkpt lat="55.7308772" lon="49.2189824"><time>2025-03-02T11:46:13.397</time></trkpt><trkpt lat="55.7308107" lon="49.2189547"><time>2025-03-02T11:46:15.383</time></trkpt><trkpt lat="55.7307523" lon="49.2189618"><time>2025-03-02T11:46:19.377</time></trkpt><trkpt lat="55.7306919" lon="49.2189587"><time>2025-03-02T11:46:22.403</time></trkpt><trkpt lat="55.7306372" lon="49.2189371"><time>2025-03-02T11:46:24.370</time></trkpt><trkpt lat="55.7305654" lon="49.2189343"><time>2025-03-02T11:46:27.410</time></trkpt><trkpt lat="55.7305056" lon="49.2189011"><time>2025-03-02T11:46:30.393</time></trkpt><trkpt lat="55.7304381" lon="49.2188701"><time>2025-03-02T11:46:33.417</time></trkpt><trkpt lat="55.7303836" lon="49.2188386"><time>2025-03-02T11:46:35.403</time></trkpt><trkpt lat="55.7303336" lon="49.2188225"><time>2025-03-02T11:46:37.407</time></trkpt><trkpt lat="55.7302664" lon="49.2188248"><time>2025-03-02T11:46:41.377</time></trkpt><trkpt lat="55.7302214" lon="49.2187931"><time>2025-03-02T11:46:44.397</time></trkpt><trkpt lat="55.7301687" lon="49.2187922"><time>2025-03-02T11:46:46.413</time></trkpt><trkpt lat="55.7301118" lon="49.2187651"><time>2025-03-02T11:46:49.403</time></trkpt><trkpt lat="55.7300622" lon="49.2187358"><time>2025-03-02T11:46:51.413</time></trkpt><trkpt lat="55.7300125" lon="49.2187110"><time>2025-03-02T11:46:53.410</time></trkpt><trkpt lat="55.7299345" lon="49.2186544"><time>2025-03-02T11:46:55.380</time></trkpt><trkpt lat="55.7298692" lon="49.2186386"><time>2025-03-02T11:46:58.413</time></trkpt><trkpt lat="55.7298197" lon="49.2186164"><time>2025-03-02T11:47:00.413</time></trkpt><trkpt lat="55.7297694" lon="49.2185761"><time>2025-03-02T11:47:02.403</time></trkpt><trkpt lat="55.7297219" lon="49.2185754"><time>2025-03-02T11:47:04.377</time></trkpt><trkpt lat="55.7296636" lon="49.2185839"><time>2025-03-02T11:47:08.380</time></trkpt><trkpt lat="55.7296058" lon="49.2185830"><time>2025-03-02T11:47:10.397</time></trkpt><trkpt lat="55.7295492" lon="49.2185690"><time>2025-03-02T11:47:12.400</time></trkpt><trkpt lat="55.7295085" lon="49.2185271"><time>2025-03-02T11:47:14.383</time></trkpt><trkpt lat="55.7294526" lon="49.2185100"><time>2025-03-02T11:47:18.403</time></trkpt><trkpt lat="55.7294020" lon="49.2184984"><time>2025-03-02T11:47:23.273</time></trkpt><trkpt lat="55.7293529" lon="49.2184739"><time>2025-03-02T11:47:27.377</time></trkpt><trkpt lat="55.7292958" lon="49.2184990"><time>2025-03-02T11:47:30.390</time></trkpt><trkpt lat="55.7292306" lon="49.2184801"><time>2025-03-02T11:47:33.377</time></trkpt><trkpt lat="55.7291843" lon="49.2184519"><time>2025-03-02T11:47:36.407</time></trkpt><trkpt lat="55.7291278" lon="49.2184330"><time>2025-03-02T11:47:40.403</time></trkpt><trkpt lat="55.7290821" lon="49.2184194"><time>2025-03-02T11:47:43.413</time></trkpt><trkpt lat="55.7290262" lon="49.2184171"><time>2025-03-02T11:47:47.417</time></trkpt><trkpt lat="55.7289808" lon="49.2184304"><time>2025-03-02T11:47:51.393</time></trkpt><trkpt lat="55.7290347" lon="49.2184668"><time>2025-03-02T11:48:08.407</time></trkpt><trkpt lat="55.7290866" lon="49.2185068"><time>2025-03-02T11:48:12.410</time></trkpt><trkpt lat="55.7291419" lon="49.2185279"><time>2025-03-02T11:48:15.410</time></trkpt><trkpt lat="55.7291936" lon="49.2185633"><time>2025-03-02T11:48:18.400</time></trkpt><trkpt lat="55.7292425" lon="49.2185828"><time>2025-03-02T11:48:21.407</time></trkpt><trkpt lat="55.7292881" lon="49.2185734"><time>2025-03-02T11:48:23.410</time></trkpt><trkpt lat="55.7293330" lon="49.2185732"><time>2025-03-02T11:48:25.387</time></trkpt><trkpt lat="55.7293834" lon="49.2186113"><time>2025-03-02T11:48:27.410</time></trkpt><trkpt lat="55.7294388" lon="49.2186586"><time>2025-03-02T11:48:30.400</time></trkpt><trkpt lat="55.7294866" lon="49.2186798"><time>2025-03-02T11:48:33.407</time></trkpt><trkpt lat="55.7295406" lon="49.2186930"><time>2025-03-02T11:48:36.387</time></trkpt><trkpt lat="55.7295902" lon="49.2187089"><time>2025-03-02T11:48:38.400</time></trkpt><trkpt lat="55.7296567" lon="49.2187329"><time>2025-03-02T11:48:40.407</time></trkpt><trkpt lat="55.7297013" lon="49.2187510"><time>2025-03-02T11:48:42.413</time></trkpt><trkpt lat="55.7297521" lon="49.2187637"><time>2025-03-02T11:48:44.407</time></trkpt><trkpt lat="55.7298144" lon="49.2187605"><time>2025-03-02T11:48:48.410</time></trkpt><trkpt lat="55.7298657" lon="49.2188073"><time>2025-03-02T11:48:51.403</time></trkpt><trkpt lat="55.7299112" lon="49.2188349"><time>2025-03-02T11:48:53.400</time></trkpt><trkpt lat="55.7299613" lon="49.2188528"><time>2025-03-02T11:48:55.410</time></trkpt><trkpt lat="55.7300191" lon="49.2188793"><time>2025-03-02T11:48:58.377</time></trkpt><trkpt lat="55.7300755" lon="49.2189128"><time>2025-03-02T11:49:01.400</time></trkpt><trkpt lat="55.7301303" lon="49.2189194"><time>2025-03-02T11:49:03.407</time></trkpt><trkpt lat="55.7301929" lon="49.2189128"><time>2025-03-02T11:49:06.377</time></trkpt><trkpt lat="55.7302404" lon="49.2189169"><time>2025-03-02T11:49:08.397</time></trkpt><trkpt lat="55.7303009" lon="49.2189368"><time>2025-03-02T11:49:11.270</time></trkpt><trkpt lat="55.7303603" lon="49.2189622"><time>2025-03-02T11:49:14.400</time></trkpt><trkpt lat="55.7304134" lon="49.2189977"><time>2025-03-02T11:49:17.363</time></trkpt><trkpt lat="55.7304568" lon="49.2190249"><time>2025-03-02T11:49:20.407</time></trkpt><trkpt lat="55.7305093" lon="49.2190528"><time>2025-03-02T11:49:23.273</time></trkpt><trkpt lat="55.7305562" lon="49.2190677"><time>2025-03-02T11:49:25.273</time></trkpt><trkpt lat="55.7305980" lon="49.2191094"><time>2025-03-02T11:49:28.377</time></trkpt><trkpt lat="55.7306496" lon="49.2191137"><time>2025-03-02T11:49:30.373</time></trkpt><trkpt lat="55.7307059" lon="49.2191074"><time>2025-03-02T11:49:33.387</time></trkpt><trkpt lat="55.7307582" lon="49.2191049"><time>2025-03-02T11:49:35.367</time></trkpt><trkpt lat="55.7308253" lon="49.2191124"><time>2025-03-02T11:49:38.403</time></trkpt><trkpt lat="55.7308730" lon="49.2191269"><time>2025-03-02T11:49:40.380</time></trkpt><trkpt lat="55.7309307" lon="49.2191532"><time>2025-03-02T11:49:42.407</time></trkpt><trkpt lat="55.7310051" lon="49.2191705"><time>2025-03-02T11:49:45.387</time></trkpt><trkpt lat="55.7310533" lon="49.2191738"><time>2025-03-02T11:49:47.410</time></trkpt><trkpt lat="55.7311095" lon="49.2191757"><time>2025-03-02T11:49:49.400</time></trkpt><trkpt lat="55.7311674" lon="49.2191548"><time>2025-03-02T11:49:51.867</time></trkpt><trkpt lat="55.7312199" lon="49.2191953"><time>2025-03-02T11:49:54.373</time></trkpt><trkpt lat="55.7312723" lon="49.2192420"><time>2025-03-02T11:49:56.407</time></trkpt><trkpt lat="55.7313205" lon="49.2192607"><time>2025-03-02T11:49:58.390</time></trkpt><trkpt lat="55.7313724" lon="49.2192825"><time>2025-03-02T11:50:02.377</time></trkpt><trkpt lat="55.7314237" lon="49.2193104"><time>2025-03-02T11:50:05.390</time></trkpt><trkpt lat="55.7314673" lon="49.2193517"><time>2025-03-02T11:50:08.403</time></trkpt><trkpt lat="55.7315072" lon="49.2193993"><time>2025-03-02T11:50:20.287</time></trkpt><trkpt lat="55.7315488" lon="49.2194327"><time>2025-03-02T11:50:35.393</time></trkpt><trkpt lat="55.7315918" lon="49.2193842"><time>2025-03-02T11:50:50.417</time></trkpt><trkpt lat="55.7316425" lon="49.2193634"><time>2025-03-02T11:51:27.403</time></trkpt><trkpt lat="55.7316901" lon="49.2193749"><time>2025-03-02T11:51:33.413</time></trkpt><trkpt lat="55.7317457" lon="49.2193772"><time>2025-03-02T11:51:37.393</time></trkpt><trkpt lat="55.7318007" lon="49.2194216"><time>2025-03-02T11:51:40.403</time></trkpt><trkpt lat="55.7318578" lon="49.2194455"><time>2025-03-02T11:51:43.407</time></trkpt><trkpt lat="55.7319223" lon="49.2194515"><time>2025-03-02T11:51:47.377</time></trkpt><trkpt lat="55.7319656" lon="49.2194865"><time>2025-03-02T11:51:49.407</time></trkpt><trkpt lat="55.7320097" lon="49.2195142"><time>2025-03-02T11:51:52.417</time></trkpt><trkpt lat="55.7320496" lon="49.2195801"><time>2025-03-02T11:51:55.410</time></trkpt><trkpt lat="55.7320969" lon="49.2195811"><time>2025-03-02T11:51:58.397</time></trkpt><trkpt lat="55.7321455" lon="49.2196133"><time>2025-03-02T11:52:02.413</time></trkpt><trkpt lat="55.7321966" lon="49.2196317"><time>2025-03-02T11:52:06.400</time></trkpt><trkpt lat="55.7322426" lon="49.2196525"><time>2025-03-02T11:52:09.380</time></trkpt><trkpt lat="55.7322950" lon="49.2196945"><time>2025-03-02T11:52:12.383</time></trkpt><trkpt lat="55.7323288" lon="49.2197762"><time>2025-03-02T11:52:15.413</time></trkpt><trkpt lat="55.7323825" lon="49.2197961"><time>2025-03-02T11:52:17.377</time></trkpt><trkpt lat="55.7324429" lon="49.2197996"><time>2025-03-02T11:52:20.407</time></trkpt><trkpt lat="55.7324980" lon="49.2197858"><time>2025-03-02T11:52:24.403</time></trkpt><trkpt lat="55.7325420" lon="49.2198139"><time>2025-03-02T11:52:31.390</time></trkpt><trkpt lat="55.7325339" lon="49.2198977"><time>2025-03-02T11:52:36.407</time></trkpt><trkpt lat="55.7325118" lon="49.2199759"><time>2025-03-02T11:52:40.397</time></trkpt><trkpt lat="55.7324852" lon="49.2200457"><time>2025-03-02T11:52:43.280</time></trkpt><trkpt lat="55.7324564" lon="49.2201181"><time>2025-03-02T11:52:46.370</time></trkpt><trkpt lat="55.7324338" lon="49.2202048"><time>2025-03-02T11:52:49.400</time></trkpt><trkpt lat="55.7324078" lon="49.2202763"><time>2025-03-02T11:52:52.377</time></trkpt><trkpt lat="55.7323766" lon="49.2203693"><time>2025-03-02T11:52:55.403</time></trkpt><trkpt lat="55.7323391" lon="49.2204337"><time>2025-03-02T11:53:01.410</time></trkpt><trkpt lat="55.7323232" lon="49.2205332"><time>2025-03-02T11:53:06.400</time></trkpt><trkpt lat="55.7322915" lon="49.2205990"><time>2025-03-02T11:53:10.400</time></trkpt><trkpt lat="55.7322652" lon="49.2206883"><time>2025-03-02T11:53:13.377</time></trkpt><trkpt lat="55.7322547" lon="49.2207909"><time>2025-03-02T11:53:16.400</time></trkpt><trkpt lat="55.7322249" lon="49.2208536"><time>2025-03-02T11:53:19.377</time></trkpt><trkpt lat="55.7321914" lon="49.2209158"><time>2025-03-02T11:53:22.280</time></trkpt><trkpt lat="55.7321772" lon="49.2210018"><time>2025-03-02T11:53:25.390</time></trkpt><trkpt lat="55.7321568" lon="49.2210849"><time>2025-03-02T11:53:28.413</time></trkpt><trkpt lat="55.7321392" lon="49.2211864"><time>2025-03-02T11:53:31.387</time></trkpt><trkpt lat="55.7321156" lon="49.2212671"><time>2025-03-02T11:53:34.273</time></trkpt><trkpt lat="55.7321000" lon="49.2213632"><time>2025-03-02T11:53:37.280</time></trkpt><trkpt lat="55.7320791" lon="49.2214706"><time>2025-03-02T11:53:41.397</time></trkpt><trkpt lat="55.7320557" lon="49.2215700"><time>2025-03-02T11:53:44.377</time></trkpt><trkpt lat="55.7320325" lon="49.2216533"><time>2025-03-02T11:53:47.377</time></trkpt><trkpt lat="55.7319997" lon="49.2217096"><time>2025-03-02T11:53:51.407</time></trkpt><trkpt lat="55.7320069" lon="49.2217900"><time>2025-03-02T11:53:53.377</time></trkpt><trkpt lat="55.7320063" lon="49.2218840"><time>2025-03-02T11:53:56.410</time></trkpt><trkpt lat="55.7319733" lon="49.2219537"><time>2025-03-02T11:54:00.400</time></trkpt><trkpt lat="55.7319338" lon="49.2220102"><time>2025-03-02T11:54:09.383</time></trkpt><trkpt lat="55.7319230" lon="49.2220827"><time>2025-03-02T11:54:59.463</time></trkpt><trkpt lat="55.7319205" lon="49.2220867"><time>2025-03-02T11:55:09.283</time></trkpt><trkpt lat="55.7319630" lon="49.2220419"><time>2025-03-02T11:55:30.273</time></trkpt><trkpt lat="55.7320051" lon="49.2219990"><time>2025-03-02T11:55:44.273</time></trkpt><trkpt lat="55.7320390" lon="49.2219465"><time>2025-03-02T11:56:29.280</time></trkpt><trkpt lat="55.7320803" lon="49.2219038"><time>2025-03-02T11:56:40.420</time></trkpt><trkpt lat="55.7320923" lon="49.2218188"><time>2025-03-02T11:57:20.407</time></trkpt><trkpt lat="55.7320954" lon="49.2217368"><time>2025-03-02T11:57:25.397</time></trkpt><trkpt lat="55.7321135" lon="49.2216497"><time>2025-03-02T11:57:29.417</time></trkpt><trkpt lat="55.7321355" lon="49.2215720"><time>2025-03-02T11:57:32.403</time></trkpt><trkpt lat="55.7321699" lon="49.2214942"><time>2025-03-02T11:57:35.380</time></trkpt><trkpt lat="55.7322138" lon="49.2214413"><time>2025-03-02T11:57:38.410</time></trkpt><trkpt lat="55.7322467" lon="49.2213694"><time>2025-03-02T11:57:40.370</time></trkpt><trkpt lat="55.7322503" lon="49.2212652"><time>2025-03-02T11:57:42.420</time></trkpt><trkpt lat="55.7322795" lon="49.2211855"><time>2025-03-02T11:57:44.283</time></trkpt><trkpt lat="55.7323184" lon="49.2211368"><time>2025-03-02T11:57:46.397</time></trkpt><trkpt lat="55.7323336" lon="49.2210334"><time>2025-03-02T11:57:49.377</time></trkpt><trkpt lat="55.7323406" lon="49.2209492"><time>2025-03-02T11:57:51.390</time></trkpt><trkpt lat="55.7323501" lon="49.2208398"><time>2025-03-02T11:57:54.383</time></trkpt><trkpt lat="55.7323725" lon="49.2207456"><time>2025-03-02T11:57:57.380</time></trkpt><trkpt lat="55.7324041" lon="49.2206413"><time>2025-03-02T11:58:00.390</time></trkpt><trkpt lat="55.7324354" lon="49.2205509"><time>2025-03-02T11:58:03.387</time></trkpt><trkpt lat="55.7324516" lon="49.2204743"><time>2025-03-02T11:58:05.390</time></trkpt><trkpt lat="55.7324641" lon="49.2203760"><time>2025-03-02T11:58:07.400</time></trkpt><trkpt lat="55.7324836" lon="49.2202862"><time>2025-03-02T11:58:09.383</time></trkpt><trkpt lat="55.7325017" lon="49.2201868"><time>2025-03-02T11:58:12.393</time></trkpt><trkpt lat="55.7325232" lon="49.2200866"><time>2025-03-02T11:58:15.390</time></trkpt><trkpt lat="55.7325446" lon="49.2200155"><time>2025-03-02T11:58:18.393</time></trkpt><trkpt lat="55.7325571" lon="49.2199231"><time>2025-03-02T11:58:21.387</time></trkpt><trkpt lat="55.7325369" lon="49.2198503"><time>2025-03-02T11:58:23.280</time></trkpt><trkpt lat="55.7325011" lon="49.2197885"><time>2025-03-02T11:58:25.397</time></trkpt><trkpt lat="55.7324808" lon="49.2196931"><time>2025-03-02T11:58:28.393</time></trkpt><trkpt lat="55.7324545" lon="49.2196270"><time>2025-03-02T11:58:33.417</time></trkpt><trkpt lat="55.7324047" lon="49.2196290"><time>2025-03-02T11:58:36.403</time></trkpt><trkpt lat="55.7323500" lon="49.2196074"><time>2025-03-02T11:58:44.370</time></trkpt><trkpt lat="55.7323017" lon="49.2195604"><time>2025-03-02T11:58:47.417</time></trkpt><trkpt lat="55.7322410" lon="49.2195306"><time>2025-03-02T11:58:49.397</time></trkpt><trkpt lat="55.7321829" lon="49.2195145"><time>2025-03-02T11:58:51.390</time></trkpt><trkpt lat="55.7321304" lon="49.2194970"><time>2025-03-02T11:58:53.403</time></trkpt><trkpt lat="55.7320785" lon="49.2194749"><time>2025-03-02T11:58:56.397</time></trkpt><trkpt lat="55.7320182" lon="49.2194437"><time>2025-03-02T11:58:59.287</time></trkpt><trkpt lat="55.7319686" lon="49.2194309"><time>2025-03-02T11:59:01.390</time></trkpt><trkpt lat="55.7319129" lon="49.2194526"><time>2025-03-02T11:59:03.417</time></trkpt><trkpt lat="55.7318453" lon="49.2194320"><time>2025-03-02T11:59:05.407</time></trkpt><trkpt lat="55.7317912" lon="49.2193955"><time>2025-03-02T11:59:07.390</time></trkpt><trkpt lat="55.7317413" lon="49.2193566"><time>2025-03-02T11:59:09.400</time></trkpt><trkpt lat="55.7317230" lon="49.2192738"><time>2025-03-02T11:59:14.407</time></trkpt><trkpt lat="55.7317106" lon="49.2191743"><time>2025-03-02T11:59:18.367</time></trkpt><trkpt lat="55.7317179" lon="49.2190810"><time>2025-03-02T11:59:22.283</time></trkpt><trkpt lat="55.7317242" lon="49.2190014"><time>2025-03-02T11:59:25.407</time></trkpt><trkpt lat="55.7317234" lon="49.2189134"><time>2025-03-02T11:59:27.417</time></trkpt><trkpt lat="55.7317263" lon="49.2188250"><time>2025-03-02T11:59:31.377</time></trkpt><trkpt lat="55.7317238" lon="49.2187171"><time>2025-03-02T11:59:34.390</time></trkpt><trkpt lat="55.7317242" lon="49.2185927"><time>2025-03-02T11:59:37.383</time></trkpt><trkpt lat="55.7317164" lon="49.2184960"><time>2025-03-02T11:59:39.383</time></trkpt><trkpt lat="55.7317224" lon="49.2184145"><time>2025-03-02T11:59:41.387</time></trkpt><trkpt lat="55.7317453" lon="49.2183129"><time>2025-03-02T11:59:44.377</time></trkpt><trkpt lat="55.7317564" lon="49.2182259"><time>2025-03-02T11:59:46.370</time></trkpt><trkpt lat="55.7317682" lon="49.2181439"><time>2025-03-02T11:59:48.377</time></trkpt><trkpt lat="55.7317829" lon="49.2180184"><time>2025-03-02T11:59:51.383</time></trkpt><trkpt lat="55.7317926" lon="49.2179277"><time>2025-03-02T11:59:53.387</time></trkpt><trkpt lat="55.7318019" lon="49.2178210"><time>2025-03-02T11:59:56.380</time></trkpt><trkpt lat="55.7318160" lon="49.2177360"><time>2025-03-02T11:59:58.377</time></trkpt><trkpt lat="55.7318253" lon="49.2176458"><time>2025-03-02T12:00:01.387</time></trkpt><trkpt lat="55.7318291" lon="49.2175626"><time>2025-03-02T12:00:03.387</time></trkpt><trkpt lat="55.7318269" lon="49.2174758"><time>2025-03-02T12:00:06.390</time></trkpt><trkpt lat="55.7318374" lon="49.2173614"><time>2025-03-02T12:00:09.413</time></trkpt><trkpt lat="55.7318569" lon="49.2172614"><time>2025-03-02T12:00:12.383</time></trkpt><trkpt lat="55.7318803" lon="49.2171728"><time>2025-03-02T12:00:14.397</time></trkpt><trkpt lat="55.7318903" lon="49.2170587"><time>2025-03-02T12:00:16.417</time></trkpt><trkpt lat="55.7318871" lon="49.2169583"><time>2025-03-02T12:00:18.383</time></trkpt><trkpt lat="55.7318890" lon="49.2168573"><time>2025-03-02T12:00:21.377</time></trkpt><trkpt lat="55.7318822" lon="49.2167759"><time>2025-03-02T12:00:23.390</time></trkpt><trkpt lat="55.7318803" lon="49.2166848"><time>2025-03-02T12:00:25.280</time></trkpt><trkpt lat="55.7318943" lon="49.2166045"><time>2025-03-02T12:00:27.383</time></trkpt><trkpt lat="55.7318937" lon="49.2164670"><time>2025-03-02T12:00:30.290</time></trkpt><trkpt lat="55.7318979" lon="49.2163456"><time>2025-03-02T12:00:32.377</time></trkpt><trkpt lat="55.7319169" lon="49.2162563"><time>2025-03-02T12:00:34.397</time></trkpt><trkpt lat="55.7319399" lon="49.2161725"><time>2025-03-02T12:00:36.383</time></trkpt><trkpt lat="55.7319483" lon="49.2160402"><time>2025-03-02T12:00:39.380</time></trkpt><trkpt lat="55.7319640" lon="49.2159355"><time>2025-03-02T12:00:42.283</time></trkpt><trkpt lat="55.7319796" lon="49.2158455"><time>2025-03-02T12:00:45.283</time></trkpt><trkpt lat="55.7319861" lon="49.2157603"><time>2025-03-02T12:00:48.387</time></trkpt><trkpt lat="55.7319872" lon="49.2156762"><time>2025-03-02T12:00:52.390</time></trkpt><trkpt lat="55.7319914" lon="49.2155920"><time>2025-03-02T12:01:01.383</time></trkpt><trkpt lat="55.7319985" lon="49.2155084"><time>2025-03-02T12:01:10.413</time></trkpt><trkpt lat="55.7320119" lon="49.2154037"><time>2025-03-02T12:01:16.390</time></trkpt><trkpt lat="55.7320350" lon="49.2153215"><time>2025-03-02T12:01:19.383</time></trkpt><trkpt lat="55.7320588" lon="49.2152474"><time>2025-03-02T12:01:23.273</time></trkpt><trkpt lat="55.7320943" lon="49.2151657"><time>2025-03-02T12:01:27.390</time></trkpt><trkpt lat="55.7321230" lon="49.2151036"><time>2025-03-02T12:01:30.413</time></trkpt><trkpt lat="55.7321487" lon="49.2150108"><time>2025-03-02T12:01:34.410</time></trkpt><trkpt lat="55.7321764" lon="49.2149424"><time>2025-03-02T12:01:37.420</time></trkpt><trkpt lat="55.7321769" lon="49.2148200"><time>2025-03-02T12:01:40.287</time></trkpt><trkpt lat="55.7321694" lon="49.2147217"><time>2025-03-02T12:01:42.387</time></trkpt><trkpt lat="55.7321618" lon="49.2146377"><time>2025-03-02T12:01:44.383</time></trkpt><trkpt lat="55.7321622" lon="49.2145496"><time>2025-03-02T12:01:46.390</time></trkpt><trkpt lat="55.7321670" lon="49.2144554"><time>2025-03-02T12:01:48.387</time></trkpt><trkpt lat="55.7321769" lon="49.2143580"><time>2025-03-02T12:01:50.377</time></trkpt><trkpt lat="55.7321885" lon="49.2142606"><time>2025-03-02T12:01:52.383</time></trkpt><trkpt lat="55.7321995" lon="49.2141697"><time>2025-03-02T12:01:54.387</time></trkpt><trkpt lat="55.7322066" lon="49.2140759"><time>2025-03-02T12:01:56.383</time></trkpt><trkpt lat="55.7322051" lon="49.2139573"><time>2025-03-02T12:01:59.383</time></trkpt><trkpt lat="55.7322125" lon="49.2138738"><time>2025-03-02T12:02:01.383</time></trkpt><trkpt lat="55.7322095" lon="49.2137576"><time>2025-03-02T12:02:04.383</time></trkpt><trkpt lat="55.7322066" lon="49.2136761"><time>2025-03-02T12:02:06.370</time></trkpt><trkpt lat="55.7322059" lon="49.2135925"><time>2025-03-02T12:02:08.383</time></trkpt><trkpt lat="55.7322065" lon="49.2134718"><time>2025-03-02T12:02:11.383</time></trkpt><trkpt lat="55.7322104" lon="49.2133894"><time>2025-03-02T12:02:13.383</time></trkpt><trkpt lat="55.7322182" lon="49.2132786"><time>2025-03-02T12:02:15.393</time></trkpt><trkpt lat="55.7322264" lon="49.2131829"><time>2025-03-02T12:02:17.280</time></trkpt><trkpt lat="55.7322269" lon="49.2130937"><time>2025-03-02T12:02:19.383</time></trkpt><trkpt lat="55.7322272" lon="49.2129944"><time>2025-03-02T12:02:21.383</time></trkpt><trkpt lat="55.7322370" lon="49.2129129"><time>2025-03-02T12:02:23.387</time></trkpt><trkpt lat="55.7322531" lon="49.2128265"><time>2025-03-02T12:02:26.377</time></trkpt><trkpt lat="55.7322682" lon="49.2127311"><time>2025-03-02T12:02:29.293</time></trkpt><trkpt lat="55.7322637" lon="49.2126242"><time>2025-03-02T12:02:32.390</time></trkpt><trkpt lat="55.7322754" lon="49.2125005"><time>2025-03-02T12:02:35.383</time></trkpt><trkpt lat="55.7322838" lon="49.2123984"><time>2025-03-02T12:02:37.377</time></trkpt><trkpt lat="55.7322839" lon="49.2122933"><time>2025-03-02T12:02:39.387</time></trkpt><trkpt lat="55.7322923" lon="49.2121701"><time>2025-03-02T12:02:41.387</time></trkpt><trkpt lat="55.7323026" lon="49.2120800"><time>2025-03-02T12:02:43.413</time></trkpt><trkpt lat="55.7323158" lon="49.2119914"><time>2025-03-02T12:02:45.387</time></trkpt><trkpt lat="55.7323333" lon="49.2118731"><time>2025-03-02T12:02:48.320</time></trkpt><trkpt lat="55.7323417" lon="49.2117746"><time>2025-03-02T12:02:49.390</time></trkpt><trkpt lat="55.7323507" lon="49.2116829"><time>2025-03-02T12:02:51.393</time></trkpt><trkpt lat="55.7323527" lon="49.2116009"><time>2025-03-02T12:02:55.387</time></trkpt><trkpt lat="55.7323509" lon="49.2115181"><time>2025-03-02T12:03:21.280</time></trkpt><trkpt lat="55.7323090" lon="49.2114703"><time>2025-03-02T12:03:38.413</time></trkpt><trkpt lat="55.7322444" lon="49.2114219"><time>2025-03-02T12:03:42.413</time></trkpt><trkpt lat="55.7322035" lon="49.2113852"><time>2025-03-02T12:03:44.410</time></trkpt><trkpt lat="55.7321560" lon="49.2113704"><time>2025-03-02T12:03:46.390</time></trkpt><trkpt lat="55.7320992" lon="49.2113603"><time>2025-03-02T12:03:48.420</time></trkpt><trkpt lat="55.7320496" lon="49.2113223"><time>2025-03-02T12:03:51.393</time></trkpt><trkpt lat="55.7319955" lon="49.2112997"><time>2025-03-02T12:03:55.413</time></trkpt><trkpt lat="55.7319440" lon="49.2113017"><time>2025-03-02T12:04:00.400</time></trkpt><trkpt lat="55.7318981" lon="49.2112831"><time>2025-03-02T12:04:02.403</time></trkpt><trkpt lat="55.7318509" lon="49.2112835"><time>2025-03-02T12:04:05.407</time></trkpt><trkpt lat="55.7317761" lon="49.2112640"><time>2025-03-02T12:04:08.400</time></trkpt><trkpt lat="55.7317212" lon="49.2112464"><time>2025-03-02T12:04:10.410</time></trkpt><trkpt lat="55.7316611" lon="49.2112452"><time>2025-03-02T12:04:13.417</time></trkpt><trkpt lat="55.7316139" lon="49.2112200"><time>2025-03-02T12:04:17.407</time></trkpt><trkpt lat="55.7315691" lon="49.2112424"><time>2025-03-02T12:04:20.420</time></trkpt><trkpt lat="55.7315100" lon="49.2112127"><time>2025-03-02T12:04:23.410</time></trkpt><trkpt lat="55.7314514" lon="49.2112093"><time>2025-03-02T12:04:26.283</time></trkpt><trkpt lat="55.7313939" lon="49.2111859"><time>2025-03-02T12:04:29.287</time></trkpt><trkpt lat="55.7313497" lon="49.2111693"><time>2025-03-02T12:04:31.273</time></trkpt><trkpt lat="55.7312918" lon="49.2111230"><time>2025-03-02T12:04:34.277</time></trkpt><trkpt lat="55.7312456" lon="49.2110915"><time>2025-03-02T12:04:37.380</time></trkpt><trkpt lat="55.7311858" lon="49.2110665"><time>2025-03-02T12:04:40.390</time></trkpt><trkpt lat="55.7311415" lon="49.2110274"><time>2025-03-02T12:04:43.417</time></trkpt><trkpt lat="55.7310840" lon="49.2109755"><time>2025-03-02T12:04:46.403</time></trkpt><trkpt lat="55.7310312" lon="49.2109561"><time>2025-03-02T12:04:49.420</time></trkpt><trkpt lat="55.7309768" lon="49.2109256"><time>2025-03-02T12:04:52.393</time></trkpt><trkpt lat="55.7309288" lon="49.2108833"><time>2025-03-02T12:04:54.410</time></trkpt><trkpt lat="55.7308861" lon="49.2108575"><time>2025-03-02T12:04:56.423</time></trkpt><trkpt lat="55.7308323" lon="49.2108265"><time>2025-03-02T12:04:59.403</time></trkpt><trkpt lat="55.7307845" lon="49.2108458"><time>2025-03-02T12:05:06.390</time></trkpt><trkpt lat="55.7307424" lon="49.2108903"><time>2025-03-02T12:05:17.400</time></trkpt><trkpt lat="55.7306904" lon="49.2108902"><time>2025-03-02T12:05:23.277</time></trkpt><trkpt lat="55.7306405" lon="49.2108611"><time>2025-03-02T12:05:27.407</time></trkpt><trkpt lat="55.7305852" lon="49.2108293"><time>2025-03-02T12:05:32.287</time></trkpt><trkpt lat="55.7305208" lon="49.2108427"><time>2025-03-02T12:05:36.383</time></trkpt><trkpt lat="55.7304639" lon="49.2108442"><time>2025-03-02T12:05:39.413</time></trkpt><trkpt lat="55.7304175" lon="49.2108448"><time>2025-03-02T12:05:43.287</time></trkpt><trkpt lat="55.7303573" lon="49.2108125"><time>2025-03-02T12:05:46.427</time></trkpt><trkpt lat="55.7303075" lon="49.2107981"><time>2025-03-02T12:05:49.413</time></trkpt><trkpt lat="55.7302443" lon="49.2107726"><time>2025-03-02T12:05:52.413</time></trkpt><trkpt lat="55.7301830" lon="49.2107500"><time>2025-03-02T12:05:55.410</time></trkpt><trkpt lat="55.7301281" lon="49.2107272"><time>2025-03-02T12:05:58.383</time></trkpt><trkpt lat="55.7300728" lon="49.2107297"><time>2025-03-02T12:06:03.407</time></trkpt><trkpt lat="55.7300543" lon="49.2108117"><time>2025-03-02T12:06:06.387</time></trkpt><trkpt lat="55.7300599" lon="49.2108974"><time>2025-03-02T12:06:11.413</time></trkpt><trkpt lat="55.7300864" lon="49.2109630"><time>2025-03-02T12:06:15.380</time></trkpt><trkpt lat="55.7301061" lon="49.2110370"><time>2025-03-02T12:06:18.413</time></trkpt><trkpt lat="55.7301177" lon="49.2111168"><time>2025-03-02T12:06:21.407</time></trkpt><trkpt lat="55.7300972" lon="49.2111903"><time>2025-03-02T12:06:24.407</time></trkpt><trkpt lat="55.7300659" lon="49.2112673"><time>2025-03-02T12:06:27.383</time></trkpt><trkpt lat="55.7300389" lon="49.2113405"><time>2025-03-02T12:06:32.397</time></trkpt><trkpt lat="55.7300139" lon="49.2114147"><time>2025-03-02T12:06:37.380</time></trkpt><trkpt lat="55.7299592" lon="49.2114481"><time>2025-03-02T12:06:45.403</time></trkpt><trkpt lat="55.7299074" lon="49.2114805"><time>2025-03-02T12:06:50.383</time></trkpt><trkpt lat="55.7298716" lon="49.2115352"><time>2025-03-02T12:06:54.403</time></trkpt><trkpt lat="55.7298827" lon="49.2116064"><time>2025-03-02T12:07:00.797</time></trkpt><trkpt lat="55.7298985" lon="49.2116045"><time>2025-03-02T12:07:03.280</time></trkpt><trkpt lat="55.7299171" lon="49.2115259"><time>2025-03-02T12:07:13.287</time></trkpt><trkpt lat="55.7299553" lon="49.2114778"><time>2025-03-02T12:07:20.280</time></trkpt><trkpt lat="55.7299837" lon="49.2114129"><time>2025-03-02T12:07:25.270</time></trkpt><trkpt lat="55.7300157" lon="49.2113371"><time>2025-03-02T12:07:29.270</time></trkpt><trkpt lat="55.7300522" lon="49.2112790"><time>2025-03-02T12:07:33.280</time></trkpt><trkpt lat="55.7300827" lon="49.2112071"><time>2025-03-02T12:07:36.280</time></trkpt><trkpt lat="55.7301052" lon="49.2111257"><time>2025-03-02T12:07:40.273</time></trkpt><trkpt lat="55.7301253" lon="49.2110287"><time>2025-03-02T12:07:44.283</time></trkpt><trkpt lat="55.7301153" lon="49.2109489"><time>2025-03-02T12:07:50.273</time></trkpt><trkpt lat="55.7301016" lon="49.2108672"><time>2025-03-02T12:07:58.277</time></trkpt><trkpt lat="55.7300906" lon="49.2107522"><time>2025-03-02T12:08:09.267</time></trkpt><trkpt lat="55.7300541" lon="49.2106969"><time>2025-03-02T12:08:16.270</time></trkpt><trkpt lat="55.7299989" lon="49.2106815"><time>2025-03-02T12:08:24.273</time></trkpt><trkpt lat="55.7299526" lon="49.2106762"><time>2025-03-02T12:08:28.277</time></trkpt><trkpt lat="55.7298962" lon="49.2106536"><time>2025-03-02T12:08:32.277</time></trkpt><trkpt lat="55.7298413" lon="49.2106557"><time>2025-03-02T12:08:36.277</time></trkpt><trkpt lat="55.7297913" lon="49.2106513"><time>2025-03-02T12:08:39.280</time></trkpt><trkpt lat="55.7297434" lon="49.2106572"><time>2025-03-02T12:08:41.277</time></trkpt><trkpt lat="55.7296889" lon="49.2106518"><time>2025-03-02T12:08:44.283</time></trkpt><trkpt lat="55.7296420" lon="49.2106519"><time>2025-03-02T12:08:47.280</time></trkpt><trkpt lat="55.7295838" lon="49.2106625"><time>2025-03-02T12:08:50.290</time></trkpt><trkpt lat="55.7295240" lon="49.2106615"><time>2025-03-02T12:09:02.283</time></trkpt><trkpt lat="55.7294720" lon="49.2106606"><time>2025-03-02T12:09:05.313</time></trkpt><trkpt lat="55.7294330" lon="49.2106185"><time>2025-03-02T12:09:19.400</time></trkpt><trkpt lat="55.7293800" lon="49.2105948"><time>2025-03-02T12:09:24.407</time></trkpt><trkpt lat="55.7293335" lon="49.2105925"><time>2025-03-02T12:09:27.417</time></trkpt><trkpt lat="55.7292827" lon="49.2105823"><time>2025-03-02T12:09:33.417</time></trkpt><trkpt lat="55.7292433" lon="49.2105197"><time>2025-03-02T12:09:36.280</time></trkpt><trkpt lat="55.7292077" lon="49.2104546"><time>2025-03-02T12:09:39.403</time></trkpt><trkpt lat="55.7291703" lon="49.2103862"><time>2025-03-02T12:09:46.420</time></trkpt><trkpt lat="55.7291126" lon="49.2103879"><time>2025-03-02T12:09:49.410</time></trkpt><trkpt lat="55.7290485" lon="49.2103992"><time>2025-03-02T12:09:52.423</time></trkpt><trkpt lat="55.7289785" lon="49.2103952"><time>2025-03-02T12:09:54.410</time></trkpt><trkpt lat="55.7289269" lon="49.2103980"><time>2025-03-02T12:09:56.283</time></trkpt><trkpt lat="55.7288724" lon="49.2104076"><time>2025-03-02T12:09:58.280</time></trkpt><trkpt lat="55.7288178" lon="49.2104087"><time>2025-03-02T12:10:00.407</time></trkpt><trkpt lat="55.7287640" lon="49.2104030"><time>2025-03-02T12:10:03.380</time></trkpt><trkpt lat="55.7287095" lon="49.2103633"><time>2025-03-02T12:10:07.410</time></trkpt><trkpt lat="55.7286565" lon="49.2103327"><time>2025-03-02T12:10:10.383</time></trkpt><trkpt lat="55.7285925" lon="49.2103206"><time>2025-03-02T12:10:13.280</time></trkpt><trkpt lat="55.7285465" lon="49.2103133"><time>2025-03-02T12:10:15.280</time></trkpt><trkpt lat="55.7284943" lon="49.2103005"><time>2025-03-02T12:10:17.413</time></trkpt><trkpt lat="55.7284432" lon="49.2102928"><time>2025-03-02T12:10:19.417</time></trkpt><trkpt lat="55.7283890" lon="49.2102831"><time>2025-03-02T12:10:21.407</time></trkpt><trkpt lat="55.7283335" lon="49.2102521"><time>2025-03-02T12:10:24.377</time></trkpt><trkpt lat="55.7282770" lon="49.2102193"><time>2025-03-02T12:10:27.413</time></trkpt><trkpt lat="55.7282043" lon="49.2102027"><time>2025-03-02T12:10:30.413</time></trkpt><trkpt lat="55.7281499" lon="49.2101858"><time>2025-03-02T12:10:33.403</time></trkpt><trkpt lat="55.7280952" lon="49.2101829"><time>2025-03-02T12:10:36.420</time></trkpt><trkpt lat="55.7280523" lon="49.2101412"><time>2025-03-02T12:10:40.380</time></trkpt><trkpt lat="55.7280568" lon="49.2100493"><time>2025-03-02T12:10:45.280</time></trkpt><trkpt lat="55.7280650" lon="49.2099407"><time>2025-03-02T12:10:48.383</time></trkpt><trkpt lat="55.7280722" lon="49.2098605"><time>2025-03-02T12:10:51.373</time></trkpt><trkpt lat="55.7280891" lon="49.2097752"><time>2025-03-02T12:10:55.383</time></trkpt><trkpt lat="55.7281134" lon="49.2097020"><time>2025-03-02T12:11:00.413</time></trkpt><trkpt lat="55.7281294" lon="49.2096127"><time>2025-03-02T12:11:03.397</time></trkpt><trkpt lat="55.7281381" lon="49.2095169"><time>2025-03-02T12:11:06.397</time></trkpt><trkpt lat="55.7281524" lon="49.2094147"><time>2025-03-02T12:11:09.390</time></trkpt><trkpt lat="55.7281555" lon="49.2093326"><time>2025-03-02T12:11:11.380</time></trkpt><trkpt lat="55.7281585" lon="49.2092339"><time>2025-03-02T12:11:14.380</time></trkpt><trkpt lat="55.7281689" lon="49.2091276"><time>2025-03-02T12:11:17.380</time></trkpt><trkpt lat="55.7281788" lon="49.2090394"><time>2025-03-02T12:11:19.380</time></trkpt><trkpt lat="55.7281812" lon="49.2089208"><time>2025-03-02T12:11:22.383</time></trkpt><trkpt lat="55.7281789" lon="49.2088396"><time>2025-03-02T12:11:24.380</time></trkpt><trkpt lat="55.7281788" lon="49.2087428"><time>2025-03-02T12:11:26.383</time></trkpt><trkpt lat="55.7281805" lon="49.2086605"><time>2025-03-02T12:11:28.283</time></trkpt><trkpt lat="55.7281922" lon="49.2085510"><time>2025-03-02T12:11:31.387</time></trkpt><trkpt lat="55.7282086" lon="49.2084496"><time>2025-03-02T12:11:34.387</time></trkpt><trkpt lat="55.7282109" lon="49.2083567"><time>2025-03-02T12:11:37.280</time></trkpt><trkpt lat="55.7282036" lon="49.2082531"><time>2025-03-02T12:11:40.387</time></trkpt><trkpt lat="55.7282146" lon="49.2081619"><time>2025-03-02T12:11:56.410</time></trkpt><trkpt lat="55.7282290" lon="49.2080768"><time>2025-03-02T12:12:00.403</time></trkpt><trkpt lat="55.7282523" lon="49.2079882"><time>2025-03-02T12:12:04.413</time></trkpt><trkpt lat="55.7282747" lon="49.2078858"><time>2025-03-02T12:12:07.387</time></trkpt><trkpt lat="55.7282834" lon="49.2077964"><time>2025-03-02T12:12:09.427</time></trkpt><trkpt lat="55.7283011" lon="49.2077122"><time>2025-03-02T12:12:12.387</time></trkpt><trkpt lat="55.7282907" lon="49.2076005"><time>2025-03-02T12:12:15.417</time></trkpt><trkpt lat="55.7282969" lon="49.2075165"><time>2025-03-02T12:12:18.413</time></trkpt><trkpt lat="55.7282974" lon="49.2074053"><time>2025-03-02T12:12:20.407</time></trkpt><trkpt lat="55.7282783" lon="49.2072933"><time>2025-03-02T12:12:22.387</time></trkpt><trkpt lat="55.7282599" lon="49.2071857"><time>2025-03-02T12:12:24.423</time></trkpt><trkpt lat="55.7282631" lon="49.2070736"><time>2025-03-02T12:12:27.413</time></trkpt><trkpt lat="55.7283024" lon="49.2070198"><time>2025-03-02T12:12:29.397</time></trkpt><trkpt lat="55.7283345" lon="49.2069384"><time>2025-03-02T12:12:33.387</time></trkpt><trkpt lat="55.7283365" lon="49.2068297"><time>2025-03-02T12:12:36.387</time></trkpt><trkpt lat="55.7283441" lon="49.2067444"><time>2025-03-02T12:12:38.383</time></trkpt><trkpt lat="55.7283511" lon="49.2066449"><time>2025-03-02T12:12:40.393</time></trkpt><trkpt lat="55.7283602" lon="49.2065291"><time>2025-03-02T12:12:42.403</time></trkpt><trkpt lat="55.7283737" lon="49.2064012"><time>2025-03-02T12:12:44.387</time></trkpt><trkpt lat="55.7283838" lon="49.2062816"><time>2025-03-02T12:12:46.377</time></trkpt><trkpt lat="55.7283913" lon="49.2061880"><time>2025-03-02T12:12:48.387</time></trkpt><trkpt lat="55.7283936" lon="49.2060318"><time>2025-03-02T12:12:50.387</time></trkpt><trkpt lat="55.7284047" lon="49.2059427"><time>2025-03-02T12:12:52.380</time></trkpt><trkpt lat="55.7284267" lon="49.2058543"><time>2025-03-02T12:12:55.387</time></trkpt><trkpt lat="55.7284421" lon="49.2057655"><time>2025-03-02T12:12:58.383</time></trkpt><trkpt lat="55.7284525" lon="49.2056606"><time>2025-03-02T12:13:01.293</time></trkpt><trkpt lat="55.7284587" lon="49.2055615"><time>2025-03-02T12:13:04.410</time></trkpt><trkpt lat="55.7284699" lon="49.2054820"><time>2025-03-02T12:13:07.447</time></trkpt><trkpt lat="55.7284878" lon="49.2053853"><time>2025-03-02T12:13:10.417</time></trkpt><trkpt lat="55.7284827" lon="49.2052812"><time>2025-03-02T12:13:13.390</time></trkpt><trkpt lat="55.7284559" lon="49.2051916"><time>2025-03-02T12:13:19.270</time></trkpt><trkpt lat="55.7284115" lon="49.2051383"><time>2025-03-02T12:13:23.297</time></trkpt><trkpt lat="55.7283701" lon="49.2050991"><time>2025-03-02T12:13:30.280</time></trkpt><trkpt lat="55.7283660" lon="49.2050889"><time>2025-03-02T12:13:42.210</time></trkpt><trkpt lat="55.7284018" lon="49.2051583"><time>2025-03-02T12:13:58.283</time></trkpt><trkpt lat="55.7284499" lon="49.2051393"><time>2025-03-02T12:14:18.280</time></trkpt><trkpt lat="55.7284841" lon="49.2050848"><time>2025-03-02T12:14:37.287</time></trkpt><trkpt lat="55.7284757" lon="49.2049828"><time>2025-03-02T12:14:49.280</time></trkpt><trkpt lat="55.7284916" lon="49.2048953"><time>2025-03-02T12:14:54.393</time></trkpt><trkpt lat="55.7285008" lon="49.2047996"><time>2025-03-02T12:14:59.387</time></trkpt><trkpt lat="55.7285015" lon="49.2046898"><time>2025-03-02T12:15:02.403</time></trkpt><trkpt lat="55.7285196" lon="49.2046084"><time>2025-03-02T12:15:05.407</time></trkpt><trkpt lat="55.7285510" lon="49.2045487"><time>2025-03-02T12:15:07.390</time></trkpt><trkpt lat="55.7285889" lon="49.2044455"><time>2025-03-02T12:15:10.423</time></trkpt><trkpt lat="55.7286177" lon="49.2043376"><time>2025-03-02T12:15:13.410</time></trkpt><trkpt lat="55.7286278" lon="49.2042121"><time>2025-03-02T12:15:15.290</time></trkpt><trkpt lat="55.7286325" lon="49.2040881"><time>2025-03-02T12:15:17.393</time></trkpt><trkpt lat="55.7286444" lon="49.2039454"><time>2025-03-02T12:15:19.410</time></trkpt><trkpt lat="55.7286642" lon="49.2038350"><time>2025-03-02T12:15:22.427</time></trkpt><trkpt lat="55.7286718" lon="49.2037551"><time>2025-03-02T12:15:24.420</time></trkpt><trkpt lat="55.7286690" lon="49.2036657"><time>2025-03-02T12:15:26.390</time></trkpt><trkpt lat="55.7286830" lon="49.2035891"><time>2025-03-02T12:15:28.413</time></trkpt><trkpt lat="55.7286846" lon="49.2035059"><time>2025-03-02T12:15:31.397</time></trkpt><trkpt lat="55.7286975" lon="49.2034077"><time>2025-03-02T12:15:35.403</time></trkpt><trkpt lat="55.7286996" lon="49.2033085"><time>2025-03-02T12:15:39.400</time></trkpt><trkpt lat="55.7286980" lon="49.2032017"><time>2025-03-02T12:15:42.287</time></trkpt><trkpt lat="55.7286984" lon="49.2031158"><time>2025-03-02T12:15:45.377</time></trkpt><trkpt lat="55.7287070" lon="49.2030374"><time>2025-03-02T12:15:49.407</time></trkpt><trkpt lat="55.7287294" lon="49.2029660"><time>2025-03-02T12:15:55.393</time></trkpt><trkpt lat="55.7287712" lon="49.2028879"><time>2025-03-02T12:15:58.400</time></trkpt><trkpt lat="55.7288178" lon="49.2028411"><time>2025-03-02T12:16:01.380</time></trkpt><trkpt lat="55.7288544" lon="49.2027512"><time>2025-03-02T12:16:04.413</time></trkpt><trkpt lat="55.7288957" lon="49.2026897"><time>2025-03-02T12:16:06.383</time></trkpt><trkpt lat="55.7289238" lon="49.2026084"><time>2025-03-02T12:16:08.397</time></trkpt><trkpt lat="55.7289432" lon="49.2025086"><time>2025-03-02T12:16:10.400</time></trkpt><trkpt lat="55.7289722" lon="49.2024052"><time>2025-03-02T12:16:12.383</time></trkpt><trkpt lat="55.7289986" lon="49.2022646"><time>2025-03-02T12:16:14.403</time></trkpt><trkpt lat="55.7290141" lon="49.2021870"><time>2025-03-02T12:16:15.283</time></trkpt><trkpt lat="55.7290348" lon="49.2020493"><time>2025-03-02T12:16:17.387</time></trkpt><trkpt lat="55.7290585" lon="49.2019352"><time>2025-03-02T12:16:19.383</time></trkpt><trkpt lat="55.7291017" lon="49.2018076"><time>2025-03-02T12:16:21.387</time></trkpt><trkpt lat="55.7291350" lon="49.2017492"><time>2025-03-02T12:16:22.380</time></trkpt><trkpt lat="55.7291946" lon="49.2016716"><time>2025-03-02T12:16:24.287</time></trkpt><trkpt lat="55.7292424" lon="49.2016057"><time>2025-03-02T12:16:26.393</time></trkpt><trkpt lat="55.7292840" lon="49.2015551"><time>2025-03-02T12:16:28.383</time></trkpt><trkpt lat="55.7293435" lon="49.2014954"><time>2025-03-02T12:16:31.383</time></trkpt><trkpt lat="55.7293903" lon="49.2014648"><time>2025-03-02T12:16:33.333</time></trkpt><trkpt lat="55.7294457" lon="49.2014093"><time>2025-03-02T12:16:36.287</time></trkpt><trkpt lat="55.7294982" lon="49.2013712"><time>2025-03-02T12:16:38.400</time></trkpt><trkpt lat="55.7295425" lon="49.2013435"><time>2025-03-02T12:16:40.380</time></trkpt><trkpt lat="55.7296017" lon="49.2013137"><time>2025-03-02T12:16:43.383</time></trkpt><trkpt lat="55.7296550" lon="49.2012953"><time>2025-03-02T12:16:46.380</time></trkpt><trkpt lat="55.7296986" lon="49.2012700"><time>2025-03-02T12:16:51.383</time></trkpt><trkpt lat="55.7297373" lon="49.2012023"><time>2025-03-02T12:17:06.390</time></trkpt><trkpt lat="55.7297887" lon="49.2011750"><time>2025-03-02T12:17:10.400</time></trkpt><trkpt lat="55.7298415" lon="49.2011435"><time>2025-03-02T12:17:13.400</time></trkpt><trkpt lat="55.7298954" lon="49.2011274"><time>2025-03-02T12:17:16.393</time></trkpt><trkpt lat="55.7299528" lon="49.2010899"><time>2025-03-02T12:17:19.383</time></trkpt><trkpt lat="55.7300009" lon="49.2010494"><time>2025-03-02T12:17:22.387</time></trkpt><trkpt lat="55.7300685" lon="49.2010103"><time>2025-03-02T12:17:25.393</time></trkpt><trkpt lat="55.7301185" lon="49.2009785"><time>2025-03-02T12:17:27.390</time></trkpt><trkpt lat="55.7301796" lon="49.2009484"><time>2025-03-02T12:17:29.283</time></trkpt><trkpt lat="55.7302379" lon="49.2009207"><time>2025-03-02T12:17:31.390</time></trkpt><trkpt lat="55.7302920" lon="49.2008908"><time>2025-03-02T12:17:33.393</time></trkpt><trkpt lat="55.7303390" lon="49.2008656"><time>2025-03-02T12:17:35.400</time></trkpt><trkpt lat="55.7303963" lon="49.2008170"><time>2025-03-02T12:17:37.360</time></trkpt><trkpt lat="55.7304399" lon="49.2007624"><time>2025-03-02T12:17:39.393</time></trkpt><trkpt lat="55.7304903" lon="49.2007084"><time>2025-03-02T12:17:41.423</time></trkpt><trkpt lat="55.7305469" lon="49.2006553"><time>2025-03-02T12:17:43.287</time></trkpt><trkpt lat="55.7306022" lon="49.2006058"><time>2025-03-02T12:17:45.397</time></trkpt><trkpt lat="55.7306453" lon="49.2005541"><time>2025-03-02T12:17:48.400</time></trkpt><trkpt lat="55.7307029" lon="49.2005033"><time>2025-03-02T12:17:51.393</time></trkpt><trkpt lat="55.7307466" lon="49.2004741"><time>2025-03-02T12:17:53.397</time></trkpt><trkpt lat="55.7308017" lon="49.2004330"><time>2025-03-02T12:17:56.400</time></trkpt><trkpt lat="55.7308438" lon="49.2003814"><time>2025-03-02T12:17:58.413</time></trkpt><trkpt lat="55.7309027" lon="49.2003337"><time>2025-03-02T12:18:01.397</time></trkpt><trkpt lat="55.7309661" lon="49.2002935"><time>2025-03-02T12:18:04.400</time></trkpt><trkpt lat="55.7310086" lon="49.2002611"><time>2025-03-02T12:18:12.407</time></trkpt><trkpt lat="55.7310096" lon="49.2001755"><time>2025-03-02T12:18:28.413</time></trkpt><trkpt lat="55.7310492" lon="49.2001328"><time>2025-03-02T12:18:37.413</time></trkpt><trkpt lat="55.7310414" lon="49.2000478"><time>2025-03-02T12:18:43.417</time></trkpt><trkpt lat="55.7310156" lon="49.1999635"><time>2025-03-02T12:18:51.377</time></trkpt><trkpt lat="55.7309901" lon="49.1998753"><time>2025-03-02T12:18:53.403</time></trkpt><trkpt lat="55.7309688" lon="49.1997783"><time>2025-03-02T12:18:55.420</time></trkpt><trkpt lat="55.7309602" lon="49.1996994"><time>2025-03-02T12:18:57.373</time></trkpt><trkpt lat="55.7309439" lon="49.1996219"><time>2025-03-02T12:19:00.410</time></trkpt><trkpt lat="55.7309223" lon="49.1995399"><time>2025-03-02T12:19:03.390</time></trkpt><trkpt lat="55.7308989" lon="49.1994351"><time>2025-03-02T12:19:06.420</time></trkpt><trkpt lat="55.7308794" lon="49.1993321"><time>2025-03-02T12:19:08.417</time></trkpt><trkpt lat="55.7308557" lon="49.1992413"><time>2025-03-02T12:19:10.407</time></trkpt><trkpt lat="55.7308291" lon="49.1991568"><time>2025-03-02T12:19:13.400</time></trkpt><trkpt lat="55.7308078" lon="49.1990704"><time>2025-03-02T12:19:17.423</time></trkpt><trkpt lat="55.7308011" lon="49.1989825"><time>2025-03-02T12:19:21.410</time></trkpt><trkpt lat="55.7307888" lon="49.1989006"><time>2025-03-02T12:19:26.403</time></trkpt><trkpt lat="55.7307765" lon="49.1988182"><time>2025-03-02T12:19:32.390</time></trkpt><trkpt lat="55.7307824" lon="49.1987265"><time>2025-03-02T12:19:36.410</time></trkpt><trkpt lat="55.7307729" lon="49.1986319"><time>2025-03-02T12:19:40.400</time></trkpt><trkpt lat="55.7307658" lon="49.1985270"><time>2025-03-02T12:19:44.277</time></trkpt><trkpt lat="55.7307345" lon="49.1984493"><time>2025-03-02T12:19:58.420</time></trkpt><trkpt lat="55.7306983" lon="49.1983782"><time>2025-03-02T12:20:03.427</time></trkpt><trkpt lat="55.7306684" lon="49.1982995"><time>2025-03-02T12:20:07.400</time></trkpt><trkpt lat="55.7306216" lon="49.1982525"><time>2025-03-02T12:20:14.387</time></trkpt><trkpt lat="55.7305919" lon="49.1981789"><time>2025-03-02T12:20:17.413</time></trkpt><trkpt lat="55.7305525" lon="49.1981283"><time>2025-03-02T12:20:21.407</time></trkpt><trkpt lat="55.7305130" lon="49.1980881"><time>2025-03-02T12:20:24.377</time></trkpt><trkpt lat="55.7304769" lon="49.1980204"><time>2025-03-02T12:20:30.403</time></trkpt><trkpt lat="55.7304434" lon="49.1979137"><time>2025-03-02T12:20:33.380</time></trkpt><trkpt lat="55.7304163" lon="49.1978336"><time>2025-03-02T12:20:35.287</time></trkpt><trkpt lat="55.7303873" lon="49.1977552"><time>2025-03-02T12:20:38.407</time></trkpt><trkpt lat="55.7303622" lon="49.1976654"><time>2025-03-02T12:20:42.293</time></trkpt><trkpt lat="55.7303250" lon="49.1975835"><time>2025-03-02T12:20:45.417</time></trkpt><trkpt lat="55.7302777" lon="49.1975182"><time>2025-03-02T12:20:48.413</time></trkpt><trkpt lat="55.7302442" lon="49.1974430"><time>2025-03-02T12:20:52.413</time></trkpt><trkpt lat="55.7302100" lon="49.1973591"><time>2025-03-02T12:20:54.397</time></trkpt><trkpt lat="55.7301861" lon="49.1972627"><time>2025-03-02T12:20:58.410</time></trkpt><trkpt lat="55.7301606" lon="49.1971920"><time>2025-03-02T12:21:01.393</time></trkpt><trkpt lat="55.7301164" lon="49.1971020"><time>2025-03-02T12:21:04.387</time></trkpt><trkpt lat="55.7300920" lon="49.1970233"><time>2025-03-02T12:21:07.413</time></trkpt><trkpt lat="55.7300762" lon="49.1969377"><time>2025-03-02T12:21:12.427</time></trkpt><trkpt lat="55.7300411" lon="49.1968800"><time>2025-03-02T12:21:15.390</time></trkpt><trkpt lat="55.7300114" lon="49.1968062"><time>2025-03-02T12:21:20.277</time></trkpt><trkpt lat="55.7299911" lon="49.1967315"><time>2025-03-02T12:21:27.423</time></trkpt><trkpt lat="55.7299657" lon="49.1966447"><time>2025-03-02T12:21:39.387</time></trkpt><trkpt lat="55.7299419" lon="49.1965801"><time>2025-03-02T12:22:09.453</time></trkpt><trkpt lat="55.7299203" lon="49.1966367"><time>2025-03-02T12:22:18.280</time></trkpt><trkpt lat="55.7299658" lon="49.1966422"><time>2025-03-02T12:23:03.280</time></trkpt><trkpt lat="55.7299435" lon="49.1965725"><time>2025-03-02T12:24:07.423</time></trkpt><trkpt lat="55.7299632" lon="49.1964975"><time>2025-03-02T12:24:23.367</time></trkpt><trkpt lat="55.7300097" lon="49.1964563"><time>2025-03-02T12:25:45.283</time></trkpt><trkpt lat="55.7300480" lon="49.1963767"><time>2025-03-02T12:25:50.383</time></trkpt><trkpt lat="55.7300895" lon="49.1963435"><time>2025-03-02T12:25:54.380</time></trkpt><trkpt lat="55.7301335" lon="49.1963266"><time>2025-03-02T12:26:06.417</time></trkpt><trkpt lat="55.7301827" lon="49.1963210"><time>2025-03-02T12:26:12.397</time></trkpt><trkpt lat="55.7302295" lon="49.1963043"><time>2025-03-02T12:26:24.397</time></trkpt><trkpt lat="55.7302744" lon="49.1962851"><time>2025-03-02T12:26:33.420</time></trkpt><trkpt lat="55.7303268" lon="49.1963013"><time>2025-03-02T12:26:38.393</time></trkpt><trkpt lat="55.7303743" lon="49.1963381"><time>2025-03-02T12:26:44.390</time></trkpt><trkpt lat="55.7304222" lon="49.1963262"><time>2025-03-02T12:26:58.407</time></trkpt><trkpt lat="55.7304710" lon="49.1962969"><time>2025-03-02T12:27:06.287</time></trkpt><trkpt lat="55.7305111" lon="49.1962559"><time>2025-03-02T12:27:12.387</time></trkpt><trkpt lat="55.7305380" lon="49.1961862"><time>2025-03-02T12:27:18.377</time></trkpt><trkpt lat="55.7305847" lon="49.1961808"><time>2025-03-02T12:27:22.383</time></trkpt><trkpt lat="55.7306210" lon="49.1961256"><time>2025-03-02T12:27:29.393</time></trkpt><trkpt lat="55.7306562" lon="49.1960751"><time>2025-03-02T12:27:35.380</time></trkpt><trkpt lat="55.7306539" lon="49.1959872"><time>2025-03-02T12:28:43.393</time></trkpt><trkpt lat="55.7306756" lon="49.1959169"><time>2025-03-02T12:29:03.420</time></trkpt><trkpt lat="55.7307164" lon="49.1958540"><time>2025-03-02T12:29:08.413</time></trkpt><trkpt lat="55.7307501" lon="49.1957918"><time>2025-03-02T12:29:13.410</time></trkpt><trkpt lat="55.7307297" lon="49.1957023"><time>2025-03-02T12:29:17.417</time></trkpt><trkpt lat="55.7307586" lon="49.1956408"><time>2025-03-02T12:29:21.387</time></trkpt><trkpt lat="55.7307911" lon="49.1955739"><time>2025-03-02T12:29:24.410</time></trkpt><trkpt lat="55.7308178" lon="49.1954972"><time>2025-03-02T12:29:28.417</time></trkpt><trkpt lat="55.7308521" lon="49.1954321"><time>2025-03-02T12:29:31.393</time></trkpt><trkpt lat="55.7308880" lon="49.1953640"><time>2025-03-02T12:29:33.413</time></trkpt><trkpt lat="55.7309314" lon="49.1952864"><time>2025-03-02T12:29:36.407</time></trkpt><trkpt lat="55.7309591" lon="49.1952229"><time>2025-03-02T12:29:39.417</time></trkpt><trkpt lat="55.7309919" lon="49.1951517"><time>2025-03-02T12:29:43.290</time></trkpt><trkpt lat="55.7310394" lon="49.1951197"><time>2025-03-02T12:29:46.880</time></trkpt><trkpt lat="55.7310853" lon="49.1950704"><time>2025-03-02T12:29:49.400</time></trkpt><trkpt lat="55.7311269" lon="49.1950021"><time>2025-03-02T12:29:53.383</time></trkpt><trkpt lat="55.7311865" lon="49.1949621"><time>2025-03-02T12:29:59.390</time></trkpt><trkpt lat="55.7312388" lon="49.1949699"><time>2025-03-02T12:30:03.403</time></trkpt><trkpt lat="55.7312856" lon="49.1949331"><time>2025-03-02T12:30:07.387</time></trkpt><trkpt lat="55.7313200" lon="49.1948796"><time>2025-03-02T12:30:10.410</time></trkpt><trkpt lat="55.7313618" lon="49.1948190"><time>2025-03-02T12:30:14.417</time></trkpt><trkpt lat="55.7313970" lon="49.1947535"><time>2025-03-02T12:30:17.433</time></trkpt><trkpt lat="55.7314376" lon="49.1947146"><time>2025-03-02T12:30:25.390</time></trkpt><trkpt lat="55.7314911" lon="49.1946577"><time>2025-03-02T12:30:36.400</time></trkpt><trkpt lat="55.7315476" lon="49.1946071"><time>2025-03-02T12:30:38.390</time></trkpt><trkpt lat="55.7316046" lon="49.1945639"><time>2025-03-02T12:30:40.393</time></trkpt><trkpt lat="55.7316565" lon="49.1945293"><time>2025-03-02T12:30:42.297</time></trkpt><trkpt lat="55.7317129" lon="49.1944915"><time>2025-03-02T12:30:44.337</time></trkpt><trkpt lat="55.7317712" lon="49.1944585"><time>2025-03-02T12:30:46.417</time></trkpt><trkpt lat="55.7318275" lon="49.1944292"><time>2025-03-02T12:30:49.387</time></trkpt><trkpt lat="55.7318772" lon="49.1943948"><time>2025-03-02T12:30:52.397</time></trkpt><trkpt lat="55.7319373" lon="49.1943653"><time>2025-03-02T12:30:56.393</time></trkpt><trkpt lat="55.7319861" lon="49.1943548"><time>2025-03-02T12:30:59.390</time></trkpt><trkpt lat="55.7320423" lon="49.1943349"><time>2025-03-02T12:31:02.387</time></trkpt><trkpt lat="55.7321008" lon="49.1943078"><time>2025-03-02T12:31:05.420</time></trkpt><trkpt lat="55.7321525" lon="49.1943084"><time>2025-03-02T12:31:07.417</time></trkpt><trkpt lat="55.7321974" lon="49.1942926"><time>2025-03-02T12:31:10.383</time></trkpt><trkpt lat="55.7322486" lon="49.1942662"><time>2025-03-02T12:31:14.283</time></trkpt><trkpt lat="55.7322978" lon="49.1942694"><time>2025-03-02T12:31:19.290</time></trkpt><trkpt lat="55.7323721" lon="49.1942765"><time>2025-03-02T12:31:24.283</time></trkpt><trkpt lat="55.7324367" lon="49.1942782"><time>2025-03-02T12:31:27.290</time></trkpt><trkpt lat="55.7325037" lon="49.1943048"><time>2025-03-02T12:31:30.293</time></trkpt><trkpt lat="55.7325554" lon="49.1943142"><time>2025-03-02T12:31:33.287</time></trkpt><trkpt lat="55.7326069" lon="49.1943191"><time>2025-03-02T12:31:36.293</time></trkpt><trkpt lat="55.7326521" lon="49.1943100"><time>2025-03-02T12:31:39.293</time></trkpt><trkpt lat="55.7327115" lon="49.1942893"><time>2025-03-02T12:31:42.287</time></trkpt><trkpt lat="55.7327581" lon="49.1942683"><time>2025-03-02T12:31:45.280</time></trkpt><trkpt lat="55.7328012" lon="49.1942337"><time>2025-03-02T12:31:49.287</time></trkpt><trkpt lat="55.7328545" lon="49.1942172"><time>2025-03-02T12:31:52.287</time></trkpt><trkpt lat="55.7329091" lon="49.1941807"><time>2025-03-02T12:31:55.283</time></trkpt><trkpt lat="55.7329584" lon="49.1941550"><time>2025-03-02T12:31:59.287</time></trkpt><trkpt lat="55.7330134" lon="49.1941564"><time>2025-03-02T12:32:04.287</time></trkpt><trkpt lat="55.7330786" lon="49.1941581"><time>2025-03-02T12:32:08.287</time></trkpt><trkpt lat="55.7331245" lon="49.1941646"><time>2025-03-02T12:32:11.280</time></trkpt><trkpt lat="55.7331840" lon="49.1941641"><time>2025-03-02T12:32:15.287</time></trkpt><trkpt lat="55.7332309" lon="49.1941783"><time>2025-03-02T12:32:18.293</time></trkpt><trkpt lat="55.7332833" lon="49.1942127"><time>2025-03-02T12:32:22.287</time></trkpt><trkpt lat="55.7333359" lon="49.1942425"><time>2025-03-02T12:32:25.287</time></trkpt><trkpt lat="55.7333889" lon="49.1942778"><time>2025-03-02T12:32:28.287</time></trkpt><trkpt lat="55.7334456" lon="49.1942948"><time>2025-03-02T12:32:33.287</time></trkpt><trkpt lat="55.7334961" lon="49.1943301"><time>2025-03-02T12:32:36.287</time></trkpt><trkpt lat="55.7335608" lon="49.1943612"><time>2025-03-02T12:32:39.287</time></trkpt><trkpt lat="55.7336107" lon="49.1943842"><time>2025-03-02T12:32:42.287</time></trkpt><trkpt lat="55.7336597" lon="49.1943974"><time>2025-03-02T12:32:46.290</time></trkpt><trkpt lat="55.7337068" lon="49.1943986"><time>2025-03-02T12:32:52.287</time></trkpt><trkpt lat="55.7337506" lon="49.1944163"><time>2025-03-02T12:33:05.293</time></trkpt><trkpt lat="55.7337885" lon="49.1944619"><time>2025-03-02T12:33:18.380</time></trkpt><trkpt lat="55.7338354" lon="49.1945178"><time>2025-03-02T12:33:22.417</time></trkpt><trkpt lat="55.7338639" lon="49.1946066"><time>2025-03-02T12:33:26.413</time></trkpt><trkpt lat="55.7338818" lon="49.1946914"><time>2025-03-02T12:33:29.400</time></trkpt><trkpt lat="55.7338831" lon="49.1947713"><time>2025-03-02T12:33:32.407</time></trkpt><trkpt lat="55.7338782" lon="49.1948572"><time>2025-03-02T12:33:35.387</time></trkpt><trkpt lat="55.7338837" lon="49.1949460"><time>2025-03-02T12:33:38.387</time></trkpt><trkpt lat="55.7338909" lon="49.1950320"><time>2025-03-02T12:33:43.293</time></trkpt><trkpt lat="55.7338865" lon="49.1951201"><time>2025-03-02T12:33:48.377</time></trkpt><trkpt lat="55.7338957" lon="49.1952084"><time>2025-03-02T12:33:53.423</time></trkpt><trkpt lat="55.7339032" lon="49.1952977"><time>2025-03-02T12:33:57.390</time></trkpt><trkpt lat="55.7338834" lon="49.1953733"><time>2025-03-02T12:34:00.417</time></trkpt><trkpt lat="55.7338760" lon="49.1954713"><time>2025-03-02T12:34:04.387</time></trkpt><trkpt lat="55.7338745" lon="49.1955632"><time>2025-03-02T12:34:08.387</time></trkpt><trkpt lat="55.7338892" lon="49.1956611"><time>2025-03-02T12:34:11.420</time></trkpt><trkpt lat="55.7338774" lon="49.1957444"><time>2025-03-02T12:34:14.427</time></trkpt><trkpt lat="55.7338675" lon="49.1958374"><time>2025-03-02T12:34:17.413</time></trkpt><trkpt lat="55.7338684" lon="49.1959251"><time>2025-03-02T12:34:20.410</time></trkpt><trkpt lat="55.7338576" lon="49.1960057"><time>2025-03-02T12:34:24.387</time></trkpt><trkpt lat="55.7338442" lon="49.1961187"><time>2025-03-02T12:34:28.383</time></trkpt><trkpt lat="55.7338463" lon="49.1962020"><time>2025-03-02T12:34:33.417</time></trkpt><trkpt lat="55.7338620" lon="49.1962964"><time>2025-03-02T12:34:39.387</time></trkpt><trkpt lat="55.7338415" lon="49.1963870"><time>2025-03-02T12:34:41.383</time></trkpt><trkpt lat="55.7338315" lon="49.1964796"><time>2025-03-02T12:34:45.387</time></trkpt><trkpt lat="55.7338336" lon="49.1965732"><time>2025-03-02T12:34:51.283</time></trkpt><trkpt lat="55.7338078" lon="49.1966660"><time>2025-03-02T12:34:55.440</time></trkpt><trkpt lat="55.7337874" lon="49.1967409"><time>2025-03-02T12:34:58.423</time></trkpt><trkpt lat="55.7337713" lon="49.1968175"><time>2025-03-02T12:35:03.390</time></trkpt><trkpt lat="55.7337672" lon="49.1969019"><time>2025-03-02T12:35:06.390</time></trkpt><trkpt lat="55.7337703" lon="49.1970110"><time>2025-03-02T12:35:09.397</time></trkpt><trkpt lat="55.7337701" lon="49.1971154"><time>2025-03-02T12:35:12.387</time></trkpt><trkpt lat="55.7337537" lon="49.1972044"><time>2025-03-02T12:35:15.390</time></trkpt><trkpt lat="55.7337293" lon="49.1972992"><time>2025-03-02T12:35:18.337</time></trkpt><trkpt lat="55.7337106" lon="49.1973811"><time>2025-03-02T12:35:21.380</time></trkpt><trkpt lat="55.7337050" lon="49.1974776"><time>2025-03-02T12:35:36.383</time></trkpt><trkpt lat="55.7337134" lon="49.1975802"><time>2025-03-02T12:35:39.423</time></trkpt><trkpt lat="55.7337120" lon="49.1976693"><time>2025-03-02T12:35:43.290</time></trkpt><trkpt lat="55.7337136" lon="49.1977548"><time>2025-03-02T12:35:46.390</time></trkpt><trkpt lat="55.7336990" lon="49.1978356"><time>2025-03-02T12:35:49.427</time></trkpt><trkpt lat="55.7336927" lon="49.1979238"><time>2025-03-02T12:35:57.403</time></trkpt><trkpt lat="55.7337327" lon="49.1979748"><time>2025-03-02T12:36:05.423</time></trkpt><trkpt lat="55.7337813" lon="49.1979346"><time>2025-03-02T12:36:09.413</time></trkpt><trkpt lat="55.7338285" lon="49.1978980"><time>2025-03-02T12:36:13.417</time></trkpt><trkpt lat="55.7338792" lon="49.1979199"><time>2025-03-02T12:36:22.380</time></trkpt><trkpt lat="55.7339272" lon="49.1979304"><time>2025-03-02T12:36:25.383</time></trkpt><trkpt lat="55.7339170" lon="49.1979722"><time>2025-03-02T12:37:29.097</time></trkpt><trkpt lat="55.7339185" lon="49.1980086"><time>2025-03-02T12:37:36.287</time></trkpt><trkpt lat="55.7339221" lon="49.1979244"><time>2025-03-02T12:38:02.287</time></trkpt><trkpt lat="55.7339495" lon="49.1978610"><time>2025-03-02T12:38:13.287</time></trkpt><trkpt lat="55.7339806" lon="49.1977884"><time>2025-03-02T12:39:08.293</time></trkpt><trkpt lat="55.7340231" lon="49.1977376"><time>2025-03-02T12:39:12.287</time></trkpt><trkpt lat="55.7340744" lon="49.1976834"><time>2025-03-02T12:39:17.287</time></trkpt><trkpt lat="55.7341260" lon="49.1976498"><time>2025-03-02T12:39:19.417</time></trkpt><trkpt lat="55.7341779" lon="49.1976192"><time>2025-03-02T12:39:23.393</time></trkpt><trkpt lat="55.7342327" lon="49.1975677"><time>2025-03-02T12:39:26.420</time></trkpt><trkpt lat="55.7342977" lon="49.1975152"><time>2025-03-02T12:39:28.397</time></trkpt><trkpt lat="55.7343535" lon="49.1974402"><time>2025-03-02T12:39:31.430</time></trkpt><trkpt lat="55.7343896" lon="49.1973870"><time>2025-03-02T12:39:34.400</time></trkpt><trkpt lat="55.7344411" lon="49.1973372"><time>2025-03-02T12:39:39.427</time></trkpt><trkpt lat="55.7344756" lon="49.1972808"><time>2025-03-02T12:39:43.283</time></trkpt><trkpt lat="55.7345019" lon="49.1972053"><time>2025-03-02T12:39:50.430</time></trkpt><trkpt lat="55.7345292" lon="49.1971243"><time>2025-03-02T12:39:55.390</time></trkpt><trkpt lat="55.7345490" lon="49.1970325"><time>2025-03-02T12:39:59.403</time></trkpt><trkpt lat="55.7345809" lon="49.1969567"><time>2025-03-02T12:40:02.423</time></trkpt><trkpt lat="55.7345871" lon="49.1968575"><time>2025-03-02T12:40:05.400</time></trkpt><trkpt lat="55.7345918" lon="49.1967659"><time>2025-03-02T12:40:07.407</time></trkpt><trkpt lat="55.7345999" lon="49.1966805"><time>2025-03-02T12:40:09.420</time></trkpt><trkpt lat="55.7345991" lon="49.1965649"><time>2025-03-02T12:40:12.407</time></trkpt><trkpt lat="55.7346026" lon="49.1964761"><time>2025-03-02T12:40:14.433</time></trkpt><trkpt lat="55.7346059" lon="49.1963752"><time>2025-03-02T12:40:17.397</time></trkpt><trkpt lat="55.7346176" lon="49.1962963"><time>2025-03-02T12:40:19.400</time></trkpt><trkpt lat="55.7346508" lon="49.1962156"><time>2025-03-02T12:40:22.407</time></trkpt><trkpt lat="55.7346802" lon="49.1961492"><time>2025-03-02T12:40:26.297</time></trkpt><trkpt lat="55.7347123" lon="49.1960723"><time>2025-03-02T12:40:30.403</time></trkpt><trkpt lat="55.7347372" lon="49.1959974"><time>2025-03-02T12:40:34.420</time></trkpt><trkpt lat="55.7347602" lon="49.1959023"><time>2025-03-02T12:40:39.430</time></trkpt><trkpt lat="55.7347558" lon="49.1957979"><time>2025-03-02T12:40:43.297</time></trkpt><trkpt lat="55.7347491" lon="49.1957070"><time>2025-03-02T12:40:45.400</time></trkpt><trkpt lat="55.7347426" lon="49.1956207"><time>2025-03-02T12:40:47.407</time></trkpt><trkpt lat="55.7347453" lon="49.1955194"><time>2025-03-02T12:40:50.303</time></trkpt><trkpt lat="55.7347757" lon="49.1954355"><time>2025-03-02T12:40:52.297</time></trkpt><trkpt lat="55.7348122" lon="49.1953680"><time>2025-03-02T12:40:54.403</time></trkpt><trkpt lat="55.7348425" lon="49.1953013"><time>2025-03-02T12:40:56.427</time></trkpt><trkpt lat="55.7348645" lon="49.1952162"><time>2025-03-02T12:40:59.420</time></trkpt><trkpt lat="55.7349076" lon="49.1951416"><time>2025-03-02T12:41:02.397</time></trkpt><trkpt lat="55.7349458" lon="49.1950811"><time>2025-03-02T12:41:04.407</time></trkpt><trkpt lat="55.7349979" lon="49.1950156"><time>2025-03-02T12:41:06.427</time></trkpt><trkpt lat="55.7350443" lon="49.1949436"><time>2025-03-02T12:41:09.433</time></trkpt><trkpt lat="55.7350807" lon="49.1948777"><time>2025-03-02T12:41:11.407</time></trkpt><trkpt lat="55.7351242" lon="49.1947912"><time>2025-03-02T12:41:14.283</time></trkpt><trkpt lat="55.7351697" lon="49.1947357"><time>2025-03-02T12:41:16.407</time></trkpt><trkpt lat="55.7352205" lon="49.1946862"><time>2025-03-02T12:41:19.420</time></trkpt><trkpt lat="55.7352630" lon="49.1946108"><time>2025-03-02T12:41:22.403</time></trkpt><trkpt lat="55.7353043" lon="49.1945667"><time>2025-03-02T12:41:24.423</time></trkpt><trkpt lat="55.7353500" lon="49.1945283"><time>2025-03-02T12:41:26.307</time></trkpt><trkpt lat="55.7353938" lon="49.1944763"><time>2025-03-02T12:41:28.397</time></trkpt><trkpt lat="55.7354461" lon="49.1944158"><time>2025-03-02T12:41:30.400</time></trkpt><trkpt lat="55.7354885" lon="49.1943349"><time>2025-03-02T12:41:33.413</time></trkpt><trkpt lat="55.7355261" lon="49.1942562"><time>2025-03-02T12:41:36.417</time></trkpt><trkpt lat="55.7355739" lon="49.1942305"><time>2025-03-02T12:41:39.423</time></trkpt><trkpt lat="55.7356250" lon="49.1942406"><time>2025-03-02T12:41:43.293</time></trkpt><trkpt lat="55.7356689" lon="49.1942108"><time>2025-03-02T12:41:49.417</time></trkpt><trkpt lat="55.7356451" lon="49.1941431"><time>2025-03-02T12:42:06.297</time></trkpt><trkpt lat="55.7356774" lon="49.1940631"><time>2025-03-02T12:42:11.287</time></trkpt><trkpt lat="55.7357121" lon="49.1939929"><time>2025-03-02T12:42:16.403</time></trkpt><trkpt lat="55.7357239" lon="49.1938981"><time>2025-03-02T12:42:19.423</time></trkpt><trkpt lat="55.7357103" lon="49.1938074"><time>2025-03-02T12:42:21.287</time></trkpt><trkpt lat="55.7357045" lon="49.1937222"><time>2025-03-02T12:42:25.430</time></trkpt><trkpt lat="55.7357117" lon="49.1936319"><time>2025-03-02T12:42:28.400</time></trkpt><trkpt lat="55.7356905" lon="49.1935610"><time>2025-03-02T12:42:31.400</time></trkpt><trkpt lat="55.7356495" lon="49.1934954"><time>2025-03-02T12:42:34.437</time></trkpt><trkpt lat="55.7356066" lon="49.1934418"><time>2025-03-02T12:42:36.430</time></trkpt><trkpt lat="55.7355700" lon="49.1933952"><time>2025-03-02T12:42:38.423</time></trkpt><trkpt lat="55.7355265" lon="49.1933454"><time>2025-03-02T12:42:40.413</time></trkpt><trkpt lat="55.7354921" lon="49.1932847"><time>2025-03-02T12:42:42.423</time></trkpt><trkpt lat="55.7354688" lon="49.1931996"><time>2025-03-02T12:42:44.393</time></trkpt><trkpt lat="55.7354510" lon="49.1931216"><time>2025-03-02T12:42:47.397</time></trkpt><trkpt lat="55.7354244" lon="49.1930092"><time>2025-03-02T12:42:50.293</time></trkpt><trkpt lat="55.7353970" lon="49.1929279"><time>2025-03-02T12:42:52.397</time></trkpt><trkpt lat="55.7353777" lon="49.1928556"><time>2025-03-02T12:42:54.420</time></trkpt><trkpt lat="55.7353774" lon="49.1927576"><time>2025-03-02T12:42:56.397</time></trkpt><trkpt lat="55.7353653" lon="49.1926494"><time>2025-03-02T12:43:00.417</time></trkpt><trkpt lat="55.7353320" lon="49.1925913"><time>2025-03-02T12:43:02.403</time></trkpt><trkpt lat="55.7352991" lon="49.1925266"><time>2025-03-02T12:43:04.423</time></trkpt><trkpt lat="55.7352615" lon="49.1924565"><time>2025-03-02T12:43:07.420</time></trkpt><trkpt lat="55.7352189" lon="49.1924189"><time>2025-03-02T12:43:10.430</time></trkpt><trkpt lat="55.7351698" lon="49.1923624"><time>2025-03-02T12:43:12.420</time></trkpt><trkpt lat="55.7351182" lon="49.1923072"><time>2025-03-02T12:43:15.400</time></trkpt><trkpt lat="55.7350790" lon="49.1922582"><time>2025-03-02T12:43:18.427</time></trkpt><trkpt lat="55.7350527" lon="49.1921551"><time>2025-03-02T12:43:21.417</time></trkpt><trkpt lat="55.7350254" lon="49.1920902"><time>2025-03-02T12:43:23.420</time></trkpt><trkpt lat="55.7349844" lon="49.1920244"><time>2025-03-02T12:43:25.427</time></trkpt><trkpt lat="55.7349503" lon="49.1919481"><time>2025-03-02T12:43:27.400</time></trkpt><trkpt lat="55.7349239" lon="49.1918734"><time>2025-03-02T12:43:34.437</time></trkpt><trkpt lat="55.7348876" lon="49.1918151"><time>2025-03-02T12:43:41.423</time></trkpt><trkpt lat="55.7348553" lon="49.1917412"><time>2025-03-02T12:43:45.287</time></trkpt><trkpt lat="55.7348473" lon="49.1916576"><time>2025-03-02T12:43:49.430</time></trkpt><trkpt lat="55.7348479" lon="49.1915706"><time>2025-03-02T12:43:53.420</time></trkpt><trkpt lat="55.7348369" lon="49.1914803"><time>2025-03-02T12:43:57.397</time></trkpt><trkpt lat="55.7348126" lon="49.1914012"><time>2025-03-02T12:43:59.437</time></trkpt><trkpt lat="55.7347897" lon="49.1913225"><time>2025-03-02T12:44:02.427</time></trkpt><trkpt lat="55.7347554" lon="49.1912491"><time>2025-03-02T12:44:05.410</time></trkpt><trkpt lat="55.7347341" lon="49.1911711"><time>2025-03-02T12:44:11.427</time></trkpt><trkpt lat="55.7347213" lon="49.1910891"><time>2025-03-02T12:44:21.417</time></trkpt><trkpt lat="55.7346871" lon="49.1910360"><time>2025-03-02T12:44:24.287</time></trkpt><trkpt lat="55.7346510" lon="49.1909845"><time>2025-03-02T12:44:27.397</time></trkpt><trkpt lat="55.7346326" lon="49.1908979"><time>2025-03-02T12:44:31.307</time></trkpt><trkpt lat="55.7346205" lon="49.1908207"><time>2025-03-02T12:44:33.337</time></trkpt><trkpt lat="55.7345903" lon="49.1907244"><time>2025-03-02T12:44:36.300</time></trkpt><trkpt lat="55.7345489" lon="49.1906420"><time>2025-03-02T12:44:39.433</time></trkpt><trkpt lat="55.7345172" lon="49.1905778"><time>2025-03-02T12:44:41.423</time></trkpt><trkpt lat="55.7344859" lon="49.1905142"><time>2025-03-02T12:44:43.287</time></trkpt><trkpt lat="55.7344558" lon="49.1904024"><time>2025-03-02T12:44:46.293</time></trkpt><trkpt lat="55.7344240" lon="49.1903233"><time>2025-03-02T12:44:49.423</time></trkpt><trkpt lat="55.7343892" lon="49.1902531"><time>2025-03-02T12:44:53.420</time></trkpt><trkpt lat="55.7343524" lon="49.1901743"><time>2025-03-02T12:44:57.427</time></trkpt><trkpt lat="55.7343247" lon="49.1900794"><time>2025-03-02T12:45:00.417</time></trkpt><trkpt lat="55.7342994" lon="49.1899733"><time>2025-03-02T12:45:03.420</time></trkpt><trkpt lat="55.7342735" lon="49.1898654"><time>2025-03-02T12:45:06.423</time></trkpt><trkpt lat="55.7342486" lon="49.1897678"><time>2025-03-02T12:45:08.427</time></trkpt><trkpt lat="55.7342184" lon="49.1896614"><time>2025-03-02T12:45:11.403</time></trkpt><trkpt lat="55.7341979" lon="49.1895756"><time>2025-03-02T12:45:15.423</time></trkpt><trkpt lat="55.7341565" lon="49.1894929"><time>2025-03-02T12:45:18.427</time></trkpt><trkpt lat="55.7341297" lon="49.1894218"><time>2025-03-02T12:45:20.397</time></trkpt><trkpt lat="55.7340954" lon="49.1893404"><time>2025-03-02T12:45:23.420</time></trkpt><trkpt lat="55.7340664" lon="49.1892700"><time>2025-03-02T12:45:25.420</time></trkpt><trkpt lat="55.7340431" lon="49.1891901"><time>2025-03-02T12:45:28.427</time></trkpt><trkpt lat="55.7340311" lon="49.1891053"><time>2025-03-02T12:45:31.417</time></trkpt><trkpt lat="55.7340215" lon="49.1890267"><time>2025-03-02T12:45:36.293</time></trkpt><trkpt lat="55.7340126" lon="49.1889280"><time>2025-03-02T12:45:47.393</time></trkpt><trkpt lat="55.7339950" lon="49.1888459"><time>2025-03-02T12:45:52.397</time></trkpt><trkpt lat="55.7339975" lon="49.1887625"><time>2025-03-02T12:45:58.410</time></trkpt><trkpt lat="55.7339994" lon="49.1886817"><time>2025-03-02T12:46:01.390</time></trkpt><trkpt lat="55.7340133" lon="49.1885738"><time>2025-03-02T12:46:05.427</time></trkpt><trkpt lat="55.7340370" lon="49.1884756"><time>2025-03-02T12:46:09.410</time></trkpt><trkpt lat="55.7340510" lon="49.1883829"><time>2025-03-02T12:46:12.423</time></trkpt><trkpt lat="55.7340605" lon="49.1882954"><time>2025-03-02T12:46:14.420</time></trkpt><trkpt lat="55.7340668" lon="49.1882104"><time>2025-03-02T12:46:16.417</time></trkpt><trkpt lat="55.7340795" lon="49.1881001"><time>2025-03-02T12:46:19.427</time></trkpt><trkpt lat="55.7340859" lon="49.1880162"><time>2025-03-02T12:46:21.417</time></trkpt><trkpt lat="55.7340959" lon="49.1879321"><time>2025-03-02T12:46:23.417</time></trkpt><trkpt lat="55.7341012" lon="49.1878488"><time>2025-03-02T12:46:26.343</time></trkpt><trkpt lat="55.7340909" lon="49.1877700"><time>2025-03-02T12:46:41.423</time></trkpt><trkpt lat="55.7341305" lon="49.1876864"><time>2025-03-02T12:46:43.423</time></trkpt><trkpt lat="55.7341481" lon="49.1876116"><time>2025-03-02T12:46:48.427</time></trkpt><trkpt lat="55.7341760" lon="49.1875359"><time>2025-03-02T12:46:53.287</time></trkpt><trkpt lat="55.7342204" lon="49.1875019"><time>2025-03-02T12:46:56.297</time></trkpt><trkpt lat="55.7342734" lon="49.1874659"><time>2025-03-02T12:47:00.293</time></trkpt><trkpt lat="55.7343132" lon="49.1874248"><time>2025-03-02T12:47:03.300</time></trkpt><trkpt lat="55.7343678" lon="49.1873569"><time>2025-03-02T12:47:06.297</time></trkpt><trkpt lat="55.7344065" lon="49.1873124"><time>2025-03-02T12:47:08.300</time></trkpt><trkpt lat="55.7344443" lon="49.1872616"><time>2025-03-02T12:47:10.297</time></trkpt><trkpt lat="55.7344797" lon="49.1872091"><time>2025-03-02T12:47:12.300</time></trkpt><trkpt lat="55.7345305" lon="49.1871474"><time>2025-03-02T12:47:15.290</time></trkpt><trkpt lat="55.7345712" lon="49.1870885"><time>2025-03-02T12:47:18.300</time></trkpt><trkpt lat="55.7346223" lon="49.1870175"><time>2025-03-02T12:47:21.303</time></trkpt><trkpt lat="55.7346647" lon="49.1869481"><time>2025-03-02T12:47:24.290</time></trkpt><trkpt lat="55.7346978" lon="49.1868818"><time>2025-03-02T12:47:27.300</time></trkpt><trkpt lat="55.7347317" lon="49.1868049"><time>2025-03-02T12:47:30.293</time></trkpt><trkpt lat="55.7347797" lon="49.1867397"><time>2025-03-02T12:47:33.297</time></trkpt><trkpt lat="55.7348108" lon="49.1866821"><time>2025-03-02T12:47:36.300</time></trkpt><trkpt lat="55.7348484" lon="49.1866112"><time>2025-03-02T12:47:41.290</time></trkpt><trkpt lat="55.7348925" lon="49.1865497"><time>2025-03-02T12:47:59.290</time></trkpt><trkpt lat="55.7349284" lon="49.1864993"><time>2025-03-02T12:48:08.290</time></trkpt><trkpt lat="55.7349749" lon="49.1864977"><time>2025-03-02T12:48:21.293</time></trkpt><trkpt lat="55.7350241" lon="49.1864824"><time>2025-03-02T12:48:26.290</time></trkpt><trkpt lat="55.7350530" lon="49.1865479"><time>2025-03-02T12:48:47.290</time></trkpt><trkpt lat="55.7350666" lon="49.1866306"><time>2025-03-02T12:48:53.290</time></trkpt><trkpt lat="55.7350805" lon="49.1867148"><time>2025-03-02T12:48:58.290</time></trkpt><trkpt lat="55.7351161" lon="49.1867665"><time>2025-03-02T12:49:02.293</time></trkpt><trkpt lat="55.7351564" lon="49.1868173"><time>2025-03-02T12:49:07.287</time></trkpt><trkpt lat="55.7351901" lon="49.1868723"><time>2025-03-02T12:49:13.297</time></trkpt><trkpt lat="55.7352226" lon="49.1867964"><time>2025-03-02T12:49:30.293</time></trkpt><trkpt lat="55.7352335" lon="49.1867065"><time>2025-03-02T12:49:34.293</time></trkpt><trkpt lat="55.7352446" lon="49.1866174"><time>2025-03-02T12:49:37.303</time></trkpt><trkpt lat="55.7352565" lon="49.1865208"><time>2025-03-02T12:49:41.290</time></trkpt><trkpt lat="55.7352642" lon="49.1864375"><time>2025-03-02T12:49:45.290</time></trkpt><trkpt lat="55.7352883" lon="49.1863629"><time>2025-03-02T12:49:51.290</time></trkpt><trkpt lat="55.7353073" lon="49.1864422"><time>2025-03-02T12:50:03.293</time></trkpt><trkpt lat="55.7352901" lon="49.1864561"><time>2025-03-02T12:50:29.540</time></trkpt><trkpt lat="55.7353512" lon="49.1864729"><time>2025-03-02T12:51:03.287</time></trkpt><trkpt lat="55.7371715" lon="49.1925722"><time>2025-03-02T13:01:21.403</time></trkpt><trkpt lat="55.7372634" lon="49.1925822"><time>2025-03-02T13:01:22.380</time></trkpt><trkpt lat="55.7373150" lon="49.1925919"><time>2025-03-02T13:01:24.390</time></trkpt><trkpt lat="55.7375554" lon="49.1923929"><time>2025-03-02T13:02:29.307</time></trkpt><trkpt lat="55.7375836" lon="49.1923731"><time>2025-03-02T13:02:37.377</time></trkpt><trkpt lat="55.7375219" lon="49.1924712"><time>2025-03-02T13:03:05.303</time></trkpt><trkpt lat="55.7375010" lon="49.1925625"><time>2025-03-02T13:03:06.303</time></trkpt><trkpt lat="55.7375505" lon="49.1926478"><time>2025-03-02T13:03:10.303</time></trkpt><trkpt lat="55.7375314" lon="49.1925738"><time>2025-03-02T13:05:03.410</time></trkpt><trkpt lat="55.7374828" lon="49.1925645"><time>2025-03-02T13:05:07.393</time></trkpt><trkpt lat="55.7374334" lon="49.1925818"><time>2025-03-02T13:05:11.430</time></trkpt><trkpt lat="55.7373768" lon="49.1926165"><time>2025-03-02T13:05:14.420</time></trkpt><trkpt lat="55.7373219" lon="49.1925929"><time>2025-03-02T13:05:19.310</time></trkpt><trkpt lat="55.7373110" lon="49.1926904"><time>2025-03-02T13:05:29.393</time></trkpt><trkpt lat="55.7373237" lon="49.1927731"><time>2025-03-02T13:05:31.313</time></trkpt><trkpt lat="55.7373448" lon="49.1928515"><time>2025-03-02T13:05:33.427</time></trkpt><trkpt lat="55.7373922" lon="49.1928970"><time>2025-03-02T13:05:35.440</time></trkpt><trkpt lat="55.7374369" lon="49.1929631"><time>2025-03-02T13:05:38.393</time></trkpt><trkpt lat="55.7374790" lon="49.1930041"><time>2025-03-02T13:05:41.407</time></trkpt><trkpt lat="55.7375223" lon="49.1930373"><time>2025-03-02T13:05:48.410</time></trkpt><trkpt lat="55.7375625" lon="49.1930742"><time>2025-03-02T13:05:59.423</time></trkpt><trkpt lat="55.7375878" lon="49.1931462"><time>2025-03-02T13:06:06.433</time></trkpt><trkpt lat="55.7375601" lon="49.1932185"><time>2025-03-02T13:06:13.430</time></trkpt><trkpt lat="55.7375150" lon="49.1932379"><time>2025-03-02T13:06:19.427</time></trkpt><trkpt lat="55.7374695" lon="49.1932784"><time>2025-03-02T13:07:11.427</time></trkpt><trkpt lat="55.7374460" lon="49.1933467"><time>2025-03-02T13:07:16.427</time></trkpt><trkpt lat="55.7374088" lon="49.1934095"><time>2025-03-02T13:07:23.430</time></trkpt><trkpt lat="55.7373890" lon="49.1934908"><time>2025-03-02T13:07:37.427</time></trkpt><trkpt lat="55.7373583" lon="49.1935783"><time>2025-03-02T13:07:42.427</time></trkpt><trkpt lat="55.7373139" lon="49.1936706"><time>2025-03-02T13:07:46.430</time></trkpt><trkpt lat="55.7372909" lon="49.1937559"><time>2025-03-02T13:07:49.430</time></trkpt><trkpt lat="55.7372669" lon="49.1938555"><time>2025-03-02T13:07:52.437</time></trkpt><trkpt lat="55.7372446" lon="49.1939294"><time>2025-03-02T13:07:55.423</time></trkpt><trkpt lat="55.7372429" lon="49.1940300"><time>2025-03-02T13:08:00.403</time></trkpt><trkpt lat="55.7372293" lon="49.1941257"><time>2025-03-02T13:08:04.417</time></trkpt><trkpt lat="55.7371901" lon="49.1941994"><time>2025-03-02T13:08:10.410</time></trkpt><trkpt lat="55.7371658" lon="49.1942801"><time>2025-03-02T13:08:16.410</time></trkpt><trkpt lat="55.7371254" lon="49.1943214"><time>2025-03-02T13:08:21.437</time></trkpt><trkpt lat="55.7370970" lon="49.1943874"><time>2025-03-02T13:08:25.410</time></trkpt><trkpt lat="55.7371055" lon="49.1944688"><time>2025-03-02T13:08:32.437</time></trkpt><trkpt lat="55.7371068" lon="49.1945526"><time>2025-03-02T13:08:37.413</time></trkpt><trkpt lat="55.7370919" lon="49.1946567"><time>2025-03-02T13:08:43.413</time></trkpt><trkpt lat="55.7370879" lon="49.1947364"><time>2025-03-02T13:08:46.457</time></trkpt><trkpt lat="55.7370571" lon="49.1948054"><time>2025-03-02T13:08:52.430</time></trkpt><trkpt lat="55.7370433" lon="49.1948961"><time>2025-03-02T13:08:57.433</time></trkpt><trkpt lat="55.7370307" lon="49.1949757"><time>2025-03-02T13:09:02.427</time></trkpt><trkpt lat="55.7370254" lon="49.1950770"><time>2025-03-02T13:09:08.427</time></trkpt><trkpt lat="55.7369993" lon="49.1951584"><time>2025-03-02T13:09:15.407</time></trkpt><trkpt lat="55.7369685" lon="49.1952252"><time>2025-03-02T13:09:18.427</time></trkpt><trkpt lat="55.7369311" lon="49.1952924"><time>2025-03-02T13:09:21.443</time></trkpt><trkpt lat="55.7368940" lon="49.1953387"><time>2025-03-02T13:09:23.437</time></trkpt><trkpt lat="55.7368521" lon="49.1953789"><time>2025-03-02T13:09:27.407</time></trkpt><trkpt lat="55.7368116" lon="49.1954247"><time>2025-03-02T13:09:30.390</time></trkpt><trkpt lat="55.7367969" lon="49.1955100"><time>2025-03-02T13:09:35.303</time></trkpt><trkpt lat="55.7368187" lon="49.1956015"><time>2025-03-02T13:09:38.397</time></trkpt><trkpt lat="55.7368287" lon="49.1957001"><time>2025-03-02T13:09:42.353</time></trkpt><trkpt lat="55.7368141" lon="49.1957934"><time>2025-03-02T13:09:45.297</time></trkpt><trkpt lat="55.7367899" lon="49.1958748"><time>2025-03-02T13:09:49.417</time></trkpt><trkpt lat="55.7367934" lon="49.1959714"><time>2025-03-02T13:09:54.457</time></trkpt><trkpt lat="55.7367633" lon="49.1960349"><time>2025-03-02T13:10:04.297</time></trkpt><trkpt lat="55.7367236" lon="49.1960783"><time>2025-03-02T13:10:19.433</time></trkpt><trkpt lat="55.7367219" lon="49.1961587"><time>2025-03-02T13:10:47.400</time></trkpt><trkpt lat="55.7367377" lon="49.1962552"><time>2025-03-02T13:11:18.387</time></trkpt><trkpt lat="55.7367592" lon="49.1963265"><time>2025-03-02T13:11:21.433</time></trkpt><trkpt lat="55.7367690" lon="49.1964174"><time>2025-03-02T13:11:25.453</time></trkpt><trkpt lat="55.7368021" lon="49.1964751"><time>2025-03-02T13:11:28.410</time></trkpt><trkpt lat="55.7368247" lon="49.1965569"><time>2025-03-02T13:11:31.420</time></trkpt><trkpt lat="55.7368242" lon="49.1966445"><time>2025-03-02T13:11:35.307</time></trkpt><trkpt lat="55.7368325" lon="49.1967374"><time>2025-03-02T13:11:38.427</time></trkpt><trkpt lat="55.7368591" lon="49.1968215"><time>2025-03-02T13:11:43.420</time></trkpt><trkpt lat="55.7368600" lon="49.1969012"><time>2025-03-02T13:11:46.397</time></trkpt><trkpt lat="55.7368466" lon="49.1969814"><time>2025-03-02T13:11:49.433</time></trkpt><trkpt lat="55.7368132" lon="49.1970635"><time>2025-03-02T13:11:54.430</time></trkpt><trkpt lat="55.7367842" lon="49.1971536"><time>2025-03-02T13:11:58.430</time></trkpt><trkpt lat="55.7367571" lon="49.1972285"><time>2025-03-02T13:12:17.440</time></trkpt><trkpt lat="55.7367402" lon="49.1973027"><time>2025-03-02T13:12:21.430</time></trkpt><trkpt lat="55.7367089" lon="49.1973744"><time>2025-03-02T13:12:30.300</time></trkpt><trkpt lat="55.7366789" lon="49.1974589"><time>2025-03-02T13:12:34.397</time></trkpt><trkpt lat="55.7366450" lon="49.1975435"><time>2025-03-02T13:12:37.397</time></trkpt><trkpt lat="55.7366133" lon="49.1976375"><time>2025-03-02T13:12:41.437</time></trkpt><trkpt lat="55.7365765" lon="49.1977092"><time>2025-03-02T13:12:44.387</time></trkpt><trkpt lat="55.7365496" lon="49.1977752"><time>2025-03-02T13:12:46.383</time></trkpt><trkpt lat="55.7365232" lon="49.1978499"><time>2025-03-02T13:12:50.430</time></trkpt><trkpt lat="55.7364766" lon="49.1978810"><time>2025-03-02T13:12:54.403</time></trkpt><trkpt lat="55.7364372" lon="49.1979301"><time>2025-03-02T13:12:58.303</time></trkpt><trkpt lat="55.7364047" lon="49.1980064"><time>2025-03-02T13:13:04.430</time></trkpt><trkpt lat="55.7363823" lon="49.1980757"><time>2025-03-02T13:13:10.407</time></trkpt><trkpt lat="55.7363545" lon="49.1981825"><time>2025-03-02T13:13:13.413</time></trkpt><trkpt lat="55.7363327" lon="49.1982554"><time>2025-03-02T13:13:15.410</time></trkpt><trkpt lat="55.7363063" lon="49.1983465"><time>2025-03-02T13:13:18.417</time></trkpt><trkpt lat="55.7362878" lon="49.1984243"><time>2025-03-02T13:13:20.417</time></trkpt><trkpt lat="55.7362688" lon="49.1985046"><time>2025-03-02T13:13:23.407</time></trkpt><trkpt lat="55.7362537" lon="49.1985820"><time>2025-03-02T13:13:30.420</time></trkpt><trkpt lat="55.7362204" lon="49.1986361"><time>2025-03-02T13:13:36.410</time></trkpt><trkpt lat="55.7362037" lon="49.1987308"><time>2025-03-02T13:13:41.433</time></trkpt><trkpt lat="55.7361753" lon="49.1987977"><time>2025-03-02T13:13:44.400</time></trkpt><trkpt lat="55.7361374" lon="49.1988725"><time>2025-03-02T13:13:46.400</time></trkpt><trkpt lat="55.7361009" lon="49.1989446"><time>2025-03-02T13:13:48.410</time></trkpt><trkpt lat="55.7360666" lon="49.1990202"><time>2025-03-02T13:13:50.403</time></trkpt><trkpt lat="55.7360174" lon="49.1991345"><time>2025-03-02T13:13:53.397</time></trkpt><trkpt lat="55.7359793" lon="49.1992135"><time>2025-03-02T13:13:55.400</time></trkpt><trkpt lat="55.7359439" lon="49.1992937"><time>2025-03-02T13:13:57.403</time></trkpt><trkpt lat="55.7359047" lon="49.1993461"><time>2025-03-02T13:13:59.400</time></trkpt><trkpt lat="55.7358638" lon="49.1993919"><time>2025-03-02T13:14:01.407</time></trkpt><trkpt lat="55.7358256" lon="49.1994385"><time>2025-03-02T13:14:04.413</time></trkpt><trkpt lat="55.7357809" lon="49.1994775"><time>2025-03-02T13:14:07.417</time></trkpt><trkpt lat="55.7357370" lon="49.1995278"><time>2025-03-02T13:14:11.407</time></trkpt><trkpt lat="55.7357133" lon="49.1996032"><time>2025-03-02T13:14:14.407</time></trkpt><trkpt lat="55.7356793" lon="49.1996894"><time>2025-03-02T13:14:18.410</time></trkpt><trkpt lat="55.7356459" lon="49.1997443"><time>2025-03-02T13:14:23.400</time></trkpt><trkpt lat="55.7356343" lon="49.1998491"><time>2025-03-02T13:14:28.297</time></trkpt><trkpt lat="55.7356009" lon="49.1999438"><time>2025-03-02T13:14:32.443</time></trkpt><trkpt lat="55.7355813" lon="49.2000373"><time>2025-03-02T13:14:35.300</time></trkpt><trkpt lat="55.7355627" lon="49.2001197"><time>2025-03-02T13:14:38.410</time></trkpt><trkpt lat="55.7355245" lon="49.2002014"><time>2025-03-02T13:14:41.433</time></trkpt><trkpt lat="55.7354870" lon="49.2002953"><time>2025-03-02T13:14:43.437</time></trkpt><trkpt lat="55.7354463" lon="49.2003957"><time>2025-03-02T13:14:45.397</time></trkpt><trkpt lat="55.7354063" lon="49.2004934"><time>2025-03-02T13:14:47.403</time></trkpt><trkpt lat="55.7353737" lon="49.2005715"><time>2025-03-02T13:14:48.407</time></trkpt><trkpt lat="55.7353426" lon="49.2006462"><time>2025-03-02T13:14:50.407</time></trkpt><trkpt lat="55.7353147" lon="49.2007142"><time>2025-03-02T13:14:52.407</time></trkpt><trkpt lat="55.7352871" lon="49.2007903"><time>2025-03-02T13:14:54.393</time></trkpt><trkpt lat="55.7352523" lon="49.2008821"><time>2025-03-02T13:14:57.437</time></trkpt><trkpt lat="55.7352227" lon="49.2009455"><time>2025-03-02T13:14:59.437</time></trkpt><trkpt lat="55.7351926" lon="49.2010232"><time>2025-03-02T13:15:03.393</time></trkpt><trkpt lat="55.7351800" lon="49.2011127"><time>2025-03-02T13:15:10.423</time></trkpt><trkpt lat="55.7351455" lon="49.2011894"><time>2025-03-02T13:15:16.443</time></trkpt><trkpt lat="55.7350995" lon="49.2012533"><time>2025-03-02T13:15:20.430</time></trkpt><trkpt lat="55.7350600" lon="49.2013003"><time>2025-03-02T13:15:24.413</time></trkpt><trkpt lat="55.7350363" lon="49.2013922"><time>2025-03-02T13:15:27.427</time></trkpt><trkpt lat="55.7350157" lon="49.2014651"><time>2025-03-02T13:15:30.413</time></trkpt><trkpt lat="55.7349833" lon="49.2015511"><time>2025-03-02T13:15:32.407</time></trkpt><trkpt lat="55.7349428" lon="49.2016325"><time>2025-03-02T13:15:34.320</time></trkpt><trkpt lat="55.7349057" lon="49.2017181"><time>2025-03-02T13:15:36.407</time></trkpt><trkpt lat="55.7348608" lon="49.2018160"><time>2025-03-02T13:15:38.400</time></trkpt><trkpt lat="55.7348150" lon="49.2019085"><time>2025-03-02T13:15:40.407</time></trkpt><trkpt lat="55.7347646" lon="49.2019915"><time>2025-03-02T13:15:42.317</time></trkpt><trkpt lat="55.7347274" lon="49.2020528"><time>2025-03-02T13:15:44.307</time></trkpt><trkpt lat="55.7346705" lon="49.2021399"><time>2025-03-02T13:15:46.297</time></trkpt><trkpt lat="55.7346063" lon="49.2022074"><time>2025-03-02T13:15:48.303</time></trkpt><trkpt lat="55.7345397" lon="49.2022406"><time>2025-03-02T13:15:50.397</time></trkpt><trkpt lat="55.7344819" lon="49.2022587"><time>2025-03-02T13:15:52.397</time></trkpt><trkpt lat="55.7344201" lon="49.2022576"><time>2025-03-02T13:15:54.413</time></trkpt><trkpt lat="55.7343714" lon="49.2022731"><time>2025-03-02T13:15:57.417</time></trkpt><trkpt lat="55.7343139" lon="49.2023080"><time>2025-03-02T13:16:00.437</time></trkpt><trkpt lat="55.7342729" lon="49.2023575"><time>2025-03-02T13:16:04.403</time></trkpt><trkpt lat="55.7342337" lon="49.2024024"><time>2025-03-02T13:16:07.423</time></trkpt><trkpt lat="55.7341927" lon="49.2024383"><time>2025-03-02T13:16:17.437</time></trkpt><trkpt lat="55.7341470" lon="49.2024630"><time>2025-03-02T13:16:25.433</time></trkpt><trkpt lat="55.7341010" lon="49.2024862"><time>2025-03-02T13:16:29.290</time></trkpt><trkpt lat="55.7340562" lon="49.2025006"><time>2025-03-02T13:17:39.423</time></trkpt><trkpt lat="55.7340033" lon="49.2025170"><time>2025-03-02T13:17:53.430</time></trkpt><trkpt lat="55.7339456" lon="49.2025291"><time>2025-03-02T13:17:58.400</time></trkpt><trkpt lat="55.7338929" lon="49.2025459"><time>2025-03-02T13:18:01.423</time></trkpt><trkpt lat="55.7338254" lon="49.2025195"><time>2025-03-02T13:18:04.433</time></trkpt><trkpt lat="55.7337753" lon="49.2025197"><time>2025-03-02T13:18:07.440</time></trkpt><trkpt lat="55.7337302" lon="49.2024841"><time>2025-03-02T13:18:27.313</time></trkpt><trkpt lat="55.7336843" lon="49.2025106"><time>2025-03-02T13:18:39.437</time></trkpt><trkpt lat="55.7336467" lon="49.2025594"><time>2025-03-02T13:18:53.430</time></trkpt><trkpt lat="55.7335991" lon="49.2026200"><time>2025-03-02T13:19:07.397</time></trkpt><trkpt lat="55.7335513" lon="49.2026457"><time>2025-03-02T13:19:58.407</time></trkpt><trkpt lat="55.7335624" lon="49.2027297"><time>2025-03-02T13:20:15.397</time></trkpt><trkpt lat="55.7335531" lon="49.2028090"><time>2025-03-02T13:20:17.430</time></trkpt><trkpt lat="55.7335390" lon="49.2028982"><time>2025-03-02T13:20:19.427</time></trkpt><trkpt lat="55.7335307" lon="49.2029765"><time>2025-03-02T13:20:21.437</time></trkpt><trkpt lat="55.7335499" lon="49.2030491"><time>2025-03-02T13:20:25.427</time></trkpt><trkpt lat="55.7335719" lon="49.2031376"><time>2025-03-02T13:20:30.407</time></trkpt><trkpt lat="55.7335685" lon="49.2032400"><time>2025-03-02T13:20:37.410</time></trkpt><trkpt lat="55.7335704" lon="49.2033376"><time>2025-03-02T13:20:41.300</time></trkpt><trkpt lat="55.7335721" lon="49.2034321"><time>2025-03-02T13:20:45.413</time></trkpt><trkpt lat="55.7335810" lon="49.2035345"><time>2025-03-02T13:20:47.423</time></trkpt><trkpt lat="55.7335878" lon="49.2036230"><time>2025-03-02T13:20:50.397</time></trkpt><trkpt lat="55.7335795" lon="49.2037102"><time>2025-03-02T13:20:54.430</time></trkpt><trkpt lat="55.7335685" lon="49.2038167"><time>2025-03-02T13:20:56.430</time></trkpt><trkpt lat="55.7335599" lon="49.2039225"><time>2025-03-02T13:20:58.303</time></trkpt><trkpt lat="55.7335577" lon="49.2040212"><time>2025-03-02T13:21:00.423</time></trkpt><trkpt lat="55.7335961" lon="49.2040824"><time>2025-03-02T13:21:04.430</time></trkpt><trkpt lat="55.7336421" lon="49.2041434"><time>2025-03-02T13:21:08.437</time></trkpt><trkpt lat="55.7336780" lon="49.2041915"><time>2025-03-02T13:21:11.427</time></trkpt><trkpt lat="55.7336986" lon="49.2042639"><time>2025-03-02T13:21:14.397</time></trkpt><trkpt lat="55.7337000" lon="49.2043575"><time>2025-03-02T13:21:18.393</time></trkpt><trkpt lat="55.7337082" lon="49.2044433"><time>2025-03-02T13:21:21.297</time></trkpt><trkpt lat="55.7337327" lon="49.2045317"><time>2025-03-02T13:21:25.440</time></trkpt><trkpt lat="55.7337440" lon="49.2046238"><time>2025-03-02T13:21:29.413</time></trkpt><trkpt lat="55.7337474" lon="49.2047107"><time>2025-03-02T13:21:32.407</time></trkpt><trkpt lat="55.7337485" lon="49.2047989"><time>2025-03-02T13:21:38.417</time></trkpt><trkpt lat="55.7337048" lon="49.2048857"><time>2025-03-02T13:21:59.447</time></trkpt><trkpt lat="55.7336920" lon="49.2049783"><time>2025-03-02T13:22:03.437</time></trkpt><trkpt lat="55.7337281" lon="49.2050423"><time>2025-03-02T13:22:06.297</time></trkpt><trkpt lat="55.7337358" lon="49.2051556"><time>2025-03-02T13:22:11.297</time></trkpt><trkpt lat="55.7337072" lon="49.2052693"><time>2025-03-02T13:22:13.437</time></trkpt><trkpt lat="55.7336758" lon="49.2053432"><time>2025-03-02T13:22:15.413</time></trkpt><trkpt lat="55.7336440" lon="49.2054063"><time>2025-03-02T13:22:17.410</time></trkpt><trkpt lat="55.7336136" lon="49.2054757"><time>2025-03-02T13:22:20.417</time></trkpt><trkpt lat="55.7335753" lon="49.2055616"><time>2025-03-02T13:22:23.297</time></trkpt><trkpt lat="55.7335475" lon="49.2056286"><time>2025-03-02T13:22:25.397</time></trkpt><trkpt lat="55.7335185" lon="49.2057200"><time>2025-03-02T13:22:28.410</time></trkpt><trkpt lat="55.7334819" lon="49.2057808"><time>2025-03-02T13:22:31.430</time></trkpt><trkpt lat="55.7334537" lon="49.2058509"><time>2025-03-02T13:22:35.437</time></trkpt><trkpt lat="55.7334046" lon="49.2058784"><time>2025-03-02T13:22:43.303</time></trkpt><trkpt lat="55.7332819" lon="49.2061892"><time>2025-03-02T13:22:48.403</time></trkpt><trkpt lat="55.7332596" lon="49.2062599"><time>2025-03-02T13:22:49.437</time></trkpt><trkpt lat="55.7332433" lon="49.2063456"><time>2025-03-02T13:22:50.307</time></trkpt><trkpt lat="55.7332264" lon="49.2064401"><time>2025-03-02T13:22:55.407</time></trkpt><trkpt lat="55.7331786" lon="49.2064758"><time>2025-03-02T13:22:58.413</time></trkpt><trkpt lat="55.7331171" lon="49.2064602"><time>2025-03-02T13:23:01.413</time></trkpt><trkpt lat="55.7330701" lon="49.2064382"><time>2025-03-02T13:23:03.410</time></trkpt><trkpt lat="55.7330100" lon="49.2064010"><time>2025-03-02T13:23:06.417</time></trkpt><trkpt lat="55.7329648" lon="49.2063584"><time>2025-03-02T13:23:10.440</time></trkpt><trkpt lat="55.7329210" lon="49.2063283"><time>2025-03-02T13:23:16.430</time></trkpt><trkpt lat="55.7328978" lon="49.2062331"><time>2025-03-02T13:23:20.413</time></trkpt><trkpt lat="55.7328646" lon="49.2061753"><time>2025-03-02T13:23:28.397</time></trkpt><trkpt lat="55.7328202" lon="49.2061503"><time>2025-03-02T13:23:36.440</time></trkpt><trkpt lat="55.7327987" lon="49.2062450"><time>2025-03-02T13:23:50.310</time></trkpt><trkpt lat="55.7327875" lon="49.2063431"><time>2025-03-02T13:23:53.307</time></trkpt><trkpt lat="55.7327678" lon="49.2064190"><time>2025-03-02T13:23:56.433</time></trkpt><trkpt lat="55.7327528" lon="49.2064954"><time>2025-03-02T13:23:59.443</time></trkpt><trkpt lat="55.7327446" lon="49.2065802"><time>2025-03-02T13:24:05.297</time></trkpt><trkpt lat="55.7327112" lon="49.2066487"><time>2025-03-02T13:24:09.410</time></trkpt><trkpt lat="55.7326872" lon="49.2067335"><time>2025-03-02T13:24:13.410</time></trkpt><trkpt lat="55.7326554" lon="49.2067902"><time>2025-03-02T13:24:17.430</time></trkpt><trkpt lat="55.7326076" lon="49.2067656"><time>2025-03-02T13:24:21.437</time></trkpt><trkpt lat="55.7325969" lon="49.2067157"><time>2025-03-02T13:24:37.787</time></trkpt><trkpt lat="55.7326570" lon="49.2067080"><time>2025-03-02T13:25:09.307</time></trkpt><trkpt lat="55.7327078" lon="49.2066738"><time>2025-03-02T13:25:13.310</time></trkpt><trkpt lat="55.7327536" lon="49.2066254"><time>2025-03-02T13:25:18.307</time></trkpt><trkpt lat="55.7327769" lon="49.2065530"><time>2025-03-02T13:25:23.307</time></trkpt><trkpt lat="55.7327945" lon="49.2064605"><time>2025-03-02T13:25:26.307</time></trkpt><trkpt lat="55.7328223" lon="49.2063823"><time>2025-03-02T13:25:30.300</time></trkpt><trkpt lat="55.7328426" lon="49.2062880"><time>2025-03-02T13:25:36.303</time></trkpt><trkpt lat="55.7328829" lon="49.2062287"><time>2025-03-02T13:25:42.303</time></trkpt><trkpt lat="55.7329141" lon="49.2062867"><time>2025-03-02T13:26:09.407</time></trkpt><trkpt lat="55.7329051" lon="49.2062027"><time>2025-03-02T13:26:26.407</time></trkpt><trkpt lat="55.7329418" lon="49.2062570"><time>2025-03-02T13:26:40.403</time></trkpt><trkpt lat="55.7330012" lon="49.2062879"><time>2025-03-02T13:26:44.307</time></trkpt><trkpt lat="55.7330565" lon="49.2063742"><time>2025-03-02T13:26:48.440</time></trkpt><trkpt lat="55.7331013" lon="49.2064118"><time>2025-03-02T13:26:50.437</time></trkpt><trkpt lat="55.7331492" lon="49.2064486"><time>2025-03-02T13:26:53.430</time></trkpt><trkpt lat="55.7331916" lon="49.2065083"><time>2025-03-02T13:26:56.447</time></trkpt><trkpt lat="55.7331939" lon="49.2065955"><time>2025-03-02T13:26:59.420</time></trkpt><trkpt lat="55.7331974" lon="49.2066760"><time>2025-03-02T13:27:03.413</time></trkpt><trkpt lat="55.7332019" lon="49.2067594"><time>2025-03-02T13:27:09.427</time></trkpt><trkpt lat="55.7331845" lon="49.2068385"><time>2025-03-02T13:27:26.437</time></trkpt><trkpt lat="55.7331683" lon="49.2069257"><time>2025-03-02T13:27:36.447</time></trkpt><trkpt lat="55.7331605" lon="49.2070082"><time>2025-03-02T13:28:00.407</time></trkpt><trkpt lat="55.7332141" lon="49.2069939"><time>2025-03-02T13:28:20.400</time></trkpt><trkpt lat="55.7332554" lon="49.2069547"><time>2025-03-02T13:28:27.390</time></trkpt><trkpt lat="55.7333036" lon="49.2069323"><time>2025-03-02T13:28:32.437</time></trkpt><trkpt lat="55.7333557" lon="49.2069352"><time>2025-03-02T13:28:34.423</time></trkpt><trkpt lat="55.7334042" lon="49.2069661"><time>2025-03-02T13:28:39.307</time></trkpt><trkpt lat="55.7334496" lon="49.2070147"><time>2025-03-02T13:28:43.417</time></trkpt><trkpt lat="55.7334975" lon="49.2070432"><time>2025-03-02T13:28:47.383</time></trkpt><trkpt lat="55.7335384" lon="49.2070982"><time>2025-03-02T13:28:55.307</time></trkpt><trkpt lat="55.7335849" lon="49.2071339"><time>2025-03-02T13:29:00.403</time></trkpt><trkpt lat="55.7336479" lon="49.2071402"><time>2025-03-02T13:29:09.403</time></trkpt><trkpt lat="55.7336985" lon="49.2071253"><time>2025-03-02T13:29:12.417</time></trkpt><trkpt lat="55.7337477" lon="49.2071144"><time>2025-03-02T13:29:16.443</time></trkpt><trkpt lat="55.7337019" lon="49.2071482"><time>2025-03-02T13:29:27.437</time></trkpt><trkpt lat="55.7336559" lon="49.2071634"><time>2025-03-02T13:29:31.430</time></trkpt><trkpt lat="55.7336723" lon="49.2072426"><time>2025-03-02T13:29:47.387</time></trkpt><trkpt lat="55.7337003" lon="49.2073076"><time>2025-03-02T13:29:51.427</time></trkpt><trkpt lat="55.7337161" lon="49.2073924"><time>2025-03-02T13:29:58.443</time></trkpt><trkpt lat="55.7337292" lon="49.2074702"><time>2025-03-02T13:30:03.397</time></trkpt><trkpt lat="55.7337462" lon="49.2075700"><time>2025-03-02T13:30:06.427</time></trkpt><trkpt lat="55.7337531" lon="49.2076519"><time>2025-03-02T13:30:09.403</time></trkpt><trkpt lat="55.7337706" lon="49.2077372"><time>2025-03-02T13:30:12.407</time></trkpt><trkpt lat="55.7338008" lon="49.2078305"><time>2025-03-02T13:30:16.397</time></trkpt><trkpt lat="55.7338300" lon="49.2078931"><time>2025-03-02T13:30:18.397</time></trkpt><trkpt lat="55.7338692" lon="49.2079681"><time>2025-03-02T13:30:21.403</time></trkpt><trkpt lat="55.7339160" lon="49.2080327"><time>2025-03-02T13:30:25.363</time></trkpt><trkpt lat="55.7339314" lon="49.2081224"><time>2025-03-02T13:30:29.400</time></trkpt><trkpt lat="55.7339176" lon="49.2082828"><time>2025-03-02T13:30:32.407</time></trkpt><trkpt lat="55.7339102" lon="49.2083905"><time>2025-03-02T13:30:34.407</time></trkpt><trkpt lat="55.7339094" lon="49.2084770"><time>2025-03-02T13:30:37.397</time></trkpt><trkpt lat="55.7339121" lon="49.2085694"><time>2025-03-02T13:30:40.407</time></trkpt><trkpt lat="55.7339033" lon="49.2086476"><time>2025-03-02T13:30:45.307</time></trkpt><trkpt lat="55.7339068" lon="49.2087444"><time>2025-03-02T13:31:55.417</time></trkpt><trkpt lat="55.7339442" lon="49.2088101"><time>2025-03-02T13:32:00.413</time></trkpt><trkpt lat="55.7339437" lon="49.2089017"><time>2025-03-02T13:32:05.397</time></trkpt><trkpt lat="55.7339572" lon="49.2090035"><time>2025-03-02T13:32:08.397</time></trkpt><trkpt lat="55.7339655" lon="49.2090886"><time>2025-03-02T13:32:11.397</time></trkpt><trkpt lat="55.7339663" lon="49.2091728"><time>2025-03-02T13:32:16.397</time></trkpt><trkpt lat="55.7339818" lon="49.2092727"><time>2025-03-02T13:32:20.403</time></trkpt><trkpt lat="55.7340025" lon="49.2093502"><time>2025-03-02T13:32:23.397</time></trkpt><trkpt lat="55.7340233" lon="49.2094342"><time>2025-03-02T13:32:26.397</time></trkpt><trkpt lat="55.7340239" lon="49.2095223"><time>2025-03-02T13:32:30.387</time></trkpt><trkpt lat="55.7340355" lon="49.2096039"><time>2025-03-02T13:32:33.343</time></trkpt><trkpt lat="55.7340390" lon="49.2096868"><time>2025-03-02T13:32:36.407</time></trkpt><trkpt lat="55.7340330" lon="49.2097665"><time>2025-03-02T13:32:41.413</time></trkpt><trkpt lat="55.7340611" lon="49.2098337"><time>2025-03-02T13:32:51.433</time></trkpt><trkpt lat="55.7341081" lon="49.2098730"><time>2025-03-02T13:32:56.400</time></trkpt><trkpt lat="55.7341592" lon="49.2098939"><time>2025-03-02T13:33:01.430</time></trkpt><trkpt lat="55.7342075" lon="49.2098892"><time>2025-03-02T13:33:05.447</time></trkpt><trkpt lat="55.7342584" lon="49.2098916"><time>2025-03-02T13:33:10.440</time></trkpt><trkpt lat="55.7343120" lon="49.2098864"><time>2025-03-02T13:33:20.437</time></trkpt><trkpt lat="55.7343726" lon="49.2098958"><time>2025-03-02T13:33:23.437</time></trkpt><trkpt lat="55.7344393" lon="49.2099181"><time>2025-03-02T13:33:26.437</time></trkpt><trkpt lat="55.7344786" lon="49.2099607"><time>2025-03-02T13:33:30.423</time></trkpt><trkpt lat="55.7345242" lon="49.2099558"><time>2025-03-02T13:33:40.437</time></trkpt><trkpt lat="55.7345559" lon="49.2100141"><time>2025-03-02T13:34:01.433</time></trkpt><trkpt lat="55.7345973" lon="49.2100553"><time>2025-03-02T13:34:14.430</time></trkpt><trkpt lat="55.7346438" lon="49.2100590"><time>2025-03-02T13:34:20.443</time></trkpt><trkpt lat="55.7346953" lon="49.2100733"><time>2025-03-02T13:34:27.437</time></trkpt><trkpt lat="55.7347479" lon="49.2100885"><time>2025-03-02T13:34:31.433</time></trkpt><trkpt lat="55.7347499" lon="49.2101752"><time>2025-03-02T13:34:39.443</time></trkpt><trkpt lat="55.7347067" lon="49.2102030"><time>2025-03-02T13:34:43.423</time></trkpt><trkpt lat="55.7346823" lon="49.2103009"><time>2025-03-02T13:34:47.310</time></trkpt><trkpt lat="55.7346450" lon="49.2103897"><time>2025-03-02T13:34:51.417</time></trkpt><trkpt lat="55.7346461" lon="49.2104733"><time>2025-03-02T13:34:56.443</time></trkpt><trkpt lat="55.7346315" lon="49.2105515"><time>2025-03-02T13:35:52.320</time></trkpt><trkpt lat="55.7346654" lon="49.2106113"><time>2025-03-02T13:36:11.433</time></trkpt><trkpt lat="55.7347113" lon="49.2106261"><time>2025-03-02T13:36:16.310</time></trkpt><trkpt lat="55.7347366" lon="49.2107085"><time>2025-03-02T13:36:20.440</time></trkpt><trkpt lat="55.7347785" lon="49.2107454"><time>2025-03-02T13:36:24.427</time></trkpt><trkpt lat="55.7348263" lon="49.2107850"><time>2025-03-02T13:36:28.430</time></trkpt><trkpt lat="55.7348456" lon="49.2108578"><time>2025-03-02T13:36:33.313</time></trkpt><trkpt lat="55.7348670" lon="49.2109555"><time>2025-03-02T13:36:39.430</time></trkpt><trkpt lat="55.7349072" lon="49.2110091"><time>2025-03-02T13:36:42.410</time></trkpt><trkpt lat="55.7349316" lon="49.2110828"><time>2025-03-02T13:36:46.297</time></trkpt><trkpt lat="55.7349723" lon="49.2111201"><time>2025-03-02T13:36:49.403</time></trkpt><trkpt lat="55.7350212" lon="49.2111597"><time>2025-03-02T13:36:55.440</time></trkpt><trkpt lat="55.7350656" lon="49.2111420"><time>2025-03-02T13:37:00.440</time></trkpt><trkpt lat="55.7351022" lon="49.2110731"><time>2025-03-02T13:37:03.430</time></trkpt><trkpt lat="55.7351364" lon="49.2110149"><time>2025-03-02T13:37:11.417</time></trkpt><trkpt lat="55.7351926" lon="49.2110263"><time>2025-03-02T13:37:15.410</time></trkpt><trkpt lat="55.7352384" lon="49.2109578"><time>2025-03-02T13:37:20.427</time></trkpt><trkpt lat="55.7352786" lon="49.2109215"><time>2025-03-02T13:37:23.437</time></trkpt><trkpt lat="55.7353258" lon="49.2109327"><time>2025-03-02T13:37:30.303</time></trkpt><trkpt lat="55.7353088" lon="49.2109495"><time>2025-03-02T13:37:42.130</time></trkpt><trkpt lat="55.7352858" lon="49.2109716"><time>2025-03-02T13:38:08.310</time></trkpt><trkpt lat="55.7352502" lon="49.2110216"><time>2025-03-02T13:39:36.323</time></trkpt><trkpt lat="55.7352072" lon="49.2110512"><time>2025-03-02T13:39:40.313</time></trkpt><trkpt lat="55.7351607" lon="49.2110783"><time>2025-03-02T13:39:44.310</time></trkpt><trkpt lat="55.7351264" lon="49.2111406"><time>2025-03-02T13:39:48.317</time></trkpt><trkpt lat="55.7350760" lon="49.2111861"><time>2025-03-02T13:39:52.343</time></trkpt><trkpt lat="55.7350235" lon="49.2111729"><time>2025-03-02T13:39:56.297</time></trkpt><trkpt lat="55.7349763" lon="49.2111437"><time>2025-03-02T13:39:59.307</time></trkpt><trkpt lat="55.7349220" lon="49.2111165"><time>2025-03-02T13:40:03.310</time></trkpt><trkpt lat="55.7348967" lon="49.2110255"><time>2025-03-02T13:40:06.300</time></trkpt><trkpt lat="55.7348849" lon="49.2109423"><time>2025-03-02T13:40:09.327</time></trkpt><trkpt lat="55.7348473" lon="49.2108521"><time>2025-03-02T13:40:14.307</time></trkpt><trkpt lat="55.7347937" lon="49.2107924"><time>2025-03-02T13:40:17.307</time></trkpt><trkpt lat="55.7347429" lon="49.2107310"><time>2025-03-02T13:40:20.307</time></trkpt><trkpt lat="55.7347137" lon="49.2106683"><time>2025-03-02T13:40:23.303</time></trkpt><trkpt lat="55.7346971" lon="49.2105922"><time>2025-03-02T13:40:27.300</time></trkpt><trkpt lat="55.7346514" lon="49.2105844"><time>2025-03-02T13:40:44.377</time></trkpt><trkpt lat="55.7346403" lon="49.2107136"><time>2025-03-02T13:40:49.450</time></trkpt><trkpt lat="55.7346283" lon="49.2108030"><time>2025-03-02T13:40:51.440</time></trkpt><trkpt lat="55.7346223" lon="49.2109241"><time>2025-03-02T13:40:54.407</time></trkpt><trkpt lat="55.7346192" lon="49.2110138"><time>2025-03-02T13:40:56.303</time></trkpt><trkpt lat="55.7346017" lon="49.2111068"><time>2025-03-02T13:40:59.417</time></trkpt><trkpt lat="55.7345799" lon="49.2111779"><time>2025-03-02T13:41:01.417</time></trkpt><trkpt lat="55.7345677" lon="49.2112653"><time>2025-03-02T13:41:03.437</time></trkpt><trkpt lat="55.7345665" lon="49.2113656"><time>2025-03-02T13:41:06.430</time></trkpt><trkpt lat="55.7345860" lon="49.2114628"><time>2025-03-02T13:41:10.430</time></trkpt><trkpt lat="55.7346092" lon="49.2115393"><time>2025-03-02T13:41:15.413</time></trkpt><trkpt lat="55.7346382" lon="49.2116459"><time>2025-03-02T13:41:18.307</time></trkpt><trkpt lat="55.7346301" lon="49.2117571"><time>2025-03-02T13:41:21.423</time></trkpt><trkpt lat="55.7346355" lon="49.2118590"><time>2025-03-02T13:41:25.400</time></trkpt><trkpt lat="55.7346156" lon="49.2119571"><time>2025-03-02T13:41:27.413</time></trkpt><trkpt lat="55.7345953" lon="49.2120484"><time>2025-03-02T13:41:30.400</time></trkpt><trkpt lat="55.7345796" lon="49.2121272"><time>2025-03-02T13:41:33.410</time></trkpt><trkpt lat="55.7345529" lon="49.2122140"><time>2025-03-02T13:41:35.427</time></trkpt><trkpt lat="55.7345289" lon="49.2122903"><time>2025-03-02T13:41:37.430</time></trkpt><trkpt lat="55.7345071" lon="49.2123779"><time>2025-03-02T13:41:40.420</time></trkpt><trkpt lat="55.7344781" lon="49.2124616"><time>2025-03-02T13:41:43.467</time></trkpt><trkpt lat="55.7344532" lon="49.2125396"><time>2025-03-02T13:41:48.310</time></trkpt><trkpt lat="55.7344216" lon="49.2126046"><time>2025-03-02T13:41:52.433</time></trkpt><trkpt lat="55.7343982" lon="49.2126920"><time>2025-03-02T13:42:01.433</time></trkpt><trkpt lat="55.7343878" lon="49.2127724"><time>2025-03-02T13:42:07.423</time></trkpt><trkpt lat="55.7343574" lon="49.2128587"><time>2025-03-02T13:42:11.433</time></trkpt><trkpt lat="55.7343276" lon="49.2129448"><time>2025-03-02T13:42:15.357</time></trkpt><trkpt lat="55.7343120" lon="49.2130323"><time>2025-03-02T13:42:19.400</time></trkpt><trkpt lat="55.7342964" lon="49.2131349"><time>2025-03-02T13:42:22.407</time></trkpt><trkpt lat="55.7343008" lon="49.2132229"><time>2025-03-02T13:42:25.320</time></trkpt><trkpt lat="55.7342970" lon="49.2133420"><time>2025-03-02T13:42:28.390</time></trkpt><trkpt lat="55.7342725" lon="49.2134308"><time>2025-03-02T13:42:31.407</time></trkpt><trkpt lat="55.7342497" lon="49.2135034"><time>2025-03-02T13:42:33.410</time></trkpt><trkpt lat="55.7342199" lon="49.2136075"><time>2025-03-02T13:42:36.410</time></trkpt><trkpt lat="55.7341977" lon="49.2136943"><time>2025-03-02T13:42:39.407</time></trkpt><trkpt lat="55.7341790" lon="49.2137964"><time>2025-03-02T13:42:42.400</time></trkpt><trkpt lat="55.7341606" lon="49.2138798"><time>2025-03-02T13:42:46.400</time></trkpt><trkpt lat="55.7341413" lon="49.2139604"><time>2025-03-02T13:42:52.423</time></trkpt><trkpt lat="55.7341336" lon="49.2140453"><time>2025-03-02T13:43:09.440</time></trkpt><trkpt lat="55.7341045" lon="49.2141155"><time>2025-03-02T13:43:16.397</time></trkpt><trkpt lat="55.7340749" lon="49.2141867"><time>2025-03-02T13:43:28.307</time></trkpt><trkpt lat="55.7341024" lon="49.2142519"><time>2025-03-02T13:43:39.307</time></trkpt><trkpt lat="55.7340709" lon="49.2143272"><time>2025-03-02T13:43:43.323</time></trkpt><trkpt lat="55.7340605" lon="49.2144176"><time>2025-03-02T13:43:48.437</time></trkpt><trkpt lat="55.7340541" lon="49.2145061"><time>2025-03-02T13:43:51.407</time></trkpt><trkpt lat="55.7340356" lon="49.2145875"><time>2025-03-02T13:43:53.440</time></trkpt><trkpt lat="55.7340212" lon="49.2146665"><time>2025-03-02T13:43:56.427</time></trkpt><trkpt lat="55.7340237" lon="49.2147679"><time>2025-03-02T13:43:59.437</time></trkpt><trkpt lat="55.7340278" lon="49.2148506"><time>2025-03-02T13:44:02.427</time></trkpt><trkpt lat="55.7339982" lon="49.2149239"><time>2025-03-02T13:44:06.433</time></trkpt><trkpt lat="55.7339899" lon="49.2150075"><time>2025-03-02T13:44:09.450</time></trkpt><trkpt lat="55.7339918" lon="49.2151070"><time>2025-03-02T13:44:13.420</time></trkpt><trkpt lat="55.7339739" lon="49.2152180"><time>2025-03-02T13:44:17.413</time></trkpt><trkpt lat="55.7339406" lon="49.2152955"><time>2025-03-02T13:44:21.427</time></trkpt><trkpt lat="55.7339194" lon="49.2153732"><time>2025-03-02T13:44:24.417</time></trkpt><trkpt lat="55.7339147" lon="49.2154539"><time>2025-03-02T13:44:27.397</time></trkpt><trkpt lat="55.7339353" lon="49.2155262"><time>2025-03-02T13:44:50.407</time></trkpt><trkpt lat="55.7339599" lon="49.2155959"><time>2025-03-02T13:45:22.320</time></trkpt><trkpt lat="55.7339619" lon="49.2155033"><time>2025-03-02T13:45:44.310</time></trkpt><trkpt lat="55.7339761" lon="49.2154161"><time>2025-03-02T13:45:47.323</time></trkpt><trkpt lat="55.7339980" lon="49.2153113"><time>2025-03-02T13:45:50.420</time></trkpt><trkpt lat="55.7340375" lon="49.2152522"><time>2025-03-02T13:45:55.373</time></trkpt><trkpt lat="55.7340872" lon="49.2152663"><time>2025-03-02T13:46:07.307</time></trkpt><trkpt lat="55.7341214" lon="49.2153230"><time>2025-03-02T13:46:36.403</time></trkpt><trkpt lat="55.7341662" lon="49.2152885"><time>2025-03-02T13:46:43.437</time></trkpt><trkpt lat="55.7342310" lon="49.2152570"><time>2025-03-02T13:46:46.443</time></trkpt><trkpt lat="55.7342807" lon="49.2152224"><time>2025-03-02T13:46:48.310</time></trkpt><trkpt lat="55.7343415" lon="49.2152175"><time>2025-03-02T13:46:51.450</time></trkpt><trkpt lat="55.7343800" lon="49.2152807"><time>2025-03-02T13:46:54.410</time></trkpt><trkpt lat="55.7343741" lon="49.2153717"><time>2025-03-02T13:47:00.437</time></trkpt><trkpt lat="55.7343671" lon="49.2154661"><time>2025-03-02T13:47:03.410</time></trkpt><trkpt lat="55.7344013" lon="49.2155271"><time>2025-03-02T13:47:11.400</time></trkpt><trkpt lat="55.7344222" lon="49.2156139"><time>2025-03-02T13:47:17.410</time></trkpt><trkpt lat="55.7344660" lon="49.2156854"><time>2025-03-02T13:47:22.310</time></trkpt><trkpt lat="55.7344971" lon="49.2157486"><time>2025-03-02T13:47:25.423</time></trkpt><trkpt lat="55.7345472" lon="49.2157676"><time>2025-03-02T13:47:29.397</time></trkpt><trkpt lat="55.7345707" lon="49.2158410"><time>2025-03-02T13:47:36.467</time></trkpt><trkpt lat="55.7345815" lon="49.2159208"><time>2025-03-02T13:47:42.410</time></trkpt><trkpt lat="55.7346336" lon="49.2159548"><time>2025-03-02T13:47:56.433</time></trkpt><trkpt lat="55.7346620" lon="49.2160317"><time>2025-03-02T13:48:01.437</time></trkpt><trkpt lat="55.7346996" lon="49.2160891"><time>2025-03-02T13:48:04.420</time></trkpt><trkpt lat="55.7347243" lon="49.2161610"><time>2025-03-02T13:48:09.407</time></trkpt><trkpt lat="55.7347706" lon="49.2161700"><time>2025-03-02T13:48:15.440</time></trkpt><trkpt lat="55.7348159" lon="49.2161581"><time>2025-03-02T13:48:18.407</time></trkpt><trkpt lat="55.7348619" lon="49.2161273"><time>2025-03-02T13:48:21.310</time></trkpt><trkpt lat="55.7348975" lon="49.2160720"><time>2025-03-02T13:48:26.323</time></trkpt><trkpt lat="55.7349459" lon="49.2160562"><time>2025-03-02T13:48:43.410</time></trkpt><trkpt lat="55.7349361" lon="49.2159752"><time>2025-03-02T13:48:53.413</time></trkpt><trkpt lat="55.7349078" lon="49.2159106"><time>2025-03-02T13:49:09.297</time></trkpt><trkpt lat="55.7348993" lon="49.2159229"><time>2025-03-02T13:49:20.823</time></trkpt><trkpt lat="55.7349321" lon="49.2159801"><time>2025-03-02T13:49:35.320</time></trkpt><trkpt lat="55.7348926" lon="49.2160269"><time>2025-03-02T13:50:14.313</time></trkpt><trkpt lat="55.7348488" lon="49.2160475"><time>2025-03-02T13:50:29.303</time></trkpt><trkpt lat="55.7348018" lon="49.2160496"><time>2025-03-02T13:50:35.367</time></trkpt><trkpt lat="55.7347496" lon="49.2160717"><time>2025-03-02T13:50:39.407</time></trkpt><trkpt lat="55.7347125" lon="49.2161339"><time>2025-03-02T13:50:43.310</time></trkpt><trkpt lat="55.7346760" lon="49.2161928"><time>2025-03-02T13:50:51.407</time></trkpt><trkpt lat="55.7346782" lon="49.2162849"><time>2025-03-02T13:51:23.430</time></trkpt><trkpt lat="55.7347163" lon="49.2163378"><time>2025-03-02T13:51:26.407</time></trkpt><trkpt lat="55.7347452" lon="49.2164031"><time>2025-03-02T13:51:30.410</time></trkpt><trkpt lat="55.7347524" lon="49.2165015"><time>2025-03-02T13:51:34.420</time></trkpt><trkpt lat="55.7347901" lon="49.2165597"><time>2025-03-02T13:51:37.403</time></trkpt><trkpt lat="55.7348289" lon="49.2166405"><time>2025-03-02T13:51:41.423</time></trkpt><trkpt lat="55.7348653" lon="49.2167187"><time>2025-03-02T13:51:45.437</time></trkpt><trkpt lat="55.7348955" lon="49.2167832"><time>2025-03-02T13:51:47.447</time></trkpt><trkpt lat="55.7349029" lon="49.2168685"><time>2025-03-02T13:51:49.407</time></trkpt><trkpt lat="55.7349252" lon="49.2169544"><time>2025-03-02T13:51:52.430</time></trkpt><trkpt lat="55.7349568" lon="49.2170250"><time>2025-03-02T13:51:55.417</time></trkpt><trkpt lat="55.7350013" lon="49.2170668"><time>2025-03-02T13:51:58.437</time></trkpt><trkpt lat="55.7350438" lon="49.2171028"><time>2025-03-02T13:52:00.433</time></trkpt><trkpt lat="55.7350885" lon="49.2171420"><time>2025-03-02T13:52:02.410</time></trkpt><trkpt lat="55.7351472" lon="49.2171879"><time>2025-03-02T13:52:05.307</time></trkpt><trkpt lat="55.7352032" lon="49.2171857"><time>2025-03-02T13:52:08.360</time></trkpt><trkpt lat="55.7352506" lon="49.2171651"><time>2025-03-02T13:52:12.407</time></trkpt><trkpt lat="55.7352975" lon="49.2171518"><time>2025-03-02T13:52:15.410</time></trkpt><trkpt lat="55.7353571" lon="49.2171996"><time>2025-03-02T13:52:19.433</time></trkpt><trkpt lat="55.7354075" lon="49.2172211"><time>2025-03-02T13:52:22.410</time></trkpt><trkpt lat="55.7354625" lon="49.2172109"><time>2025-03-02T13:52:24.450</time></trkpt><trkpt lat="55.7355073" lon="49.2172040"><time>2025-03-02T13:52:26.313</time></trkpt><trkpt lat="55.7355637" lon="49.2172004"><time>2025-03-02T13:52:29.427</time></trkpt><trkpt lat="55.7356197" lon="49.2171926"><time>2025-03-02T13:52:33.373</time></trkpt><trkpt lat="55.7356717" lon="49.2172049"><time>2025-03-02T13:52:36.423</time></trkpt><trkpt lat="55.7357227" lon="49.2172078"><time>2025-03-02T13:52:39.410</time></trkpt><trkpt lat="55.7357883" lon="49.2172072"><time>2025-03-02T13:52:42.437</time></trkpt><trkpt lat="55.7358400" lon="49.2172263"><time>2025-03-02T13:52:44.407</time></trkpt><trkpt lat="55.7358906" lon="49.2172660"><time>2025-03-02T13:52:47.413</time></trkpt><trkpt lat="55.7359405" lon="49.2172776"><time>2025-03-02T13:52:51.430</time></trkpt><trkpt lat="55.7359964" lon="49.2173060"><time>2025-03-02T13:52:54.430</time></trkpt><trkpt lat="55.7360435" lon="49.2173350"><time>2025-03-02T13:52:57.440</time></trkpt><trkpt lat="55.7360794" lon="49.2174019"><time>2025-03-02T13:53:01.430</time></trkpt><trkpt lat="55.7361181" lon="49.2174487"><time>2025-03-02T13:53:03.427</time></trkpt><trkpt lat="55.7361692" lon="49.2174987"><time>2025-03-02T13:53:05.420</time></trkpt><trkpt lat="55.7362289" lon="49.2175489"><time>2025-03-02T13:53:08.310</time></trkpt><trkpt lat="55.7362765" lon="49.2175903"><time>2025-03-02T13:53:11.410</time></trkpt><trkpt lat="55.7363134" lon="49.2176601"><time>2025-03-02T13:53:17.410</time></trkpt><trkpt lat="55.7363232" lon="49.2177402"><time>2025-03-02T13:53:38.440</time></trkpt><trkpt lat="55.7363845" lon="49.2177855"><time>2025-03-02T13:53:43.450</time></trkpt><trkpt lat="55.7364518" lon="49.2177990"><time>2025-03-02T13:53:46.450</time></trkpt><trkpt lat="55.7364888" lon="49.2178456"><time>2025-03-02T13:53:50.417</time></trkpt><trkpt lat="55.7365089" lon="49.2179291"><time>2025-03-02T13:53:53.437</time></trkpt><trkpt lat="55.7365525" lon="49.2179748"><time>2025-03-02T13:53:59.433</time></trkpt><trkpt lat="55.7365920" lon="49.2179253"><time>2025-03-02T13:54:18.440</time></trkpt><trkpt lat="55.7366191" lon="49.2178539"><time>2025-03-02T13:54:21.440</time></trkpt><trkpt lat="55.7366440" lon="49.2177583"><time>2025-03-02T13:54:26.313</time></trkpt><trkpt lat="55.7366958" lon="49.2177338"><time>2025-03-02T13:54:29.440</time></trkpt><trkpt lat="55.7367537" lon="49.2177231"><time>2025-03-02T13:54:32.440</time></trkpt><trkpt lat="55.7368069" lon="49.2177036"><time>2025-03-02T13:54:34.437</time></trkpt><trkpt lat="55.7368625" lon="49.2176462"><time>2025-03-02T13:54:38.410</time></trkpt><trkpt lat="55.7369005" lon="49.2175953"><time>2025-03-02T13:54:42.413</time></trkpt><trkpt lat="55.7369451" lon="49.2175542"><time>2025-03-02T13:54:47.417</time></trkpt><trkpt lat="55.7369766" lon="49.2174966"><time>2025-03-02T13:55:23.417</time></trkpt><trkpt lat="55.7369841" lon="49.2174127"><time>2025-03-02T13:55:40.313</time></trkpt><trkpt lat="55.7370270" lon="49.2173623"><time>2025-03-02T13:55:45.413</time></trkpt><trkpt lat="55.7370685" lon="49.2173276"><time>2025-03-02T13:55:53.447</time></trkpt><trkpt lat="55.7371021" lon="49.2172615"><time>2025-03-02T13:55:59.423</time></trkpt><trkpt lat="55.7371331" lon="49.2171887"><time>2025-03-02T13:56:16.440</time></trkpt><trkpt lat="55.7371610" lon="49.2171221"><time>2025-03-02T13:56:21.407</time></trkpt><trkpt lat="55.7371914" lon="49.2170516"><time>2025-03-02T13:56:25.417</time></trkpt><trkpt lat="55.7372305" lon="49.2169827"><time>2025-03-02T13:56:29.307</time></trkpt><trkpt lat="55.7372867" lon="49.2169513"><time>2025-03-02T13:56:33.353</time></trkpt><trkpt lat="55.7373429" lon="49.2169326"><time>2025-03-02T13:56:37.440</time></trkpt><trkpt lat="55.7373830" lon="49.2168925"><time>2025-03-02T13:56:40.443</time></trkpt><trkpt lat="55.7374228" lon="49.2168338"><time>2025-03-02T13:56:44.313</time></trkpt><trkpt lat="55.7374614" lon="49.2167862"><time>2025-03-02T13:56:47.437</time></trkpt><trkpt lat="55.7375137" lon="49.2167813"><time>2025-03-02T13:56:54.313</time></trkpt><trkpt lat="55.7375601" lon="49.2167835"><time>2025-03-02T13:57:02.447</time></trkpt><trkpt lat="55.7376090" lon="49.2167663"><time>2025-03-02T13:57:13.433</time></trkpt><trkpt lat="55.7376584" lon="49.2167174"><time>2025-03-02T13:57:18.320</time></trkpt><trkpt lat="55.7376887" lon="49.2166574"><time>2025-03-02T13:57:22.357</time></trkpt><trkpt lat="55.7377265" lon="49.2166084"><time>2025-03-02T13:57:25.427</time></trkpt><trkpt lat="55.7377684" lon="49.2165424"><time>2025-03-02T13:57:29.407</time></trkpt><trkpt lat="55.7378028" lon="49.2164686"><time>2025-03-02T13:57:31.407</time></trkpt><trkpt lat="55.7378403" lon="49.2164225"><time>2025-03-02T13:57:34.443</time></trkpt><trkpt lat="55.7378562" lon="49.2163233"><time>2025-03-02T13:57:38.407</time></trkpt><trkpt lat="55.7378740" lon="49.2162211"><time>2025-03-02T13:57:41.413</time></trkpt><trkpt lat="55.7378824" lon="49.2161344"><time>2025-03-02T13:57:46.410</time></trkpt><trkpt lat="55.7378827" lon="49.2160537"><time>2025-03-02T13:57:55.450</time></trkpt><trkpt lat="55.7378851" lon="49.2159701"><time>2025-03-02T13:57:59.423</time></trkpt><trkpt lat="55.7378782" lon="49.2158907"><time>2025-03-02T13:58:02.303</time></trkpt><trkpt lat="55.7378620" lon="49.2158142"><time>2025-03-02T13:58:50.333</time></trkpt><trkpt lat="55.7378963" lon="49.2157593"><time>2025-03-02T13:59:35.300</time></trkpt><trkpt lat="55.7379242" lon="49.2159757"><time>2025-03-02T14:01:26.330</time></trkpt><trkpt lat="55.7384259" lon="49.2185048"><time>2025-03-02T14:06:24.353</time></trkpt><trkpt lat="55.7382194" lon="49.2186207"><time>2025-03-02T14:06:25.330</time></trkpt><trkpt lat="55.7385412" lon="49.2184213"><time>2025-03-02T14:06:26.410</time></trkpt><trkpt lat="55.7381946" lon="49.2192993"><time>2025-03-02T14:08:32.433</time></trkpt><trkpt lat="55.7382129" lon="49.2194059"><time>2025-03-02T14:08:34.300</time></trkpt><trkpt lat="55.7381782" lon="49.2194249"><time>2025-03-02T14:08:50.197</time></trkpt><trkpt lat="55.7381676" lon="49.2194146"><time>2025-03-02T14:08:50.413</time></trkpt><trkpt lat="55.7382115" lon="49.2194338"><time>2025-03-02T14:09:12.320</time></trkpt><trkpt lat="55.7382401" lon="49.2195093"><time>2025-03-02T14:09:29.320</time></trkpt><trkpt lat="55.7382726" lon="49.2195697"><time>2025-03-02T14:09:37.320</time></trkpt><trkpt lat="55.7382867" lon="49.2196554"><time>2025-03-02T14:09:42.303</time></trkpt><trkpt lat="55.7383103" lon="49.2197253"><time>2025-03-02T14:09:48.327</time></trkpt><trkpt lat="55.7383443" lon="49.2197779"><time>2025-03-02T14:09:52.313</time></trkpt><trkpt lat="55.7383918" lon="49.2198211"><time>2025-03-02T14:09:58.307</time></trkpt><trkpt lat="55.7384457" lon="49.2198512"><time>2025-03-02T14:10:01.413</time></trkpt><trkpt lat="55.7384910" lon="49.2198556"><time>2025-03-02T14:10:04.313</time></trkpt><trkpt lat="55.7385461" lon="49.2198070"><time>2025-03-02T14:10:08.317</time></trkpt><trkpt lat="55.7385955" lon="49.2197548"><time>2025-03-02T14:10:11.317</time></trkpt><trkpt lat="55.7386429" lon="49.2197065"><time>2025-03-02T14:10:13.313</time></trkpt><trkpt lat="55.7386888" lon="49.2196601"><time>2025-03-02T14:10:16.367</time></trkpt><trkpt lat="55.7387370" lon="49.2196287"><time>2025-03-02T14:10:20.310</time></trkpt><trkpt lat="55.7387904" lon="49.2196172"><time>2025-03-02T14:10:27.430</time></trkpt><trkpt lat="55.7388367" lon="49.2196128"><time>2025-03-02T14:10:30.407</time></trkpt><trkpt lat="55.7388895" lon="49.2196225"><time>2025-03-02T14:10:34.313</time></trkpt><trkpt lat="55.7389358" lon="49.2196718"><time>2025-03-02T14:10:37.410</time></trkpt><trkpt lat="55.7389668" lon="49.2197298"><time>2025-03-02T14:10:39.417</time></trkpt><trkpt lat="55.7389961" lon="49.2197998"><time>2025-03-02T14:10:43.323</time></trkpt><trkpt lat="55.7390142" lon="49.2198805"><time>2025-03-02T14:10:46.317</time></trkpt><trkpt lat="55.7390531" lon="49.2199707"><time>2025-03-02T14:10:50.447</time></trkpt><trkpt lat="55.7391064" lon="49.2200328"><time>2025-03-02T14:10:54.353</time></trkpt><trkpt lat="55.7391562" lon="49.2201026"><time>2025-03-02T14:10:57.457</time></trkpt><trkpt lat="55.7391852" lon="49.2201958"><time>2025-03-02T14:11:00.447</time></trkpt><trkpt lat="55.7392065" lon="49.2202907"><time>2025-03-02T14:11:03.417</time></trkpt><trkpt lat="55.7392011" lon="49.2203766"><time>2025-03-02T14:11:05.413</time></trkpt><trkpt lat="55.7391985" lon="49.2204699"><time>2025-03-02T14:11:08.417</time></trkpt><trkpt lat="55.7392303" lon="49.2205392"><time>2025-03-02T14:11:12.417</time></trkpt><trkpt lat="55.7392568" lon="49.2206263"><time>2025-03-02T14:11:16.413</time></trkpt><trkpt lat="55.7392804" lon="49.2207216"><time>2025-03-02T14:11:20.313</time></trkpt><trkpt lat="55.7392989" lon="49.2207977"><time>2025-03-02T14:11:23.313</time></trkpt><trkpt lat="55.7393325" lon="49.2208600"><time>2025-03-02T14:11:27.320</time></trkpt><trkpt lat="55.7393664" lon="49.2209244"><time>2025-03-02T14:11:31.433</time></trkpt><trkpt lat="55.7393974" lon="49.2210032"><time>2025-03-02T14:11:35.317</time></trkpt><trkpt lat="55.7394141" lon="49.2211012"><time>2025-03-02T14:11:39.317</time></trkpt><trkpt lat="55.7394219" lon="49.2211899"><time>2025-03-02T14:11:44.440</time></trkpt><trkpt lat="55.7394291" lon="49.2212743"><time>2025-03-02T14:11:50.320</time></trkpt><trkpt lat="55.7394181" lon="49.2213861"><time>2025-03-02T14:12:00.327</time></trkpt><trkpt lat="55.7394229" lon="49.2214673"><time>2025-03-02T14:12:03.317</time></trkpt><trkpt lat="55.7394411" lon="49.2215549"><time>2025-03-02T14:12:07.333</time></trkpt><trkpt lat="55.7394660" lon="49.2216289"><time>2025-03-02T14:12:13.397</time></trkpt><trkpt lat="55.7394825" lon="49.2217209"><time>2025-03-02T14:12:37.417</time></trkpt><trkpt lat="55.7395066" lon="49.2217916"><time>2025-03-02T14:12:43.443</time></trkpt><trkpt lat="55.7395415" lon="49.2218421"><time>2025-03-02T14:12:47.400</time></trkpt><trkpt lat="55.7395474" lon="49.2219402"><time>2025-03-02T14:12:53.447</time></trkpt><trkpt lat="55.7395480" lon="49.2220223"><time>2025-03-02T14:13:04.413</time></trkpt><trkpt lat="55.7395392" lon="49.2221245"><time>2025-03-02T14:13:08.337</time></trkpt></trkseg></trk></gpx>